Date StartTime U_cm/s V_cm/s W_cm/s Ustd_cm/s Vstd_cm/s Wstd_cm/s Uvar_(cm/s)^2 Vvar_(cm/s)^2 Wvar_(cm/s)^2 KE_(m/s)^2 TurbulentKE_(m/s)^2 HorizWindSpeed_cm/s FrictionSpeec_cm/s DragCoef SpeedOfSound_m/s SonicTemperature_C Pressure_mb 
09/16/2014  00:00:00      -55.728       25.518      -13.189       16.112       23.700       14.515      259.582      561.674      210.681        0.248        0.052       61.292        7.941        0.017      344.509       21.378      861.303
09/16/2014  00:01:00       14.258       48.694        1.884       29.045       17.286       14.477      843.634      298.816      209.571        0.196        0.068       50.739       12.796        0.064      344.617       21.563      861.293
09/16/2014  00:02:00       52.574       49.562        3.808       31.427       15.497       19.486      987.625      240.148      379.696        0.342        0.080       72.252       13.140        0.033      344.423       21.230      861.308
09/16/2014  00:03:00       67.783       52.864       -1.919       27.596       19.123       17.075      761.551      365.688      291.558        0.441        0.071       85.960       13.913        0.026      344.192       20.837      861.328
09/16/2014  00:04:00       70.384       37.798       -0.264       33.553       30.477       18.764     1125.787      928.858      352.076        0.439        0.120       79.891       14.346        0.032      344.077       20.639      861.330
09/16/2014  00:05:00       41.653       32.228        0.720       27.972       21.194       15.760      782.433      449.174      248.362        0.213        0.074       52.665       10.380        0.039      344.005       20.516      861.336
09/16/2014  00:06:00       40.937       46.166        3.274       30.178       33.701       22.882      910.728     1135.768      523.576        0.319        0.129       61.702       22.397        0.132      344.277       20.982      861.352
09/16/2014  00:07:00       87.996       47.014       21.809       22.789       14.891       17.267      519.323      221.728      298.135        0.573        0.052       99.768       12.984        0.017      344.744       21.782      861.374
09/16/2014  00:08:00       33.169       32.771        3.702       18.083       18.254       17.547      327.008      333.226      307.890        0.158        0.048       46.627       12.059        0.067      344.520       21.397      861.395
09/16/2014  00:09:00       32.232       11.750        4.730       13.797       11.829       11.380      190.362      139.935      129.512        0.083        0.023       34.307        2.007        0.003      344.463       21.300      861.405
09/16/2014  00:10:00      -22.863        7.130        0.220       21.379       13.235        8.081      457.044      175.157       65.306        0.064        0.035       23.949        9.744        0.166      344.353       21.116      861.417
09/16/2014  00:11:00      -93.079       20.831      -10.909        9.403        9.439        8.155       88.411       89.095       66.512        0.473        0.012       95.382        4.165        0.002      344.167       20.792      861.415
09/16/2014  00:12:00      -83.074        2.973      -12.693        9.790        7.740        7.726       95.850       59.911       59.687        0.364        0.011       83.128        1.956        0.001      344.179       20.812      861.403
09/16/2014  00:13:00      -68.537        2.523      -15.718       17.424       13.822        9.319      303.591      191.061       86.850        0.277        0.029       68.584        7.733        0.013      344.158       20.778      861.395
09/16/2014  00:14:00      -41.843        2.376       -8.938       15.876       13.190        9.880      252.042      173.972       97.605        0.118        0.026       41.910        8.183        0.038      344.157       20.777      861.407
09/16/2014  00:15:00      -42.668       -6.060      -11.770       15.824       10.879       11.934      250.398      118.354      142.410        0.125        0.026       43.096       10.295        0.057      344.323       21.059      861.423
09/16/2014  00:16:00       -4.471       35.093       -3.849       18.840       28.032        6.995      354.953      785.780       48.931        0.123        0.059       35.377        9.702        0.075      344.541       21.433      861.414
09/16/2014  00:17:00       -3.056       71.767       -7.522       14.312       14.703       10.339      204.829      216.167      106.903        0.287        0.026       71.832        7.195        0.010      344.640       21.602      861.394
09/16/2014  00:18:00       -5.562      104.749       -9.174       12.807       18.661        9.056      164.012      348.243       82.017        0.584        0.030      104.896        5.843        0.003      344.765       21.814      861.382
09/16/2014  00:19:00       -6.424      113.864      -20.026       32.601       26.204       13.852     1062.832      686.624      191.890        0.767        0.097      114.045       10.862        0.009      344.983       22.188      861.400
09/16/2014  00:20:00      -53.395       97.220      -17.647       23.544       35.921       14.106      554.326     1290.339      198.985        0.733        0.102      110.918       10.829        0.010      344.761       21.808      861.396
09/16/2014  00:21:00      -18.466      146.505      -16.614       42.096       46.137       26.423     1772.035     2128.603      698.198        1.334        0.230      147.664       22.808        0.024      345.037       22.281      861.369
09/16/2014  00:22:00      -34.362       68.516      -12.201       38.172       41.103       20.128     1457.088     1689.418      405.144        0.479        0.178       76.650       22.293        0.085      344.809       21.892      861.340
09/16/2014  00:23:00      -46.542       92.362      -15.387       36.791       50.975       25.389     1353.554     2598.501      644.588        0.776        0.230      103.425       22.279        0.046      344.862       21.982      861.322
09/16/2014  00:24:00      -84.204       86.970      -13.676       38.466       38.537       23.936     1479.651     1485.135      572.920        0.919        0.177      121.054       20.302        0.028      344.878       22.009      861.302
09/16/2014  00:25:00      -97.992       63.640       -9.819       50.840       57.263       27.242     2584.681     3279.095      742.105        1.018        0.330      116.844       23.366        0.040      344.820       21.911      861.286
09/16/2014  00:26:00      -91.731       67.926      -17.079       27.616       31.085       20.852      762.662      966.270      434.821        0.774        0.108      114.143       17.214        0.023      344.843       21.949      861.293
09/16/2014  00:27:00      -95.591      117.007      -27.089       38.062       46.904       23.093     1448.686     2199.960      533.308        1.387        0.209      151.091       17.906        0.014      345.014       22.242      861.293
09/16/2014  00:28:00     -104.783       88.732      -18.584       28.359       59.601       26.062      804.242     3552.291      679.233        1.212        0.252      137.306       26.610        0.038      344.985       22.194      861.290
09/16/2014  00:29:00     -152.603       96.883      -27.844       47.154       42.365       33.356     2223.496     1794.762     1112.592        1.929        0.257      180.760       20.872        0.013      345.102       22.393      861.305
09/16/2014  00:30:00     -116.486      106.213      -25.200       42.316       47.468       22.460     1790.652     2253.254      504.437        1.502        0.227      157.639       19.941        0.016      345.018       22.248      861.321
09/16/2014  00:31:00     -129.034      129.056      -23.243       59.789       52.733       33.927     3574.678     2780.780     1151.052        2.067        0.375      182.497       33.490        0.034      345.001       22.218      861.303
09/16/2014  00:32:00     -133.620      157.970      -34.831       46.450       49.856       27.642     2157.634     2485.628      764.071        2.471        0.270      206.903       21.480        0.011      345.054       22.309      861.273
09/16/2014  00:33:00     -111.335      151.816      -24.356       53.226       69.669       37.395     2833.037     4853.732     1398.368        2.256        0.454      188.265       36.607        0.038      344.983       22.187      861.235
09/16/2014  00:34:00     -169.658      129.293      -31.773       55.171       62.665       45.109     3043.785     3926.875     2034.791        2.776        0.450      213.308       42.368        0.039      345.012       22.237      861.230
09/16/2014  00:35:00     -131.024      120.474      -25.767       61.468       56.418       34.669     3778.294     3183.046     1201.951        2.025        0.408      177.992       36.021        0.041      344.956       22.142      861.246
09/16/2014  00:36:00     -167.105       91.236      -30.512       66.485       60.242       35.796     4420.189     3629.155     1281.322        2.325        0.467      190.389       39.164        0.042      344.990       22.199      861.274
09/16/2014  00:37:00     -148.045       60.342      -25.792       58.244       50.817       29.869     3392.355     2582.347      892.135        1.654        0.343      159.870       24.037        0.023      344.888       22.026      861.281
09/16/2014  00:38:00     -152.153       55.836      -13.914       42.448       52.088       33.213     1801.815     2713.204     1103.074        1.604        0.281      162.075       20.471        0.016      344.943       22.120      861.273
09/16/2014  00:39:00     -142.178       71.172      -14.695       63.442       39.735       36.061     4024.931     1578.884     1300.364        1.620        0.345      158.997       28.461        0.032      344.979       22.181      861.262
09/16/2014  00:40:00     -114.778       66.007      -15.180       60.741       39.997       29.449     3689.419     1599.790      867.255        1.196        0.308      132.404       30.215        0.052      344.940       22.115      861.249
09/16/2014  00:41:00     -135.746       84.640      -18.254       43.659       47.006       36.385     1906.108     2209.540     1323.898        1.568        0.272      159.972       31.829        0.040      344.852       21.963      861.232
09/16/2014  00:42:00     -107.329       42.101       -7.542       39.265       59.228       29.456     1541.741     3507.914      867.655        0.963        0.296      115.291       19.358        0.028      344.746       21.784      861.232
09/16/2014  00:43:00      -75.901      -22.402      -11.214       51.500       44.520       26.106     2652.237     1982.063      681.522        0.585        0.266       79.138       20.590        0.068      344.679       21.669      861.244
09/16/2014  00:44:00      -19.528        0.764       11.544       58.805       44.819       29.465     3458.055     2008.778      868.193        0.342        0.317       19.543       29.939        2.347      344.650       21.619      861.262
09/16/2014  00:45:00      -59.133       75.341      -11.004       66.971       45.706       33.605     4485.167     2089.049     1129.305        0.850        0.385       95.775       33.264        0.121      344.745       21.782      861.267
09/16/2014  00:46:00      -27.841        4.822        5.927       30.270       30.832       16.345      916.291      950.641      267.160        0.148        0.107       28.255       17.100        0.366      344.623       21.574      861.276
09/16/2014  00:47:00      -70.952       41.007      -14.996       32.848       40.903       25.340     1079.001     1673.077      642.111        0.517        0.170       81.950       18.838        0.053      344.798       21.872      861.283
09/16/2014  00:48:00      -11.085       21.510       -4.339       16.224       28.576       19.613      263.214      816.580      384.651        0.103        0.073       24.198       19.824        0.671      344.799       21.876      861.295
09/16/2014  00:49:00        1.282       31.004        6.450       19.545       29.383       25.658      382.006      863.341      658.312        0.145        0.095       31.031        7.696        0.062      344.825       21.921      861.309
09/16/2014  00:50:00        7.160       -4.875        7.848       13.721       13.751       10.945      188.272      189.096      119.784        0.032        0.025        8.662        7.956        0.844      344.807       21.888      861.319
09/16/2014  00:51:00       23.932      -40.664        6.938       24.198       17.748       12.240      585.519      315.001      149.814        0.166        0.053       47.184        6.603        0.020      344.824       21.917      861.341
09/16/2014  00:52:00        6.055       -3.061       13.808       26.468       36.165       18.954      700.557     1307.895      359.249        0.130        0.118        6.785        6.377        0.883      344.649       21.618      861.340
09/16/2014  00:53:00       25.691       36.504        0.561       23.715       13.729       13.935      562.391      188.489      194.186        0.147        0.047       44.639       11.951        0.072      344.657       21.633      861.331
09/16/2014  00:54:00       17.815        9.881        6.525       22.967       25.683        9.436      527.466      659.627       89.042        0.087        0.064       20.371       13.999        0.472      344.693       21.695      861.319
09/16/2014  00:55:00      -74.744        8.220       -8.206       24.472       11.809        7.695      598.890      139.444       59.215        0.326        0.040       75.195        5.437        0.005      344.657       21.632      861.325
09/16/2014  00:56:00     -108.497       11.299      -10.999        9.305       10.156        6.857       86.575      103.142       47.022        0.613        0.012      109.084        3.823        0.001      344.533       21.419      861.345
09/16/2014  00:57:00     -146.653      -15.276      -11.912       39.396       30.445       19.995     1552.079      926.925      399.806        1.238        0.144      147.447       14.023        0.009      344.411       21.211      861.367
09/16/2014  00:58:00     -116.955      -27.018       -2.822       55.434       25.006       19.635     3072.984      625.302      385.551        0.925        0.204      120.035       18.223        0.023      344.400       21.191      861.376
09/16/2014  00:59:00      -71.907       15.233       -6.152       39.045       27.216       19.424     1524.534      740.698      377.289        0.404        0.132       73.503       19.356        0.069      344.675       21.660      861.371
09/16/2014  01:00:00     -129.083       -3.711      -14.195       24.313       32.217       21.629      591.135     1037.936      467.809        0.949        0.105      129.137       17.127        0.018      344.568       21.479      861.363
09/16/2014  01:01:00      -99.163       15.688      -10.867       36.663       23.727       17.678     1344.192      562.985      312.514        0.621        0.111      100.396       15.988        0.025      344.535       21.422      861.360
09/16/2014  01:02:00      -80.841      -12.994       -7.420       31.643       23.533       14.474     1001.292      553.803      209.483        0.426        0.088       81.878       17.125        0.044      344.719       21.737      861.345
09/16/2014  01:03:00      -86.686       -0.253      -12.567       34.407       30.569       18.178     1183.826      934.446      330.422        0.506        0.122       86.686       14.920        0.030      344.876       22.007      861.342
09/16/2014  01:04:00      -23.651       45.772       -6.891       21.266       45.304       24.032      452.228     2052.462      577.528        0.289        0.154       51.521       24.719        0.230      344.985       22.194      861.360
09/16/2014  01:05:00      -45.918      -26.956        8.736       34.036       37.633       19.941     1158.418     1416.249      397.648        0.294        0.149       53.246       17.505        0.108      344.601       21.535      861.370
09/16/2014  01:06:00       -4.269      -34.688       -0.433       23.795       31.096       18.530      566.215      966.942      343.345        0.155        0.094       34.950       11.758        0.113      344.387       21.170      861.385
09/16/2014  01:07:00      -85.294      -96.751        6.040       55.942       41.791       37.880     3129.537     1746.514     1434.912        1.149        0.316      128.980       37.003        0.082      343.940       20.406      861.404
09/16/2014  01:08:00      -67.525      -84.634       -2.365       56.018       49.008       25.146     3138.021     2401.743      632.323        0.895        0.309      108.270       28.648        0.070      343.859       20.269      861.424
09/16/2014  01:09:00     -104.603      -94.108       -8.734       25.237       36.814       18.499      636.917     1355.246      342.195        1.110        0.117      140.706       11.871        0.007      343.836       20.228      861.445
09/16/2014  01:10:00     -152.137      -76.253       -7.089       40.014       40.272       24.980     1601.118     1621.795      623.980        1.643        0.192      170.176       24.238        0.020      343.836       20.230      861.464
09/16/2014  01:11:00     -149.670      -81.790        2.045       53.524       38.505       26.320     2864.844     1482.638      692.733        1.707        0.252      170.560       25.045        0.022      343.899       20.337      861.468
09/16/2014  01:12:00     -160.327      -69.364       -5.649       23.628       35.793       16.510      558.279     1281.155      272.574        1.633        0.106      174.689       11.698        0.004      343.913       20.359      861.443
09/16/2014  01:13:00     -102.292      -26.940        2.545       57.679       47.603       26.948     3326.867     2266.052      726.215        0.876        0.316      105.780       30.834        0.085      343.860       20.270      861.411
09/16/2014  01:14:00     -118.473        2.863      -13.812       27.819       31.494       17.291      773.888      991.849      298.986        0.815        0.103      118.508       11.430        0.009      343.871       20.289      861.384
09/16/2014  01:15:00     -141.197       13.050      -14.504       23.497       28.477       14.833      552.115      810.942      220.026        1.095        0.079      141.799       10.697        0.006      343.928       20.385      861.363
09/16/2014  01:16:00     -105.017       15.529       -9.105       42.875       38.183       21.535     1838.278     1457.919      463.759        0.756        0.188      106.159       12.069        0.013      343.975       20.466      861.360
09/16/2014  01:17:00     -152.990      -12.839      -10.470       32.450       26.128       16.156     1052.989      682.659      261.032        1.284        0.100      153.527       15.937        0.011      344.190       20.832      861.376
09/16/2014  01:18:00     -105.977      -41.749       -6.541       30.674       28.153       15.450      940.871      792.579      238.717        0.749        0.099      113.903       10.892        0.009      343.964       20.446      861.398
09/16/2014  01:19:00      -88.725      -62.230       -4.864       23.875       25.300       17.051      570.010      640.099      290.744        0.663        0.075      108.373       14.073        0.017      343.900       20.339      861.403
09/16/2014  01:20:00     -103.815      -28.846      -10.074       13.953       18.025       11.465      194.697      324.891      131.445        0.618        0.033      107.748        6.344        0.003      343.945       20.413      861.401
09/16/2014  01:21:00      -85.683      -25.999      -11.476       17.013       14.613        9.553      289.455      213.529       91.267        0.437        0.030       89.540        6.419        0.005      344.021       20.544      861.379
09/16/2014  01:22:00      -75.016      -23.226      -15.439        9.722       19.628        7.310       94.515      385.270       53.429        0.347        0.027       78.529        7.821        0.010      344.057       20.607      861.364
09/16/2014  01:23:00      -89.249      -61.875       -9.099       21.968       20.968       14.686      482.572      439.668      215.680        0.651        0.057      108.599       10.167        0.009      344.077       20.639      861.367
09/16/2014  01:24:00     -112.694      -82.626       -5.475       54.981       45.474       33.572     3022.911     2067.882     1127.070        1.289        0.311      139.740       30.376        0.047      343.801       20.167      861.392
09/16/2014  01:25:00     -155.283     -123.303       14.097       90.640       60.576       47.138     8215.586     3669.405     2222.032        2.681        0.705      198.283       43.388        0.048      343.798       20.161      861.446
09/16/2014  01:26:00     -173.705     -117.024       10.434       87.102       51.102       39.008     7586.718     2611.461     1521.647        2.785        0.586      209.447       40.444        0.037      343.922       20.373      861.467
09/16/2014  01:27:00     -166.901     -104.422        4.598       69.490       56.212       30.022     4828.907     3159.747      901.312        2.383        0.444      196.876       32.229        0.027      344.020       20.538      861.466
09/16/2014  01:28:00     -140.213     -103.069       -2.776       73.721       57.272       36.396     5434.741     3280.056     1324.686        2.016        0.502      174.020       36.446        0.044      344.287       20.997      861.456
09/16/2014  01:29:00     -134.583      -85.132       -4.670       44.744       27.287       20.041     2002.014      744.579      401.637        1.426        0.157      159.248       19.770        0.015      344.307       21.032      861.440
09/16/2014  01:30:00     -112.191      -18.562       -9.665       26.665       33.359       16.061      711.000     1112.843      257.964        0.755        0.104      113.716       10.222        0.008      344.107       20.692      861.404
09/16/2014  01:31:00     -119.784       26.240      -16.398       35.850       33.351       21.492     1285.244     1112.270      461.908        0.908        0.143      122.624       15.628        0.016      343.934       20.396      861.382
09/16/2014  01:32:00     -168.965      -35.425      -13.675       40.439       40.239       21.462     1635.288     1619.215      460.601        1.685        0.186      172.639       22.757        0.017      344.101       20.681      861.385
09/16/2014  01:33:00     -148.224      -91.981       -9.218       37.968       37.608       26.342     1441.542     1414.393      693.918        1.703        0.177      174.444       20.711        0.014      343.850       20.251      861.427
09/16/2014  01:34:00     -169.098      -60.083       -2.561       32.410       30.338       16.647     1050.397      920.412      277.126        1.723        0.112      179.455       15.556        0.008      343.721       20.031      861.480
09/16/2014  01:35:00     -109.765      -35.095        1.860       48.595       28.405       19.482     2361.486      806.829      379.533        0.841        0.177      115.239       20.674        0.032      343.686       19.974      861.492
09/16/2014  01:36:00      -49.858      -24.439        1.601       38.389       27.639       14.691     1473.729      763.937      215.827        0.277        0.123       55.526       15.971        0.083      343.877       20.299      861.487
09/16/2014  01:37:00      -77.406       -1.206       -2.010       23.506       39.878       26.194      552.517     1590.262      686.107        0.441        0.141       77.415       20.768        0.072      343.978       20.471      861.475
09/16/2014  01:38:00      -34.024      -12.993       -0.850       30.621       23.673       11.365      937.666      560.418      129.152        0.148        0.081       36.421       12.895        0.125      344.076       20.639      861.467
09/16/2014  01:39:00      -11.903      -12.327       -3.040       16.398       14.253       11.379      268.887      203.148      129.477        0.045        0.030       17.136        4.114        0.058      343.989       20.490      861.471
09/16/2014  01:40:00      -42.287      -16.796       -8.278       26.262       18.333       10.822      689.690      336.091      117.124        0.164        0.057       45.500        6.921        0.023      344.065       20.619      861.475
09/16/2014  01:41:00      -21.571      -28.348       -0.865       23.314       21.386       15.473      543.531      457.353      239.408        0.125        0.062       35.622       15.371        0.186      343.991       20.491      861.501
09/16/2014  01:42:00      -44.123      -42.576        6.261       38.952       36.765       21.838     1517.263     1351.674      476.890        0.357        0.167       61.315       22.799        0.138      343.852       20.256      861.506
09/16/2014  01:43:00      -84.612      -79.190       -2.278       48.604       40.252       28.535     2362.374     1620.255      814.221        0.912        0.240      115.889       26.412        0.052      343.807       20.180      861.497
09/16/2014  01:44:00     -184.755      -83.188      -10.157       35.106       32.469       19.437     1232.438     1054.236      377.804        2.191        0.133      202.620       13.459        0.004      343.761       20.097      861.473
09/16/2014  01:45:00     -154.481      -64.774       -2.943       45.333       42.294       29.937     2055.103     1788.803      896.240        1.640        0.237      167.511       23.266        0.019      343.680       19.961      861.453
09/16/2014  01:46:00     -165.502      -30.431        0.202       37.669       51.514       29.883     1418.965     2653.716      892.965        1.664        0.248      168.277       18.511        0.012      343.547       19.734      861.437
09/16/2014  01:47:00     -139.434       20.834      -14.521       26.521       24.129       15.166      703.346      582.199      230.012        1.080        0.076      140.982       13.760        0.010      343.505       19.664      861.425
09/16/2014  01:48:00     -133.737       25.329      -22.140       28.684       24.261       19.980      822.762      588.602      399.217        1.041        0.091      136.114       13.948        0.011      343.570       19.774      861.415
09/16/2014  01:49:00     -163.021       18.252      -18.134       43.543       30.273       19.230     1895.973      916.475      369.805        1.521        0.159      164.040       20.936        0.016      343.751       20.082      861.404
09/16/2014  01:50:00     -120.643      -21.138       -6.339       39.647       50.363       19.699     1571.897     2536.424      388.060        0.977        0.225      122.481       11.328        0.009      343.703       20.000      861.407
09/16/2014  01:51:00     -118.778        1.184      -12.481       37.970       48.465       29.320     1441.747     2348.882      859.679        0.946        0.233      118.783       20.955        0.031      343.661       19.930      861.415
09/16/2014  01:52:00      -86.978       38.475       -3.140       34.976       40.782       19.807     1223.337     1663.156      392.304        0.617        0.164       95.108       18.292        0.037      343.776       20.126      861.413
09/16/2014  01:53:00      -64.449       75.899       -8.172       53.035       24.663       18.956     2812.750      608.255      359.313        0.688        0.189       99.570       20.387        0.042      343.997       20.503      861.394
09/16/2014  01:54:00       10.718       84.967      -16.575       21.964       19.614       14.787      482.405      384.712      218.651        0.435        0.054       85.641        7.370        0.007      343.802       20.170      861.400
09/16/2014  01:55:00      -35.100       48.615      -15.117       19.729       44.664       11.286      389.214     1994.873      127.366        0.317        0.126       59.962       17.412        0.084      343.951       20.424      861.432
09/16/2014  01:56:00      -41.836      -40.185       -3.384       35.350       21.451       23.003     1249.623      460.147      529.156        0.281        0.112       58.009       17.944        0.096      343.781       20.135      861.485
09/16/2014  01:57:00      -45.422      -54.759        2.652       53.032       32.829       36.220     2812.431     1077.760     1311.878        0.513        0.260       71.146       31.383        0.195      343.689       19.978      861.526
09/16/2014  01:58:00      -94.867     -156.509       12.593       81.103      111.254       43.017     6577.677    12377.560     1850.464        2.723        1.040      183.016       47.283        0.067      343.751       20.083      861.561
09/16/2014  01:59:00     -126.083     -198.029      -10.190       77.163      100.062       43.416     5954.106    10012.414     1884.956        3.653        0.893      234.760       41.243        0.031      343.372       19.434      861.592
09/16/2014  02:00:00     -114.650     -234.706      -11.956       51.712       78.021       34.488     2674.110     6087.241     1189.398        3.916        0.498      261.212       17.915        0.005      343.537       19.716      861.601
09/16/2014  02:01:00      -55.045      -99.845       -4.535       45.484       46.149       28.483     2068.820     2129.733      811.274        0.901        0.250      114.013       17.396        0.023      343.699       19.994      861.574
09/16/2014  02:02:00     -122.573      -14.931       -9.870       31.278       26.778       19.384      978.337      717.068      375.758        0.871        0.104      123.479       19.061        0.024      343.629       19.875      861.509
09/16/2014  02:03:00     -144.201      -29.861       -4.596       43.599       28.960       22.999     1900.845      838.666      528.946        1.249        0.163      147.260       19.234        0.017      343.551       19.742      861.484
09/16/2014  02:04:00     -131.094      -30.400       -0.813       47.079       40.914       20.588     2216.389     1673.960      423.869        1.121        0.216      134.572       21.143        0.025      343.592       19.812      861.485
09/16/2014  02:05:00      -89.335      -31.429        1.658       33.403       30.516       20.019     1115.756      931.225      400.780        0.571        0.122       94.702       18.313        0.037      343.733       20.052      861.479
09/16/2014  02:06:00      -95.002       -7.491       -8.205       30.270       13.618       15.352      916.299      185.444      235.697        0.524        0.067       95.297       18.074        0.036      343.846       20.245      861.487
09/16/2014  02:07:00      -58.614       -2.454       -1.812       24.119       17.528       13.902      581.708      307.242      193.261        0.226        0.054       58.665       13.666        0.054      343.783       20.137      861.489
09/16/2014  02:08:00      -46.329       17.382       -3.905       21.172       38.423       22.335      448.271     1476.338      498.857        0.244        0.121       49.482       11.368        0.053      344.728       21.753      861.483
09/16/2014  02:09:00        7.680      -48.004       -7.836       20.740       25.852       14.879      430.154      668.301      221.397        0.187        0.066       48.615        6.762        0.019      343.959       20.436      861.501
09/16/2014  02:10:00        7.640      -39.803        6.681        9.718       21.355       10.156       94.445      456.043      103.141        0.117        0.033       40.529       12.013        0.088      343.924       20.378      861.494
09/16/2014  02:11:00        1.978      -15.439        8.847        8.877       31.498       17.400       78.796      992.147      302.767        0.085        0.069       15.565       22.309        2.054      343.752       20.084      861.501
09/16/2014  02:12:00      -28.070     -102.871       -6.548       29.975       24.376       12.770      898.517      594.174      163.066        0.653        0.083      106.632        9.151        0.007      344.034       20.567      861.527
09/16/2014  02:13:00     -138.239     -120.043      -16.207       52.769       69.330       23.529     2784.518     4806.645      553.593        2.096        0.407      183.086       23.326        0.016      343.987       20.484      861.539
09/16/2014  02:14:00     -146.193     -134.881       -7.274       54.052       78.489       43.022     2921.599     6160.446     1850.901        2.527        0.547      198.910       42.683        0.046      343.574       19.779      861.526
09/16/2014  02:15:00     -126.206     -113.371      -13.919       46.578       61.752       27.021     2169.506     3813.277      730.148        1.784        0.336      169.650       14.314        0.007      343.982       20.476      861.507
09/16/2014  02:16:00     -123.242        9.603      -24.968       11.847       38.565       11.090      140.346     1487.244      122.990        0.883        0.088      123.615       11.517        0.009      344.292       21.007      861.438
09/16/2014  02:17:00      -67.614       25.591      -11.432       36.750       11.967       13.399     1350.532      143.211      179.533        0.351        0.084       72.295       17.804        0.061      345.445       22.980      861.400
09/16/2014  02:18:00       30.688      -93.388       13.714       67.440       85.290       59.363     4548.204     7274.408     3523.974        1.260        0.767       98.301       45.097        0.210      344.407       21.204      861.479
09/16/2014  02:19:00       93.997      -89.031       -0.540       89.642      135.452       71.447     8035.707    18347.325     5104.740        2.412        1.574      129.468       87.845        0.460      344.144       20.752      861.507
09/16/2014  02:20:00      137.262       96.031       55.413       79.342       51.079       42.844     6295.203     2609.071     1835.639        2.093        0.537      167.519       41.435        0.061      344.196       20.841      861.467
09/16/2014  02:21:00      123.255      139.731        6.619       68.183       61.412       43.637     4648.949     3771.488     1904.175        2.254        0.516      186.324       31.757        0.029      344.122       20.716      861.383
09/16/2014  02:22:00      -56.177      137.390      -26.881       61.506       92.124       31.651     3783.009     8486.876     1001.803        1.801        0.664      148.431       21.707        0.021      343.944       20.412      861.356
09/16/2014  02:23:00     -203.454      -91.690      -23.865       52.029       46.566       31.716     2707.054     2168.408     1005.936        2.812        0.294      223.160       17.771        0.006      343.616       19.849      861.327
09/16/2014  02:24:00     -129.276       79.190      -28.578       65.928      124.353       37.421     4346.523    15463.685     1400.330        2.250        1.061      151.603       45.725        0.091      344.330       21.070      861.295
09/16/2014  02:25:00     -100.002      101.912      -14.180       72.002      115.930       34.392     5184.226    13439.757     1182.807        2.019        0.990      142.781       37.447        0.069      345.268       22.676      861.275
09/16/2014  02:26:00      -31.076     -184.188       -6.441       65.299       84.011       41.920     4263.941     7057.804     1757.328        2.400        0.654      186.791       30.173        0.026      344.152       20.765      861.375
09/16/2014  02:27:00      -27.822     -131.843       12.949       55.138      102.081       31.146     3040.203    10420.608      970.080        1.637        0.722      134.747       41.403        0.094      344.037       20.568      861.407
09/16/2014  02:28:00      -56.273      -16.005       -0.399       39.442       37.782       24.586     1555.637     1427.501      604.453        0.350        0.179       58.505       24.186        0.171      343.955       20.432      861.358
09/16/2014  02:29:00      -63.594      -33.335        2.205       54.430       49.491       32.560     2962.583     2449.370     1060.137        0.581        0.324       71.801       38.398        0.286      343.868       20.283      861.338
09/16/2014  02:30:00      -58.021      -11.019        4.476       23.386       17.785       11.901      546.916      316.305      141.643        0.226        0.050       59.058        3.624        0.004      343.998       20.504      861.298
09/16/2014  02:31:00      -34.667      -11.410        3.846       29.787       26.588       11.629      887.285      706.936      135.228        0.154        0.086       36.497       12.212        0.112      344.010       20.526      861.275
09/16/2014  02:32:00       35.816       16.871       17.360       11.863       22.847       15.106      140.738      521.985      228.198        0.138        0.045       39.591        8.382        0.045      343.825       20.209      861.278
09/16/2014  02:33:00       24.687       45.119       -2.479       19.207       12.833       11.990      368.890      164.677      143.757        0.166        0.034       51.431       11.130        0.047      343.968       20.453      861.270
09/16/2014  02:34:00      -55.183       55.215      -16.417       44.652       23.690       12.895     1993.804      561.197      166.272        0.454        0.136       78.063       20.019        0.066      344.066       20.622      861.248
09/16/2014  02:35:00      -58.525       69.348      -17.256       26.698       24.280       16.545      712.801      589.497      273.732        0.505        0.079       90.743       13.833        0.023      344.003       20.514      861.233
09/16/2014  02:36:00      -54.060       -8.953       -7.137       19.447       47.425       12.962      378.190     2249.112      168.002        0.292        0.140       54.796        7.329        0.018      343.920       20.373      861.233
09/16/2014  02:37:00      -32.059      -18.182      -13.479       19.951       18.495       15.715      398.060      342.069      246.960        0.126        0.049       36.856       13.286        0.130      343.859       20.268      861.240
09/16/2014  02:38:00      -39.036      -45.125      -10.758       21.781       18.887       12.639      474.395      356.731      159.749        0.233        0.050       59.666       10.076        0.029      343.941       20.407      861.244
09/16/2014  02:39:00      -96.518      -25.908      -18.471       39.093       26.479       10.285     1528.275      701.130      105.772        0.633        0.117       99.934       11.533        0.013      344.160       20.781      861.223
09/16/2014  02:40:00     -113.917       11.218      -13.080       31.078       24.101       16.270      965.823      580.864      264.699        0.754        0.091      114.468       13.027        0.013      343.953       20.428      861.202
09/16/2014  02:41:00      -76.447       20.114      -10.245       37.426       32.333       22.081     1400.680     1045.439      487.590        0.464        0.147       79.049       14.326        0.033      344.082       20.648      861.224
09/16/2014  02:42:00      -99.892        2.421      -15.670       26.725       12.317       13.577      714.207      151.699      184.343        0.564        0.053       99.921        8.985        0.008      344.206       20.861      861.231
09/16/2014  02:43:00     -135.739        4.001      -12.876       38.079       18.714       13.244     1450.018      350.213      175.406        1.029        0.099      135.798       11.265        0.007      344.094       20.669      861.237
09/16/2014  02:44:00     -123.388      -29.286      -15.104       25.505       22.140       15.886      650.509      490.195      252.372        0.885        0.070      126.816       12.497        0.010      343.990       20.491      861.249
09/16/2014  02:45:00     -130.980      -30.795       -1.168       48.351       24.783       19.592     2337.794      614.177      383.857        1.072        0.167      134.552       21.646        0.026      343.966       20.449      861.250
09/16/2014  02:46:00      -95.611      -52.572        4.575       45.655       28.955       17.733     2084.401      838.407      314.449        0.758        0.162      109.112       19.426        0.032      343.887       20.315      861.256
09/16/2014  02:47:00      -24.538      -53.973        4.972       48.419       45.317       27.341     2344.416     2053.587      747.542        0.434        0.257       59.289       26.302        0.197      343.873       20.293      861.288
09/16/2014  02:48:00      -77.647     -104.411        1.841       48.267       62.443       26.860     2329.690     3899.130      721.453        1.194        0.348      130.118       24.170        0.035      343.937       20.400      861.326
09/16/2014  02:49:00      -68.023      -43.419       -1.479       21.824       34.764       19.308      476.298     1208.516      372.789        0.429        0.103       80.699       11.663        0.021      343.997       20.504      861.336
09/16/2014  02:50:00      -73.802      -34.250        3.342       46.684       35.872       21.773     2179.420     1286.813      474.063        0.528        0.197       81.363       23.441        0.083      343.973       20.463      861.351
09/16/2014  02:51:00      -14.317      -31.204       -0.065       22.902       22.667       17.992      524.483      513.804      323.705        0.127        0.068       34.332       16.902        0.242      344.020       20.544      861.362
09/16/2014  02:52:00       -7.221      -30.299        4.998       23.095       22.994       14.653      533.361      528.717      214.725        0.114        0.064       31.148       14.854        0.227      343.961       20.442      861.374
09/16/2014  02:53:00       37.781      -42.412        0.092       23.201       36.832       20.318      538.278     1356.624      412.807        0.277        0.115       56.800       20.585        0.131      344.011       20.528      861.414
09/16/2014  02:54:00       37.293      -64.298       -9.416       43.168       45.131       31.825     1863.517     2036.845     1012.832        0.526        0.246       74.330       28.554        0.148      343.813       20.189      861.445
09/16/2014  02:55:00       16.413       -0.041        9.303       24.371       39.811       22.062      593.940     1584.943      486.729        0.151        0.133       16.413       18.571        1.280      343.668       19.942      861.425
09/16/2014  02:56:00       25.402      -51.570        7.249       21.763       27.675       15.703      473.640      765.898      246.583        0.242        0.074       57.487       10.347        0.032      344.006       20.519      861.371
09/16/2014  02:57:00      -71.840       51.880      -12.591       36.422       45.073       21.020     1326.530     2031.543      441.825        0.590        0.190       88.614       27.942        0.099      343.943       20.410      861.315
09/16/2014  02:58:00      -70.560        2.244      -11.163       37.367       39.491       11.895     1396.280     1559.564      141.482        0.410        0.155       70.596       10.299        0.021      343.781       20.135      861.327
09/16/2014  02:59:00        7.378        6.913       36.608       31.414       65.519       59.267      986.816     4292.689     3512.556        0.512        0.440       10.111       58.515       33.494      343.728       20.043      861.385
09/16/2014  03:00:00       47.681       40.282       82.333       58.557       80.520       57.951     3428.921     6483.549     3358.376        1.197        0.664       62.419       56.313        0.814      343.598       19.823      861.432
09/16/2014  03:01:00       77.055      -63.058        3.296       44.526       35.071       21.487     1982.557     1229.976      461.677        0.680        0.184       99.568       11.806        0.014      343.755       20.091      861.456
09/16/2014  03:02:00      -93.128      -31.679       -3.141       58.631       34.439       21.574     3437.548     1186.047      465.441        0.739        0.254       98.368       25.563        0.068      343.897       20.332      861.468
09/16/2014  03:03:00     -132.725      -48.180       -4.769       52.987       34.868       20.295     2807.618     1215.790      411.893        1.220        0.222      141.199       21.172        0.022      343.615       19.851      861.465
09/16/2014  03:04:00     -109.492      -22.391        0.257       44.419       41.761       21.695     1973.084     1743.998      470.658        0.834        0.209      111.758       20.762        0.035      343.622       19.864      861.434
09/16/2014  03:05:00     -165.851        6.688      -11.204       34.753       31.820       24.170     1207.756     1012.512      584.176        1.524        0.140      165.986       21.278        0.016      343.670       19.945      861.414
09/16/2014  03:06:00      -83.512       90.917       -8.823       26.499       31.551       21.701      702.200      995.476      470.947        0.874        0.108      123.451       16.682        0.018      343.741       20.066      861.418
09/16/2014  03:07:00      -81.096       85.097      -15.202       32.070       37.898       21.243     1028.478     1436.289      451.249        0.848        0.146      117.550       18.476        0.025      344.317       21.051      861.412
09/16/2014  03:08:00      -38.805       12.723       -5.821       22.284       31.308       15.623      496.570      980.205      244.072        0.171        0.086       40.837       20.606        0.255      344.282       20.991      861.427
09/16/2014  03:09:00      -34.573      -16.067       -9.146       19.615       19.705        9.561      384.731      388.277       91.404        0.120        0.043       38.124        4.932        0.017      344.040       20.577      861.452
09/16/2014  03:10:00      -67.007      -16.197      -13.223       14.018       13.722       11.081      196.493      188.283      122.786        0.272        0.025       68.937        6.888        0.010      343.913       20.361      861.468
09/16/2014  03:11:00      -61.926      -13.365       -7.820        9.941       15.314        9.509       98.831      234.522       90.423        0.225        0.021       63.351        4.835        0.006      344.000       20.508      861.459
09/16/2014  03:12:00      -23.082       -2.483       -1.319       14.848        9.487        6.014      220.454       90.005       36.165        0.044        0.017       23.215        6.751        0.085      344.011       20.527      861.452
09/16/2014  03:13:00        6.117       33.950        4.913       18.129       11.429       12.368      328.650      130.625      152.965        0.091        0.031       34.496       10.853        0.099      344.069       20.625      861.434
09/16/2014  03:14:00      -17.474       98.849      -16.438       21.349       20.981       10.329      455.781      440.201      106.691        0.567        0.050      100.381        8.987        0.008      344.053       20.601      861.389
09/16/2014  03:15:00      -39.066       61.756      -13.135       16.766       25.500       10.118      281.085      650.245      102.366        0.327        0.052       73.075       11.442        0.025      344.084       20.652      861.370
09/16/2014  03:16:00      -26.631       26.506       -1.534       17.387       13.765        8.767      302.303      189.488       76.860        0.099        0.028       37.573        4.267        0.013      344.210       20.868      861.350
09/16/2014  03:17:00      -18.054       -4.822       -1.900       12.879       10.268        6.790      165.861      105.424       46.104        0.034        0.016       18.687        5.984        0.103      344.112       20.699      861.339
09/16/2014  03:18:00      -93.593      -33.494       -9.710       29.325       34.052       16.760      859.967     1159.572      280.908        0.614        0.115       99.406       12.390        0.016      343.573       19.780      861.307
09/16/2014  03:19:00     -113.281      -51.587      -11.448       27.531       20.938       13.763      757.955      438.405      189.433        0.851        0.069      124.474       12.657        0.010      343.593       19.815      861.327
09/16/2014  03:20:00     -124.552       -7.536      -17.869       11.377       24.976        9.565      129.432      623.797       91.481        0.837        0.042      124.780        9.007        0.005      343.634       19.882      861.321
09/16/2014  03:21:00      -72.837       55.766      -17.943       30.811       23.698       12.061      949.330      561.616      145.465        0.520        0.083       91.734       11.875        0.017      343.713       20.019      861.280
09/16/2014  03:22:00       -3.186      121.221      -12.689       23.806       21.549       12.266      566.718      464.341      150.447        0.802        0.059      121.263        7.110        0.003      344.081       20.648      861.283
09/16/2014  03:23:00        2.864      120.362      -15.389       18.582       24.243       11.102      345.288      587.733      123.262        0.789        0.053      120.396        6.191        0.003      344.007       20.519      861.298
09/16/2014  03:24:00       -3.108      138.850      -17.646       21.078       26.221       10.107      444.282      687.536      102.150        1.042        0.062      138.884        8.428        0.004      344.127       20.727      861.304
09/16/2014  03:25:00      -28.562      153.455      -13.913       19.563       22.723       17.591      382.697      516.327      309.454        1.288        0.060      156.090       14.542        0.009      344.246       20.929      861.281
09/16/2014  03:26:00      -60.805       60.655      -15.960       23.537       48.046       14.449      553.994     2308.427      208.769        0.535        0.154       85.885       19.618        0.052      343.944       20.414      861.271
09/16/2014  03:27:00      -67.127       15.798       -9.348       20.630       21.803       12.865      425.593      475.360      165.508        0.295        0.053       68.961        9.123        0.018      343.638       19.891      861.252
09/16/2014  03:28:00      -88.855      -11.363      -11.332       29.270       30.727       10.679      856.710      944.140      114.046        0.503        0.096       89.579       10.257        0.013      343.417       19.513      861.246
09/16/2014  03:29:00     -117.768      -33.532      -12.524       21.144       29.910       18.722      447.056      894.619      350.523        0.842        0.085      122.448        8.067        0.004      343.302       19.318      861.263
09/16/2014  03:30:00      -95.667        0.460      -16.020       27.857       22.356       18.271      776.024      499.774      333.818        0.551        0.080       95.668       15.985        0.028      343.680       19.962      861.276
09/16/2014  03:31:00      -92.992       25.095      -11.171       28.844       23.890       17.748      831.960      570.750      314.994        0.556        0.086       96.319        9.908        0.011      343.880       20.304      861.274
09/16/2014  03:32:00      -56.565       32.694       -2.046       35.537       31.625       17.832     1262.879     1000.120      317.978        0.343        0.129       65.334       20.934        0.103      344.070       20.627      861.289
09/16/2014  03:33:00      -13.281       56.402       -8.495       21.883       23.558       11.875      478.887      554.998      141.025        0.230        0.059       57.944        3.223        0.003      344.263       20.955      861.279
09/16/2014  03:34:00       -7.530       84.965       -0.837       21.546       32.220       13.684      464.235     1038.129      187.258        0.448        0.084       85.298       11.939        0.020      344.424       21.233      861.241
09/16/2014  03:35:00       15.985      -27.505       -6.257       15.911       24.850       11.247      253.160      617.533      126.487        0.102        0.050       31.812        8.209        0.067      343.884       20.310      861.238
09/16/2014  03:36:00        4.915      -49.558      -15.398       15.510       15.568        9.927      240.562      242.364       98.538        0.165        0.029       49.801        8.887        0.032      343.640       19.893      861.257
09/16/2014  03:37:00      -21.366       -4.143       -7.424       26.691        7.565        5.413      712.429       57.235       29.302        0.066        0.040       21.764        4.713        0.047      343.626       19.870      861.201
09/16/2014  03:38:00      -81.017       11.409       -7.316       12.024       12.942        6.857      144.568      167.490       47.012        0.355        0.018       81.817        5.735        0.005      343.601       19.828      861.150
09/16/2014  03:39:00      -42.703      -29.714       -2.953       25.655       15.619       13.309      658.184      243.947      177.128        0.190        0.054       52.023       12.781        0.060      343.485       19.629      861.169
09/16/2014  03:40:00      -75.048      -61.557        6.636       62.949       48.767       33.772     3962.580     2378.188     1140.552        0.847        0.374       97.064       31.569        0.106      343.382       19.454      861.198
09/16/2014  03:41:00      -74.002     -143.276       14.520       53.871       69.533       39.264     2902.043     4834.841     1541.657        1.774        0.464      161.258       38.020        0.056      343.462       19.588      861.234
09/16/2014  03:42:00      -42.056     -118.963        1.115       40.110       33.496       31.075     1608.785     1121.999      965.640        0.981        0.185      126.178       22.941        0.033      343.672       19.948      861.217
09/16/2014  03:43:00      -13.759      -62.679        0.123       22.890       30.670       17.864      523.950      940.670      319.135        0.295        0.089       64.172       15.118        0.056      343.785       20.142      861.196
09/16/2014  03:44:00        3.046      -58.775       -4.343       25.610       18.983       15.118      655.888      360.340      228.558        0.236        0.062       58.854       12.849        0.048      343.834       20.225      861.218
09/16/2014  03:45:00       19.251      -61.409      -16.224       23.536       29.018       15.777      553.948      842.035      248.925        0.302        0.082       64.355       11.712        0.033      343.664       19.935      861.251
09/16/2014  03:46:00      -18.018      -61.914       -1.198       47.454       46.767       30.107     2251.867     2187.124      906.455        0.475        0.267       64.483       19.243        0.089      343.518       19.685      861.266
09/16/2014  03:47:00      -72.015      -92.263        4.402       57.564       59.056       33.272     3313.670     3487.560     1107.035        1.081        0.395      117.041       16.537        0.020      343.451       19.573      861.261
09/16/2014  03:48:00     -112.029     -102.157       -9.320       66.211       72.796       38.279     4383.928     5299.320     1465.297        1.711        0.557      151.613       36.663        0.058      343.232       19.198      861.249
09/16/2014  03:49:00     -165.385     -111.009      -10.614       34.990       47.596       22.016     1224.301     2265.395      484.719        2.188        0.199      199.186       14.568        0.005      343.128       19.018      861.227
09/16/2014  03:50:00     -153.505      -66.088       -2.137       31.859       33.424       20.647     1014.993     1117.193      426.306        1.525        0.128      167.127       13.260        0.006      343.094       18.963      861.189
09/16/2014  03:51:00     -119.423      -47.557        2.062       45.707       23.385       22.467     2089.159      546.860      504.784        0.983        0.157      128.544       24.588        0.037      343.085       18.949      861.144
09/16/2014  03:52:00      -88.815      -55.039        3.925       45.379       27.632       24.089     2059.286      763.517      580.293        0.717        0.170      104.486       21.560        0.043      343.125       19.016      861.142
09/16/2014  03:53:00      -75.415      -59.417        8.852       74.308       45.968       32.136     5521.666     2113.066     1032.707        0.898        0.433       96.009       35.630        0.138      343.114       18.997      861.185
09/16/2014  03:54:00      -66.499     -136.431        4.880       53.615       66.880       33.525     2874.590     4472.986     1123.911        1.576        0.424      151.775       40.088        0.070      343.210       19.161      861.235
09/16/2014  03:55:00      -98.012     -124.283       -0.111       53.440       51.957       33.100     2855.837     2699.485     1095.630        1.585        0.333      158.280       33.857        0.046      343.311       19.332      861.258
09/16/2014  03:56:00      -93.271      -75.529        5.849       61.691       44.779       33.690     3805.790     2005.162     1135.037        1.069        0.347      120.018       34.031        0.080      343.292       19.301      861.242
09/16/2014  03:57:00      -86.439      -60.340       -2.060       35.499       31.233       22.430     1260.196      975.498      503.120        0.693        0.137      105.417       20.087        0.036      343.373       19.439      861.231
09/16/2014  03:58:00      -56.733      -12.592       -0.027       26.277       17.362       14.281      690.469      301.449      203.939        0.229        0.060       58.113       12.880        0.049      343.332       19.369      861.212
09/16/2014  03:59:00     -116.476       -5.375       -8.378       28.177       15.149       14.247      793.947      229.488      202.972        0.745        0.061      116.600       13.623        0.014      343.464       19.593      861.175
09/16/2014  04:00:00      -75.535       12.034       -4.340       25.415       20.741       10.784      645.940      430.190      116.302        0.353        0.060       76.488        5.031        0.004      343.383       19.456      861.142
09/16/2014  04:01:00      -49.757      -11.189       -1.670       19.022       12.748        9.534      361.821      162.514       90.894        0.161        0.031       51.000        5.283        0.011      343.394       19.475      861.161
09/16/2014  04:02:00      -95.908       -0.672      -10.632       20.236       17.058       16.756      409.514      290.988      280.760        0.515        0.049       95.911       14.340        0.022      343.561       19.759      861.178
09/16/2014  04:03:00     -119.564      -12.226      -13.341       29.597       16.885       11.636      876.000      285.107      135.400        0.796        0.065      120.188       10.791        0.008      343.429       19.532      861.172
09/16/2014  04:04:00     -131.784        2.335       -7.106       31.193       22.644       19.307      973.011      512.759      372.774        0.964        0.093      131.805       17.359        0.017      343.330       19.365      861.165
09/16/2014  04:05:00     -135.665        9.167       -7.213       42.231       32.700       19.445     1783.445     1069.314      378.126        1.089        0.162      135.975       17.293        0.016      343.446       19.564      861.173
09/16/2014  04:06:00      -47.633      -33.530       -2.906       53.517       22.329       13.061     2864.119      498.599      170.589        0.347        0.177       58.250       15.812        0.074      343.454       19.578      861.197
09/16/2014  04:07:00       27.126      -38.227        4.192       41.350       45.821       41.221     1709.796     2099.531     1699.141        0.386        0.275       46.873       31.914        0.464      343.202       19.148      861.230
09/16/2014  04:08:00       49.069      -48.859       28.108       51.501       63.191       42.132     2652.403     3993.098     1775.089        0.700        0.421       69.246       40.275        0.338      343.106       18.985      861.272
09/16/2014  04:09:00      -44.469      -11.030      -10.678       70.109       48.264       18.172     4915.326     2329.428      330.231        0.489        0.379       45.816       18.227        0.158      343.150       19.058      861.255
09/16/2014  04:10:00     -158.604       54.622      -19.775       44.299       29.947       16.183     1962.445      896.808      261.896        1.582        0.156      167.746       15.003        0.008      343.126       19.018      861.154
09/16/2014  04:11:00     -158.185       36.510       -8.034       64.455       45.199       25.807     4154.498     2042.947      665.997        1.664        0.343      162.344       27.471        0.029      343.164       19.082      861.083
09/16/2014  04:12:00      -80.624      -70.511        9.678       67.018       43.464       28.776     4491.429     1889.150      828.035        0.939        0.360      107.107       25.511        0.057      343.021       18.839      861.123
09/16/2014  04:13:00     -118.432      -57.057       -4.577       70.349       34.302       21.721     4948.995     1176.661      471.785        1.195        0.330      131.460       23.355        0.032      343.109       18.989      861.223
09/16/2014  04:14:00      -59.524      -87.137       -5.500       57.105       36.628       21.603     3260.930     1341.645      466.709        0.812        0.253      105.527       18.019        0.029      343.183       19.115      861.288
09/16/2014  04:15:00      -76.984     -103.963      -17.926       35.512       31.140       19.792     1261.127      969.726      391.731        0.984        0.131      129.363       12.133        0.009      343.257       19.243      861.339
09/16/2014  04:16:00      -46.652      -52.398        0.038       38.350       31.436       25.285     1470.693      988.245      639.328        0.401        0.155       70.157       18.682        0.071      343.160       19.077      861.341
09/16/2014  04:17:00     -113.412      -19.188       -9.649       25.681       39.372       13.281      659.493     1550.182      176.393        0.785        0.119      115.024       13.338        0.013      343.283       19.286      861.250
09/16/2014  04:18:00     -154.626       38.945      -14.117       42.291       24.488       16.745     1788.517      599.682      280.391        1.415        0.133      159.455       15.152        0.009      343.181       19.111      861.187
09/16/2014  04:19:00     -116.547        6.473      -12.490       62.021       39.890       17.832     3846.599     1591.249      317.968        0.977        0.288      116.727       16.180        0.019      343.057       18.900      861.194
09/16/2014  04:20:00      -92.681      -34.640       -4.911       30.245       27.904       13.203      914.743      778.609      174.324        0.584        0.093       98.943       12.622        0.016      343.048       18.885      861.211
09/16/2014  04:21:00     -111.853      -41.930       -8.473       53.199       36.546       22.839     2830.082     1335.579      521.632        0.951        0.234      119.454       19.639        0.027      342.980       18.769      861.248
09/16/2014  04:22:00      -54.659      -59.258        2.616       71.210       32.580       32.917     5070.803     1061.447     1083.520        0.686        0.361       80.617       27.837        0.119      342.950       18.718      861.287
09/16/2014  04:23:00      -64.846      -52.726       -4.571       41.326       44.016       27.623     1707.800     1937.437      763.048        0.571        0.220       83.577       22.562        0.073      342.993       18.790      861.309
09/16/2014  04:24:00      -39.098      -14.382        0.652       30.821       28.345       12.824      949.911      803.453      164.453        0.183        0.096       41.660        9.608        0.053      342.944       18.708      861.284
09/16/2014  04:25:00      -71.445      -10.732       -2.626       24.494       29.379       13.912      599.939      863.099      193.547        0.344        0.083       72.247        9.431        0.017      343.021       18.839      861.246
09/16/2014  04:26:00      -66.250      -44.160        3.014       32.552       30.457       21.757     1059.654      927.658      473.350        0.440        0.123       79.619       16.159        0.041      342.977       18.764      861.249
09/16/2014  04:27:00      -57.801      -26.438        1.398       33.034       33.136       17.987     1091.253     1098.003      323.527        0.328        0.126       63.560       14.556        0.052      343.082       18.943      861.265
09/16/2014  04:28:00      -81.858      -17.714       -1.096       23.227       23.266       16.703      539.494      541.298      278.982        0.419        0.068       83.753       13.767        0.027      343.125       19.017      861.277
09/16/2014  04:29:00      -70.796      -19.244       -7.665       14.588       13.675       10.797      212.802      187.009      116.580        0.298        0.026       73.365        7.953        0.012      343.061       18.908      861.279
09/16/2014  04:30:00      -83.510      -13.097       -7.547       28.872       17.878       12.109      833.573      319.627      146.631        0.425        0.065       84.531       12.101        0.020      343.026       18.848      861.269
09/16/2014  04:31:00     -123.429       -0.727      -17.177       17.842       20.662       13.768      318.325      426.924      189.554        0.823        0.047      123.431       10.038        0.007      342.872       18.584      861.216
09/16/2014  04:32:00     -129.559       13.723      -16.972       45.484       38.535       22.711     2068.758     1484.930      515.799        1.066        0.203      130.284       15.394        0.014      342.963       18.741      861.173
09/16/2014  04:33:00     -154.472       11.350      -15.585       46.148       35.404       17.009     2129.683     1253.441      289.317        1.395        0.184      154.888        8.675        0.003      342.912       18.654      861.155
09/16/2014  04:34:00     -125.029      -13.451       -6.667       42.844       28.042       23.715     1835.599      786.369      562.405        0.952        0.159      125.750       22.394        0.032      342.802       18.466      861.175
09/16/2014  04:35:00     -126.351      -49.086       -9.602       41.161       23.244       23.038     1694.234      540.301      530.741        1.062        0.138      135.550       18.234        0.018      342.768       18.410      861.217
09/16/2014  04:36:00      -94.269     -121.936       16.006      101.611       85.019       52.826    10324.787     7228.231     2790.584        2.217        1.017      154.126       49.792        0.104      342.845       18.537      861.273
09/16/2014  04:37:00     -373.573     -251.862      -20.552      136.701      108.237       60.462    18687.171    11715.214     3655.645       11.873        1.703      450.546       55.547        0.015      342.616       18.147      861.281
09/16/2014  04:38:00     -227.689     -126.055       -3.235      122.429       99.860       57.697    14988.742     9971.935     3328.965        4.801        1.414      260.254       64.458        0.061      342.525       17.992      861.273
09/16/2014  04:39:00     -191.058       31.928      -13.729       58.809       67.016       35.293     3458.464     4491.100     1245.606        2.345        0.460      193.707       29.754        0.024      342.916       18.659      861.249
09/16/2014  04:40:00     -187.348       88.578      -30.630       39.547       59.871       31.771     1563.930     3584.490     1009.369        2.502        0.308      207.232       27.473        0.018      343.058       18.900      861.163
09/16/2014  04:41:00     -160.994        9.236      -14.902       41.399       49.398       30.057     1713.867     2440.192      903.412        1.564        0.253      161.259       28.374        0.031      342.779       18.428      861.100
09/16/2014  04:42:00     -196.274      -41.009      -26.355       41.745       47.087       34.173     1742.666     2217.161     1167.773        2.301        0.256      200.512       21.586        0.012      342.931       18.685      861.101
09/16/2014  04:43:00     -181.448       94.446      -21.427       71.465       50.409       40.495     5107.236     2541.089     1639.858        2.579        0.464      204.557       40.278        0.039      343.354       19.404      861.096
09/16/2014  04:44:00     -146.086      -31.776      -10.798       64.419       95.369       36.705     4149.789     9095.269     1347.282        1.853        0.730      149.502       24.880        0.028      343.162       19.080      861.108
09/16/2014  04:45:00        8.932      -34.710       19.358       65.379       48.231       42.597     4274.453     2326.199     1814.541        0.504        0.421       35.841       19.898        0.308      342.852       18.552      861.194
09/16/2014  04:46:00      -25.497      -23.045       28.365       40.103       56.712       40.748     1608.273     3216.208     1660.400        0.423        0.324       34.368       23.857        0.482      342.856       18.560      861.212
09/16/2014  04:47:00       75.943      -66.736       12.856       66.022       72.040       44.054     4358.925     5189.745     1940.731        1.094        0.574      101.099       45.360        0.201      343.034       18.861      861.242
09/16/2014  04:48:00      -53.480        0.958        2.465       86.625       87.022       33.471     7503.856     7572.910     1120.341        0.953        0.810       53.488       22.591        0.178      343.162       19.079      861.257
09/16/2014  04:49:00     -119.598      114.144       -5.170       78.971       79.653       58.946     6236.480     6344.618     3474.625        2.170        0.803      165.325       55.180        0.111      343.614       19.848      861.196
09/16/2014  04:50:00     -155.785       46.170       -7.266       80.519       74.825       49.567     6483.385     5598.712     2456.936        2.049        0.727      162.483       46.150        0.081      343.798       20.161      861.193
09/16/2014  04:51:00     -201.954      -38.491        1.148       89.185       48.959       36.126     7953.990     2396.941     1305.115        2.696        0.583      205.589       31.978        0.024      343.598       19.821      861.247
09/16/2014  04:52:00      -78.595       16.352        7.358       58.015       37.251       27.026     3365.789     1387.644      730.408        0.599        0.274       80.278       32.347        0.162      343.287       19.292      861.291
09/16/2014  04:53:00      -67.508       37.951       -1.848       55.181       21.846       19.604     3044.961      477.242      384.326        0.495        0.195       77.444       20.244        0.068      343.364       19.423      861.248
09/16/2014  04:54:00     -143.679       17.415      -13.783       44.121       51.801       27.991     1946.685     2683.390      783.487        1.327        0.271      144.730       26.010        0.032      343.638       19.889      861.198
09/16/2014  04:55:00     -240.046      -59.711      -16.656       81.408       67.471       41.051     6627.330     4552.295     1685.167        3.716        0.643      247.361       40.367        0.027      343.201       19.142      861.156
09/16/2014  04:56:00     -221.253       -2.169      -13.556       79.104       57.464       39.241     6257.490     3302.159     1539.840        3.012        0.555      221.264       39.313        0.032      343.526       19.696      861.130
09/16/2014  04:57:00     -173.242      -21.720       -7.084       65.998       52.098       37.913     4355.766     2714.153     1437.358        1.952        0.425      174.599       36.952        0.045      343.571       19.774      861.126
09/16/2014  04:58:00     -117.422       32.006       -3.134       56.466       50.679       25.944     3188.415     2568.383      673.085        1.062        0.321      121.706       16.026        0.017      343.522       19.693      861.145
09/16/2014  04:59:00      -70.610      -35.575       -0.148       60.281       41.119       24.337     3633.797     1690.767      592.306        0.608        0.296       79.065       24.941        0.100      343.455       19.579      861.209
09/16/2014  05:00:00        6.234      -40.270       10.791       31.182       46.826       25.887      972.307     2192.673      670.123        0.281        0.192       40.750       23.262        0.326      343.583       19.798      861.252
09/16/2014  05:01:00       12.485       38.523       50.643       25.748       55.259       37.074      662.959     3053.526     1374.456        0.465        0.255       40.495       39.231        0.939      343.380       19.451      861.259
09/16/2014  05:02:00       48.024       76.987       75.583       47.631       42.167       36.568     2268.721     1778.036     1337.188        0.966        0.269       90.738       26.611        0.086      343.173       19.099      861.233
09/16/2014  05:03:00       -0.526       16.114       18.006       22.604       17.575       19.762      510.962      308.894      390.553        0.090        0.061       16.122        9.812        0.370      343.041       18.873      861.241
09/16/2014  05:04:00      -59.010       26.429       -7.298       23.462       10.627        9.111      550.473      112.929       83.007        0.249        0.037       64.658        5.211        0.006      343.091       18.961      861.261
09/16/2014  05:05:00      -56.289       38.384       -3.415       28.575       22.738       15.532      816.506      517.022      241.247        0.311        0.079       68.131       12.678        0.035      343.072       18.926      861.281
09/16/2014  05:06:00       -1.462       18.659        5.429       19.766       15.027       12.590      390.712      225.807      158.506        0.058        0.039       18.717        9.467        0.256      343.126       19.017      861.275
09/16/2014  05:07:00       11.317      -25.648       -3.783       20.601       41.683       12.955      424.408     1737.484      167.828        0.156        0.116       28.034       15.882        0.321      343.285       19.289      861.270
09/16/2014  05:08:00      -41.687      -38.834      -10.370       34.609       25.155        8.512     1197.756      632.785       72.462        0.263        0.095       56.973        8.093        0.020      343.284       19.287      861.268
09/16/2014  05:09:00     -106.987       -7.398      -15.592       16.044       14.758       10.315      257.423      217.798      106.403        0.616        0.029      107.243        3.751        0.001      343.306       19.326      861.262
09/16/2014  05:10:00     -181.027       37.035      -24.322       27.045       20.069       14.675      731.441      402.753      215.360        1.804        0.067      184.777        9.028        0.002      343.069       18.920      861.263
09/16/2014  05:11:00     -212.880       25.785      -28.967       55.621       43.315       33.544     3093.671     1876.164     1125.220        2.646        0.305      214.436       27.506        0.016      342.998       18.796      861.237
09/16/2014  05:12:00     -161.546      -15.009      -15.845       35.722       37.586       27.265     1276.076     1412.727      743.381        1.500        0.172      162.242       18.826        0.013      342.825       18.507      861.224
09/16/2014  05:13:00      -84.878      -48.399       -1.981       77.110       31.307       27.990     5945.925      980.115      783.415        0.863        0.385       97.707       36.710        0.141      342.918       18.663      861.251
09/16/2014  05:14:00       35.447      -11.891       -6.469       27.667       38.367       18.149      765.479     1472.045      329.382        0.200        0.128       37.388       13.976        0.140      343.040       18.871      861.302
09/16/2014  05:15:00        9.454      -42.202        1.087       28.061       52.945       19.719      787.425     2803.207      388.847        0.292        0.199       43.248       12.883        0.089      343.107       18.985      861.361
09/16/2014  05:16:00       68.927      -52.891       -2.651       45.462       36.019       27.663     2066.824     1297.386      765.231        0.584        0.206       86.881       24.250        0.078      343.164       19.082      861.383
09/16/2014  05:17:00       24.281       -7.437       19.510       39.806       30.221       21.212     1584.492      913.321      449.954        0.199        0.147       25.394       22.595        0.792      343.072       18.927      861.358
09/16/2014  05:18:00       12.776        8.483        8.735       21.979       10.889       19.849      483.059      118.578      393.982        0.065        0.050       15.336       10.219        0.444      343.205       19.153      861.277
09/16/2014  05:19:00       21.315       60.851       -9.642       19.932       21.121       12.538      397.301      446.106      157.206        0.263        0.050       64.476        8.072        0.016      343.429       19.536      861.215
09/16/2014  05:20:00      -10.250       82.953      -15.993       14.088       27.676       10.688      198.466      765.951      114.228        0.416        0.054       83.584       13.547        0.026      343.252       19.232      861.204
09/16/2014  05:21:00      -17.201      -32.160       -5.273       17.055       56.578       13.583      290.886     3201.120      184.503        0.252        0.184       36.471        4.884        0.018      343.184       19.117      861.241
09/16/2014  05:22:00      -20.116      -85.790      -11.066       40.280       64.085       25.936     1622.459     4106.924      672.690        0.714        0.320       88.117       11.234        0.016      343.119       19.006      861.288
09/16/2014  05:23:00      -53.380      -83.540       -0.265       58.837       66.148       40.766     3461.753     4375.497     1661.851        0.966        0.475       99.138       29.051        0.086      343.176       19.102      861.325
09/16/2014  05:24:00     -155.803      -86.133       -3.789       66.237       46.390       39.767     4387.312     2152.052     1581.415        1.991        0.406      178.026       31.710        0.032      343.116       19.000      861.353
09/16/2014  05:25:00     -179.565     -141.074       -7.231       63.843       61.706       37.697     4075.880     3807.578     1421.087        3.075        0.465      228.354       32.346        0.020      343.237       19.203      861.390
09/16/2014  05:26:00     -230.654      -94.265      -18.508       74.045       62.888       41.050     5482.729     3954.946     1685.082        3.677        0.556      249.173       38.178        0.023      343.234       19.197      861.394
09/16/2014  05:27:00     -194.262       45.619      -22.808       55.359       35.521       24.331     3064.578     1261.755      591.980        2.263        0.246      199.546       16.135        0.007      343.181       19.109      861.321
09/16/2014  05:28:00     -125.542       84.034      -13.186       54.491       46.269       37.646     2969.318     2140.783     1417.194        1.476        0.326      151.071       31.058        0.042      343.336       19.375      861.244
09/16/2014  05:29:00     -101.744       64.540      -11.334       55.861       37.847       31.045     3120.440     1432.422      963.798        1.008        0.276      120.487       25.193        0.044      343.572       19.777      861.218
09/16/2014  05:30:00      -61.954       14.381       -1.972       51.531       36.989       22.708     2655.432     1368.192      515.654        0.429        0.227       63.601       18.098        0.081      343.724       20.038      861.230
09/16/2014  05:31:00        6.042      -75.196       -0.485       31.844       74.047       52.596     1014.037     5482.926     2766.328        0.748        0.463       75.438       53.247        0.498      343.385       19.459      861.257
09/16/2014  05:32:00        7.274      -72.664        1.505       33.837       35.256       32.085     1144.926     1242.967     1029.457        0.438        0.171       73.027       26.168        0.128      343.129       19.023      861.285
09/16/2014  05:33:00      -11.297      -33.487      -15.821       31.816       39.475       17.944     1012.242     1558.288      322.001        0.220        0.145       35.341       20.510        0.337      343.165       19.085      861.289
09/16/2014  05:34:00      -61.919       -5.927       -9.438       21.029       21.208       14.615      442.207      449.787      213.589        0.253        0.055       62.202        5.102        0.007      343.053       18.896      861.290
09/16/2014  05:35:00      -97.874      -44.292       -3.617       24.354       23.497       12.310      593.130      552.127      151.543        0.643        0.065      107.430        7.361        0.005      343.023       18.842      861.314
09/16/2014  05:36:00     -134.791      -17.167      -10.800       33.209       25.832       17.518     1102.867      667.278      306.895        1.033        0.104      135.880       19.874        0.021      342.999       18.802      861.323
09/16/2014  05:37:00     -108.427      -10.994       -7.189       41.450       19.092       12.257     1718.101      364.522      150.240        0.708        0.112      108.983       16.793        0.024      342.956       18.727      861.331
09/16/2014  05:38:00      -19.116      -35.338       -3.025       17.793       14.543       11.653      316.595      211.487      135.783        0.114        0.033       40.177        5.027        0.016      342.927       18.680      861.344
09/16/2014  05:39:00       -8.819      -24.936        5.314       14.047       19.791        8.674      197.314      391.689       75.233        0.070        0.033       26.449        6.804        0.066      342.977       18.764      861.369
09/16/2014  05:40:00      -57.252      -40.174       -7.217       26.048       16.198        8.969      678.512      262.379       80.449        0.298        0.051       69.941        4.047        0.003      343.070       18.922      861.391
09/16/2014  05:41:00      -50.276      -24.412       -2.287       31.444       18.664       14.087      988.745      348.363      198.437        0.233        0.077       55.890       13.394        0.057      342.957       18.731      861.394
09/16/2014  05:42:00      -53.117      -20.997       -0.808       19.227       15.118       11.469      369.664      228.544      131.530        0.200        0.036       57.117       11.930        0.044      342.873       18.588      861.384
09/16/2014  05:43:00      -31.124      -26.541       -1.134       25.322       16.694       12.482      641.228      278.683      155.809        0.137        0.054       40.904       14.237        0.121      342.883       18.606      861.383
09/16/2014  05:44:00       -7.393      -11.561        4.458       13.145       14.061       10.552      172.784      197.710      111.349        0.034        0.024       13.723        8.348        0.370      342.832       18.518      861.394
09/16/2014  05:45:00       24.985        8.618       -0.663       27.114       15.585       10.901      735.166      242.906      118.823        0.090        0.055       26.429        9.231        0.122      342.847       18.542      861.403
09/16/2014  05:46:00       23.892       20.406        7.800       31.871       15.895       17.820     1015.771      252.639      317.561        0.132        0.079       31.420       12.202        0.151      342.720       18.328      861.423
09/16/2014  05:47:00      -14.882      -35.897       12.650       25.963       45.134       21.892      674.083     2037.051      479.274        0.243        0.160       38.860       24.372        0.393      342.757       18.389      861.464
09/16/2014  05:48:00      -13.359      -18.313       -9.673       20.511       21.411       10.000      420.706      458.444       99.996        0.079        0.049       22.668        9.884        0.190      342.839       18.530      861.493
09/16/2014  05:49:00        9.951        8.317       -6.824       10.860        7.023        7.800      117.932       49.329       60.834        0.022        0.011       12.969        5.242        0.163      342.818       18.493      861.496
09/16/2014  05:50:00       -3.765       18.215       -1.194       16.949        6.544        8.454      287.257       42.830       71.462        0.037        0.020       18.600        8.672        0.217      342.850       18.548      861.474
09/16/2014  05:51:00      -59.138       17.225      -10.391       13.164        7.422        5.511      173.300       55.080       30.376        0.208        0.013       61.595        3.564        0.003      342.816       18.490      861.444
09/16/2014  05:52:00      -31.622       24.069       -7.499       16.706       10.933        8.846      279.102      119.525       78.245        0.106        0.024       39.740        7.361        0.034      342.720       18.325      861.436
09/16/2014  05:53:00       13.120       32.823        5.788       16.221       13.277       10.089      263.109      176.282      101.779        0.091        0.027       35.348        4.006        0.013      342.728       18.340      861.439
09/16/2014  05:54:00       63.813       34.270        0.041       18.344       11.486       13.091      336.501      131.923      171.377        0.294        0.032       72.433        6.183        0.007      342.829       18.509      861.452
09/16/2014  05:55:00       30.574       16.223       16.238       24.313       13.889       14.870      591.103      192.900      221.103        0.123        0.050       34.611       15.811        0.209      342.659       18.223      861.450
09/16/2014  05:56:00       36.526       25.018       21.157       15.861       12.257       12.949      251.572      150.241      167.683        0.149        0.028       44.273        6.120        0.019      342.609       18.138      861.437
09/16/2014  05:57:00        6.872       20.239       10.269        7.879       11.550        5.315       62.084      133.402       28.246        0.039        0.011       21.374        5.405        0.064      342.872       18.585      861.421
09/16/2014  05:58:00      -57.170       33.134       -9.653       33.618       13.078       11.470     1130.181      171.023      131.572        0.295        0.072       66.078       15.328        0.054      342.766       18.407      861.433
09/16/2014  05:59:00      -92.538        0.106      -11.898       35.795       30.507       17.591     1281.265      930.662      309.429        0.561        0.126       92.538       17.219        0.035      342.402       17.786      861.464
09/16/2014  06:00:00      -82.903      -33.494       -1.388       44.496       38.398       24.589     1979.870     1474.384      604.636        0.603        0.203       89.414       18.903        0.045      342.393       17.772      861.480
09/16/2014  06:01:00      -21.887      -26.405        5.619       48.589       24.905       16.187     2360.860      620.267      262.032        0.222        0.162       34.297       11.387        0.110      342.413       17.805      861.505
09/16/2014  06:02:00        5.082      -19.069       13.380       19.769       14.310       14.138      390.802      204.770      199.895        0.068        0.040       19.735       12.694        0.414      342.434       17.841      861.535
09/16/2014  06:03:00      -53.821      -37.725       -1.547       30.337       18.508       12.661      920.309      342.561      160.300        0.287        0.071       65.726       14.817        0.051      342.618       18.153      861.535
09/16/2014  06:04:00      -30.400      -15.991       -4.744       27.659       11.975       11.466      765.000      143.404      131.464        0.112        0.052       34.349       12.592        0.134      342.641       18.195      861.517
09/16/2014  06:05:00      -14.102       24.209       -4.109       10.171       10.610        6.613      103.450      112.573       43.736        0.053        0.013       28.017        3.280        0.014      342.613       18.144      861.494
09/16/2014  06:06:00       -8.830       24.006       -1.999       15.721        9.962       10.122      247.153       99.233      102.462        0.055        0.022       25.578        7.517        0.086      342.607       18.134      861.471
09/16/2014  06:07:00      -70.818       42.919      -13.093       25.720       30.092       16.237      661.520      905.499      263.646        0.443        0.092       82.809       12.028        0.021      342.920       18.667      861.469
09/16/2014  06:08:00      -48.391       13.987       -9.356       24.858       33.589       15.033      617.906     1128.188      226.005        0.230        0.099       50.372       11.600        0.053      342.999       18.802      861.473
09/16/2014  06:09:00      -66.565      -33.339       -7.975       30.606       20.619       13.271      936.718      425.134      176.131        0.357        0.077       74.448       12.108        0.026      342.420       17.817      861.481
09/16/2014  06:10:00      -15.903      -52.554       -9.289       23.836       23.920       12.601      568.150      572.172      158.786        0.220        0.065       54.907       10.773        0.038      342.331       17.666      861.514
09/16/2014  06:11:00       -8.314      -77.219       -1.767       30.731       28.652       28.572      944.424      820.929      816.379        0.431        0.129       77.666       18.954        0.060      342.404       17.791      861.576
09/16/2014  06:12:00      -97.844     -102.950       -3.650       35.838       31.548       21.428     1284.346      995.304      459.166        1.146        0.137      142.029       21.251        0.022      342.443       17.858      861.608
09/16/2014  06:13:00      -95.219      -60.644      -13.990       25.712       20.240        8.305      661.088      409.661       68.971        0.704        0.057      112.891        7.651        0.005      342.537       18.016      861.596
09/16/2014  06:14:00      -48.222      -12.700       -4.526       18.142       14.178       10.628      329.130      201.015      112.947        0.158        0.032       49.867        4.781        0.009      342.678       18.256      861.549
09/16/2014  06:15:00       -2.910       16.351        3.236       28.643       18.083       13.956      820.431      327.011      194.769        0.081        0.067       16.608       13.299        0.641      342.667       18.236      861.530
09/16/2014  06:16:00      -42.187       36.431       -8.602       16.840       11.774       14.149      283.597      138.622      200.199        0.190        0.031       55.740        9.161        0.027      342.620       18.158      861.557
09/16/2014  06:17:00      -37.562      -18.257       -1.603       32.953       22.202       16.574     1085.932      492.920      274.697        0.180        0.093       41.765       18.184        0.190      342.557       18.051      861.585
09/16/2014  06:18:00        5.394      -27.312        8.665       30.488       27.252       23.584      929.507      742.665      556.220        0.154        0.111       27.839       21.937        0.621      342.381       17.749      861.614
09/16/2014  06:19:00      -92.282      -92.798       -6.548       60.414       46.967       23.573     3649.838     2205.915      555.694        1.179        0.321      130.872       26.377        0.041      342.208       17.456      861.641
09/16/2014  06:20:00     -135.844      -84.674      -13.916       47.975       33.429       25.917     2301.593     1117.468      671.707        1.495        0.205      160.073       18.562        0.013      342.195       17.435      861.655
09/16/2014  06:21:00     -155.816      -59.806       -9.234       37.000       42.218       21.263     1368.972     1782.338      452.126        1.577        0.180      166.899       17.710        0.011      342.176       17.401      861.644
09/16/2014  06:22:00     -108.087      -21.851       -8.657       45.005       24.924       25.305     2025.467      621.220      640.347        0.776        0.164      110.273       26.134        0.056      342.287       17.591      861.620
09/16/2014  06:23:00      -29.520       15.701       -3.708       49.093       30.058       22.638     2410.101      903.503      512.460        0.248        0.191       33.436       23.686        0.502      342.405       17.791      861.591
09/16/2014  06:24:00      -66.193       19.102       -6.007       32.031       46.802       19.729     1026.009     2190.450      389.225        0.419        0.180       68.895       13.615        0.039      342.455       17.878      861.575
09/16/2014  06:25:00       13.927       -7.057       -7.691       18.112       13.218       11.678      328.038      174.711      136.374        0.047        0.032       15.614        7.831        0.252      342.314       17.636      861.564
09/16/2014  06:26:00       11.770        4.494       10.891       13.511       24.449       12.052      182.556      597.770      145.259        0.060        0.046       12.599        6.817        0.293      342.325       17.657      861.568
09/16/2014  06:27:00        9.467      -35.591       -2.082       20.322       28.470       12.127      412.992      810.540      147.057        0.137        0.069       36.829        5.602        0.023      342.411       17.801      861.591
09/16/2014  06:28:00       10.825      -60.816      -10.622       15.260       12.565       11.550      232.878      157.885      133.413        0.223        0.026       61.772        8.232        0.018      342.301       17.615      861.602
09/16/2014  06:29:00      -16.534      -34.136       -7.445       36.703       10.063       12.814     1347.124      101.270      164.188        0.155        0.081       37.929       18.375        0.235      342.271       17.563      861.600
09/16/2014  06:30:00      -95.512      -47.297       -7.531       19.418       14.978       14.685      377.076      224.349      215.661        0.612        0.041      106.581        9.329        0.008      342.195       17.434      861.598
09/16/2014  06:31:00     -116.901      -43.892      -16.577       23.881       14.309        9.834      570.305      204.759       96.708        0.837        0.044      124.869        9.760        0.006      342.173       17.394      861.614
09/16/2014  06:32:00     -133.400      -65.522       -7.909       24.177       30.484       15.726      584.518      929.276      247.301        1.196        0.088      148.623       12.138        0.007      342.114       17.297      861.628
09/16/2014  06:33:00     -186.615      -53.593       -3.176       43.819       41.952       23.862     1920.134     1759.936      569.394        2.098        0.212      194.159       17.626        0.008      342.011       17.120      861.663
09/16/2014  06:34:00      -86.222      -52.698        1.105       76.123       51.248       37.429     5794.643     2626.340     1400.903        1.002        0.491      101.051       29.524        0.085      341.948       17.014      861.713
09/16/2014  06:35:00     -126.487      -85.712       -5.212       67.248       52.059       34.814     4522.315     2710.137     1212.019        1.591        0.422      152.793       38.858        0.065      341.911       16.950      861.716
09/16/2014  06:36:00     -122.925      -67.940       -8.515       43.336       40.659       19.362     1877.968     1653.153      374.906        1.185        0.195      140.451       20.977        0.022      341.944       17.010      861.677
09/16/2014  06:37:00      -53.004      -22.624       -2.448       36.726       16.016       14.711     1348.794      256.499      216.406        0.257        0.091       57.630       17.695        0.094      342.113       17.296      861.653
09/16/2014  06:38:00        8.116       -9.515        0.925        7.302        9.479       11.369       53.322       89.852      129.245        0.021        0.014       12.506        4.663        0.139      342.065       17.214      861.653
09/16/2014  06:39:00      -28.024      -30.665       -7.663       28.204       14.337       13.035      795.440      205.545      169.912        0.148        0.059       41.541        9.322        0.050      342.138       17.337      861.668
09/16/2014  06:40:00     -104.236      -67.908       -7.843       27.269       17.149       15.226      743.594      294.072      231.837        0.840        0.063      124.406        5.898        0.002      341.993       17.091      861.682
09/16/2014  06:41:00     -139.905      -61.482      -17.205       12.239       12.804       10.548      149.788      163.940      111.251        1.204        0.021      152.818        5.469        0.001      341.889       16.913      861.694
09/16/2014  06:42:00     -131.759      -53.901      -16.368       18.716       19.423       15.908      350.283      377.268      253.067        1.076        0.049      142.358       13.808        0.009      341.876       16.893      861.699
09/16/2014  06:43:00     -125.863      -42.693      -15.293       29.947       24.022       14.302      896.805      577.041      204.548        0.979        0.084      132.907       14.010        0.011      341.844       16.840      861.677
09/16/2014  06:44:00      -73.948      -18.179       -3.053       45.828       30.812       21.649     2100.171      949.384      468.658        0.466        0.176       76.149       23.395        0.094      341.969       17.050      861.667
09/16/2014  06:45:00     -157.459      -46.268      -14.001       35.555       21.623       21.296     1264.144      467.545      453.514        1.466        0.109      164.116       20.749        0.016      341.831       16.817      861.665
09/16/2014  06:46:00     -120.639      -47.988      -11.620       50.304       20.638       18.502     2530.480      425.941      342.336        1.014        0.165      129.833       23.527        0.033      341.772       16.718      861.667
09/16/2014  06:47:00      -83.457      -30.087       -5.344       58.705       27.380       22.099     3446.295      749.649      488.377        0.629        0.234       88.715       25.139        0.080      341.857       16.862      861.680
09/16/2014  06:48:00     -132.267      -31.034      -16.052       31.947       21.716       16.109     1020.630      471.606      259.510        1.023        0.088      135.859       15.100        0.012      341.902       16.936      861.700
09/16/2014  06:49:00      -31.728      -43.097       -3.224       35.185       20.436       10.624     1238.016      417.645      112.860        0.232        0.088       53.517       10.600        0.039      341.887       16.911      861.698
09/16/2014  06:50:00        7.539      -14.196       -0.647       24.786       27.994       14.080      614.327      783.638      198.240        0.093        0.080       16.074        5.577        0.120      341.996       17.096      861.696
09/16/2014  06:51:00        7.131       19.405       17.928       20.426       14.906       10.657      417.225      222.193      113.578        0.075        0.038       20.674        8.974        0.188      342.053       17.193      861.694
09/16/2014  06:52:00      -10.980        1.381        3.484        7.456        8.010        7.799       55.585       64.163       60.819        0.016        0.009       11.066        5.674        0.263      342.021       17.140      861.699
09/16/2014  06:53:00       -4.018       14.481        1.865       14.173       14.496        7.178      200.878      210.124       51.521        0.035        0.023       15.028        9.040        0.362      342.129       17.324      861.696
09/16/2014  06:54:00       14.854       26.973        3.087       11.114       10.176       12.148      123.510      103.555      147.575        0.067        0.019       30.793        5.324        0.030      342.224       17.485      861.684
09/16/2014  06:55:00       -0.990       40.173       -9.823        6.134        9.340        7.547       37.625       87.244       56.962        0.095        0.009       40.185        5.520        0.019      342.188       17.423      861.660
09/16/2014  06:56:00      -20.899       23.024      -11.887       12.012       20.850        5.591      144.299      434.723       31.263        0.086        0.031       31.094        3.143        0.010      342.175       17.402      861.664
09/16/2014  06:57:00      -63.761      -40.067       -8.735       28.645       23.367       19.871      820.541      546.013      394.844        0.375        0.088       75.305       11.964        0.025      341.963       17.041      861.700
09/16/2014  06:58:00      -21.827      -32.472       11.018       37.531       27.273       22.232     1408.553      743.819      494.241        0.215        0.132       39.126       19.536        0.249      341.940       17.002      861.757
09/16/2014  06:59:00      -32.606      -36.046        4.592       39.852       26.753       21.521     1588.176      715.721      463.140        0.257        0.138       48.605       21.596        0.197      342.021       17.140      861.782
09/16/2014  07:00:00      -79.881      -44.249       -7.250       25.479       15.869       12.066      649.161      251.827      145.596        0.472        0.052       91.318       12.192        0.018      342.115       17.299      861.742
09/16/2014  07:01:00      -77.656      -23.548      -11.105       24.089       23.452       12.803      580.271      549.975      163.905        0.400        0.065       81.148       15.051        0.034      342.199       17.441      861.702
09/16/2014  07:02:00      -35.074      -22.896       -4.888       22.729       21.966       12.979      516.601      482.505      168.448        0.147        0.058       41.886       15.192        0.132      342.208       17.457      861.726
09/16/2014  07:03:00      -54.085      -43.386       -4.900       28.664       16.384       12.476      821.612      268.423      155.645        0.304        0.062       69.336       12.862        0.034      342.160       17.377      861.767
09/16/2014  07:04:00      -94.219      -59.209       -2.193       21.645       21.428       17.097      468.513      459.178      292.315        0.680        0.061      111.279       13.896        0.016      342.099       17.271      861.785
09/16/2014  07:05:00      -85.286      -28.767       -7.275       19.448       12.918       12.855      378.230      166.877      165.264        0.443        0.036       90.007        7.532        0.007      342.112       17.294      861.773
09/16/2014  07:06:00      -56.954      -45.862      -11.462       14.251        9.164       13.300      203.081       83.971      176.896        0.297        0.023       73.124        8.145        0.012      342.278       17.576      861.737
09/16/2014  07:07:00      -28.896      -21.849        6.033       17.271       20.857       12.162      298.301      435.027      147.915        0.111        0.044       36.227        7.523        0.043      342.290       17.596      861.706
09/16/2014  07:08:00      -29.384       32.089       -7.565       13.608       15.511       11.578      185.168      240.594      134.056        0.125        0.028       43.510        6.486        0.022      342.651       18.209      861.684
09/16/2014  07:09:00        5.433       19.125        6.757       10.901       11.737       11.758      118.822      137.755      138.248        0.042        0.020       19.881        5.686        0.082      342.531       18.006      861.685
09/16/2014  07:10:00      -27.620       12.031       -4.956       18.930       17.249        8.677      358.337      297.523       75.288        0.083        0.037       30.127        6.228        0.043      342.485       17.927      861.705
09/16/2014  07:11:00      -84.091      -46.703      -13.465       15.174       15.452        9.945      230.248      238.756       98.907        0.500        0.028       96.190        4.505        0.002      342.042       17.174      861.719
09/16/2014  07:12:00      -82.110      -53.555       -7.558       38.240       21.258       16.839     1462.297      451.905      283.555        0.593        0.110       98.032       11.627        0.014      341.941       17.004      861.762
09/16/2014  07:13:00     -132.639      -61.170       -6.578       32.103       22.536       19.670     1030.613      507.864      386.898        1.165        0.096      146.065       16.449        0.013      341.877       16.892      861.791
09/16/2014  07:14:00     -136.666      -48.880      -10.430       32.700       23.106       21.817     1069.284      533.908      476.000        1.163        0.104      145.145       18.564        0.016      341.943       17.007      861.799
09/16/2014  07:15:00     -135.187      -32.766      -11.215       18.678       20.126       15.686      348.860      405.038      246.046        1.024        0.050      139.101        3.194        0.001      342.065       17.214      861.805
09/16/2014  07:16:00     -133.453      -69.930       -4.818       32.610       31.338       13.236     1063.399      982.064      175.185        1.247        0.111      150.664       10.751        0.005      342.109       17.290      861.810
09/16/2014  07:17:00     -117.355      -59.707      -11.469       34.632       26.212       21.593     1199.372      687.074      466.244        0.991        0.118      131.670       18.118        0.019      342.070       17.222      861.815
09/16/2014  07:18:00      -91.331      -42.405       -4.883       19.616       20.485       12.484      384.782      419.617      155.851        0.556        0.048      100.695        8.988        0.008      342.083       17.242      861.820
09/16/2014  07:19:00      -72.787      -39.321      -11.357       33.054       18.594       14.117     1092.582      345.737      199.298        0.431        0.082       82.729       14.863        0.032      342.251       17.530      861.820
09/16/2014  07:20:00      -43.486      -22.376       -5.151       14.509       15.358       10.463      210.519      235.876      109.477        0.149        0.028       48.906        8.256        0.028      342.200       17.443      861.796
09/16/2014  07:21:00       -4.323      -19.347        3.438       19.080       11.665       10.940      364.046      136.083      119.678        0.051        0.031       19.824        8.698        0.193      342.294       17.602      861.769
09/16/2014  07:22:00       -3.024      -30.480        1.335       20.792       13.291       10.782      432.318      176.647      116.262        0.083        0.036       30.629        8.330        0.074      342.418       17.814      861.786
09/16/2014  07:23:00      -79.548      -53.586       -9.320       26.317       20.661       11.912      692.591      426.879      141.907        0.527        0.063       95.914        8.044        0.007      342.369       17.729      861.799
09/16/2014  07:24:00     -108.673      -36.648      -13.845       12.252       15.265       12.117      150.109      233.031      146.821        0.694        0.026      114.686        8.348        0.005      342.342       17.683      861.793
09/16/2014  07:25:00     -108.847      -35.447      -14.104       17.158       22.158       16.566      294.385      490.981      274.428        0.718        0.053      114.473        5.942        0.003      342.367       17.726      861.785
09/16/2014  07:26:00     -128.107      -27.836      -16.035       14.914       12.336        9.680      222.416      152.168       93.704        0.896        0.023      131.097        6.074        0.002      342.301       17.614      861.775
09/16/2014  07:27:00     -127.260      -33.629      -20.349       18.584       14.934       12.196      345.358      223.011      148.748        0.923        0.036      131.629       10.302        0.006      342.338       17.676      861.771
09/16/2014  07:28:00     -111.915      -43.146      -13.820       15.002       15.880       11.720      225.059      252.182      137.368        0.760        0.031      119.944        4.623        0.001      342.374       17.739      861.779
09/16/2014  07:29:00      -90.326      -32.526       -9.914       19.947       12.461       15.888      397.900      155.285      252.417        0.506        0.040       96.004       12.143        0.016      342.352       17.701      861.776
09/16/2014  07:30:00      -83.601      -21.254       -8.852       25.632       17.256       15.153      656.983      297.757      229.606        0.435        0.059       86.261       11.635        0.018      342.503       17.958      861.770
09/16/2014  07:31:00      -70.330      -22.520       -6.631       25.419       23.037       20.149      646.125      530.681      405.970        0.354        0.079       73.847       13.949        0.036      342.583       18.094      861.770
09/16/2014  07:32:00      -72.925      -27.546      -11.161       34.930       22.289       13.763     1220.125      496.816      189.415        0.405        0.095       77.954       12.061        0.024      342.533       18.011      861.782
09/16/2014  07:33:00     -105.148      -18.368       -9.571       28.173       24.078       18.532      793.738      579.746      343.418        0.660        0.086      106.740       12.513        0.014      342.701       18.296      861.792
09/16/2014  07:34:00      -77.911      -32.646      -11.859       17.181       19.700       14.555      295.203      388.073      211.857        0.409        0.045       84.474       13.954        0.027      342.581       18.092      861.803
09/16/2014  07:35:00      -98.486      -59.029       -5.657       19.879       17.138       10.851      395.160      293.722      117.750        0.701        0.040      114.821        8.779        0.006      342.558       18.051      861.812
09/16/2014  07:36:00     -100.729      -59.010       -4.513       25.153       19.915       12.402      632.696      396.589      153.817        0.742        0.059      116.742        6.551        0.003      342.564       18.063      861.825
09/16/2014  07:37:00      -57.147      -50.117        3.226       30.996       28.188       17.113      960.782      794.584      292.847        0.392        0.102       76.010       16.526        0.047      342.672       18.246      861.785
09/16/2014  07:38:00      -48.373      -22.846       -8.707       32.809       27.885       14.771     1076.439      777.599      218.179        0.250        0.104       53.497       13.946        0.068      342.831       18.515      861.739
09/16/2014  07:39:00      -25.417        2.203      -10.750       18.172       22.028       14.987      330.230      485.233      224.613        0.090        0.052       25.512        6.750        0.070      343.081       18.941      861.708
09/16/2014  07:40:00      -88.348      -33.437       -1.588       28.275       27.133       14.247      799.503      736.225      202.965        0.533        0.087       94.463        9.757        0.011      342.919       18.666      861.732
09/16/2014  07:41:00      -68.745      -36.106        3.994       31.783       34.383       21.488     1010.166     1182.223      461.748        0.435        0.133       77.650       16.467        0.045      342.903       18.638      861.748
09/16/2014  07:42:00      -96.113      -25.983       -7.399       36.769       34.823       15.825     1351.944     1212.627      250.443        0.639        0.141       99.564       15.188        0.023      342.952       18.722      861.765
09/16/2014  07:43:00      -97.476      -19.447       -0.334       30.999       29.151       19.044      960.946      849.755      362.680        0.603        0.109       99.397       20.004        0.041      343.011       18.822      861.767
09/16/2014  07:44:00     -100.955      -27.224       -5.877       37.493       24.945       19.527     1405.709      622.276      381.312        0.669        0.120      104.561       19.914        0.036      343.040       18.874      861.756
09/16/2014  07:45:00      -84.347      -15.791       -1.863       48.805       27.998       23.754     2381.947      783.882      564.265        0.555        0.187       85.813       27.516        0.103      343.260       19.246      861.762
09/16/2014  07:46:00      -81.422       -2.259       -0.247       46.423       35.330       24.679     2155.062     1248.186      609.054        0.532        0.201       81.453       24.395        0.090      343.369       19.432      861.751
09/16/2014  07:47:00      -14.055      -12.057       14.787       48.831       26.657       25.045     2384.501      710.612      627.265        0.214        0.186       18.518       23.894        1.665      343.430       19.536      861.757
09/16/2014  07:48:00       25.427       16.188       -8.624       18.905       18.241       15.486      357.416      332.726      239.827        0.096        0.046       30.143       12.979        0.185      343.464       19.594      861.757
09/16/2014  07:49:00        1.730        1.909       23.925       11.647       22.200       18.629      135.644      492.855      347.042        0.078        0.049        2.576       11.163       18.776      343.706       20.006      861.788
09/16/2014  07:50:00       -4.158      -57.536       22.950       27.998       39.376       21.077      783.894     1550.480      444.232        0.332        0.139       57.686       14.447        0.063      343.652       19.914      861.802
09/16/2014  07:51:00        8.926        6.401       40.407       26.562       41.194       26.302      705.522     1696.978      691.805        0.242        0.155       10.984       24.186        4.849      343.807       20.178      861.793
09/16/2014  07:52:00       15.767       34.413       40.182       23.020       22.825       20.539      529.922      521.001      421.835        0.226        0.074       37.853       19.913        0.277      343.746       20.076      861.765
09/16/2014  07:53:00        5.813        9.700       -4.710       14.891       11.549       12.935      221.733      133.390      167.314        0.034        0.026       11.309        9.209        0.663      343.621       19.862      861.757
09/16/2014  07:54:00       21.073       15.313       -1.259       11.448        8.958        9.229      131.053       80.253       85.166        0.049        0.015       26.049        5.018        0.037      343.552       19.744      861.772
09/16/2014  07:55:00       19.980       24.997        2.866       16.406       16.955       13.984      269.170      287.483      195.544        0.089        0.038       32.001       10.152        0.101      343.752       20.086      861.782
09/16/2014  07:56:00       31.641       42.313        8.562       23.052       18.713       25.677      531.387      350.169      659.305        0.220        0.077       52.835       19.616        0.138      343.658       19.926      861.806
09/16/2014  07:57:00        6.218      -51.739       19.890       19.011       38.666       23.280      361.427     1495.063      541.978        0.275        0.120       52.111       22.085        0.180      343.854       20.259      861.815
09/16/2014  07:58:00        8.027      -55.284        0.712       22.832       38.692       26.963      521.284     1497.040      726.991        0.293        0.137       55.864       20.215        0.131      343.827       20.213      861.804
09/16/2014  07:59:00      -26.564      -12.882        1.891       31.871       22.572       23.199     1015.753      509.476      538.183        0.147        0.103       29.523       23.839        0.652      343.827       20.213      861.800
09/16/2014  08:00:00      -60.988      -31.539        2.685       20.021       14.612       10.842      400.850      213.520      117.545        0.273        0.037       68.661        8.981        0.017      343.494       19.646      861.798
09/16/2014  08:01:00      -41.526      -15.227       -5.413        8.934       10.559        5.189       79.823      111.500       26.928        0.110        0.011       44.229        4.541        0.011      343.605       19.835      861.800
09/16/2014  08:02:00       -0.700       -1.197       10.214        7.992        6.227       12.709       63.877       38.771      161.516        0.019        0.013        1.387        4.934       12.652      344.331       21.074      861.791
09/16/2014  08:03:00       14.260       19.726        7.555        9.752       10.478        8.376       95.098      109.785       70.162        0.046        0.014       24.341        6.246        0.066      343.903       20.344      861.762
09/16/2014  08:04:00        3.135       18.058        8.342       13.784       12.902       10.412      190.003      166.459      108.404        0.044        0.023       18.328        6.820        0.138      344.090       20.662      861.738
09/16/2014  08:05:00       -6.557       35.656       -3.182       13.489       16.219       14.578      181.955      263.050      212.532        0.099        0.033       36.253       11.630        0.103      344.021       20.544      861.717
09/16/2014  08:06:00        4.275       -0.892        3.725       15.369       12.247        9.777      236.207      149.979       95.581        0.026        0.024        4.367        7.424        2.890      344.141       20.750      861.718
09/16/2014  08:07:00       -8.876       -4.461        8.126        8.309        8.909       10.632       69.040       79.377      113.036        0.021        0.013        9.934        8.943        0.811      344.430       21.245      861.739
09/16/2014  08:08:00      -16.125      -16.964       -4.347       12.489       12.521        8.789      155.980      156.776       77.247        0.048        0.020       23.405        8.843        0.143      343.944       20.413      861.769
09/16/2014  08:09:00        5.102       -4.374        4.762        9.453        8.672        8.317       89.352       75.196       69.171        0.015        0.012        6.720        3.887        0.334      344.372       21.145      861.789
09/16/2014  08:10:00       -6.042       -4.494       10.963       10.114       15.006       12.013      102.301      225.185      144.308        0.032        0.024        7.530        7.416        0.970      344.529       21.413      861.790
09/16/2014  08:11:00      -25.118      -22.950        8.423       13.793       23.918       12.523      190.250      572.072      156.828        0.107        0.046       34.023       12.894        0.144      344.309       21.035      861.784
09/16/2014  08:12:00      -82.354      -56.753       -1.725       40.539       28.282       15.232     1643.431      799.852      232.013        0.634        0.134      100.016       16.979        0.029      343.876       20.298      861.770
09/16/2014  08:13:00      -69.310      -78.104        0.645       43.279       27.448       25.690     1873.093      753.412      659.986        0.709        0.164      104.423       20.576        0.039      343.789       20.148      861.757
09/16/2014  08:14:00     -120.510      -96.395      -13.564       48.522       48.676       27.219     2354.396     2369.379      740.872        1.473        0.273      154.320       25.597        0.028      343.674       19.949      861.757
09/16/2014  08:15:00      -93.382      -89.780       -6.517       25.421       19.750       16.040      646.203      390.053      257.282        0.906        0.065      129.540       10.536        0.007      343.722       20.034      861.771
09/16/2014  08:16:00      -92.869      -69.079        2.155       35.724       23.538       21.573     1276.211      554.015      465.398        0.785        0.115      115.744       13.901        0.014      343.811       20.188      861.766
09/16/2014  08:17:00      -33.936      -32.456        1.122       24.832       14.807       12.674      616.626      219.260      160.620        0.160        0.050       46.958       11.930        0.065      343.971       20.460      861.765
09/16/2014  08:18:00        0.508      -41.831       -5.442        8.912       10.099        7.952       79.419      101.996       63.234        0.101        0.012       41.834        4.935        0.014      343.971       20.462      861.780
09/16/2014  08:19:00      -11.184       -0.220       -7.822       15.656       19.553       10.720      245.111      382.301      114.928        0.046        0.037       11.187        7.577        0.459      344.349       21.105      861.775
09/16/2014  08:20:00       -7.985       18.781       21.301       26.237       29.757       21.718      688.360      885.480      471.668        0.146        0.102       20.408       22.167        1.180      344.554       21.456      861.764
09/16/2014  08:21:00       51.269       20.641       19.593       40.138       22.266       26.169     1611.036      495.771      684.799        0.311        0.140       55.268       21.255        0.148      344.601       21.536      861.743
09/16/2014  08:22:00       62.577       46.411       -2.496       34.168       29.340       22.063     1167.439      860.821      486.767        0.430        0.126       77.909       20.034        0.066      344.329       21.071      861.729
09/16/2014  08:23:00       33.862       64.453        2.575       30.865       32.919       26.593      952.655     1083.682      707.163        0.402        0.137       72.807       21.731        0.089      344.469       21.310      861.737
09/16/2014  08:24:00       51.600       28.542        6.418       15.942       14.695       17.635      254.150      215.944      310.982        0.215        0.039       58.968        8.689        0.022      344.290       21.006      861.763
09/16/2014  08:25:00       36.504       25.646        7.884       12.139       14.056       17.296      147.352      197.567      299.150        0.135        0.032       44.612        7.739        0.030      344.169       20.797      861.798
09/16/2014  08:26:00       45.020       42.906        7.049       16.191       20.063       17.459      262.151      402.534      304.823        0.244        0.048       62.191       11.511        0.034      344.333       21.077      861.803
09/16/2014  08:27:00       41.728       39.216       10.908       22.364       23.608       23.215      500.131      557.325      538.953        0.250        0.080       57.264       14.089        0.061      344.564       21.474      861.786
09/16/2014  08:28:00       40.871       40.488        6.036       23.711       30.069       29.895      562.203      904.169      893.708        0.285        0.118       57.531       23.534        0.167      344.595       21.526      861.772
09/16/2014  08:29:00       13.490       30.346        8.239       23.194       26.399       24.029      537.973      696.919      577.391        0.149        0.091       33.209       18.649        0.315      344.800       21.877      861.752
09/16/2014  08:30:00        3.087        3.789       16.227       15.298       13.331       17.369      234.039      177.725      301.670        0.050        0.036        4.888       11.576        5.609      345.059       22.319      861.741
09/16/2014  08:31:00       -8.133       31.832        8.869       18.505       26.171       18.564      342.442      684.902      344.633        0.126        0.069       32.854       14.041        0.183      344.835       21.937      861.728
09/16/2014  08:32:00      -16.012       57.734       10.694       21.152       28.941       22.151      447.394      837.603      490.688        0.274        0.089       59.914       19.775        0.109      344.998       22.214      861.709
09/16/2014  08:33:00       -3.157       68.781       -2.008       18.040       25.237       20.644      325.446      636.922      426.176        0.307        0.069       68.853       14.450        0.044      344.775       21.834      861.713
09/16/2014  08:34:00        8.453       39.314        5.437       18.953       21.174       20.809      359.212      448.345      433.009        0.144        0.062       40.213       15.908        0.157      344.974       22.174      861.711
09/16/2014  08:35:00       31.841       41.716       -4.536       19.348       24.739       20.657      374.362      612.026      426.703        0.209        0.071       52.479       16.518        0.099      344.780       21.843      861.727
09/16/2014  08:36:00       43.942       31.892       13.972       18.040       12.950       18.638      325.452      167.710      347.380        0.199        0.042       54.295        8.820        0.026      344.734       21.764      861.748
09/16/2014  08:37:00        3.663       20.504        0.080       29.994       14.140       15.660      899.643      199.946      245.231        0.089        0.067       20.829       15.149        0.529      344.746       21.783      861.753
09/16/2014  08:38:00      -12.611        2.012       25.260       13.732       24.770       16.620      188.569      613.563      276.230        0.094        0.054       12.770       16.617        1.693      345.082       22.358      861.750
09/16/2014  08:39:00       48.524       74.414       67.440       44.013       32.468       27.983     1937.138     1054.183      783.062        0.811        0.189       88.837       23.441        0.070      344.990       22.202      861.747
09/16/2014  08:40:00      111.423       73.250       23.886       32.153       26.552       35.203     1033.833      705.024     1239.220        1.066        0.149      133.344       13.099        0.010      344.703       21.708      861.752
09/16/2014  08:41:00       51.881       41.125        0.221       32.690       36.392       26.482     1068.657     1324.383      701.283        0.374        0.155       66.203       16.730        0.064      344.935       22.107      861.759
09/16/2014  08:42:00       28.745       15.298       29.603       33.448       25.351       24.536     1118.799      642.656      602.019        0.215        0.118       32.562       13.153        0.163      345.439       22.970      861.764
09/16/2014  08:43:00       19.124       24.828       18.354       23.807       22.336       18.422      566.780      498.915      339.373        0.136        0.070       31.339       19.251        0.377      345.533       23.131      861.769
09/16/2014  08:44:00       55.676       37.264        2.644       19.970       19.180       18.558      398.812      367.886      344.392        0.280        0.056       66.996        8.944        0.018      344.892       22.033      861.779
09/16/2014  08:45:00       52.501       32.097        8.430       24.914       18.734       15.994      620.697      350.958      255.821        0.254        0.061       61.535        8.372        0.019      345.084       22.362      861.782
09/16/2014  08:46:00       67.681       46.026        6.814       31.600       25.047       21.557      998.538      627.362      464.702        0.442        0.105       81.848       14.902        0.033      345.019       22.252      861.787
09/16/2014  08:47:00       85.370       80.715       20.513       27.762       32.373       29.272      770.749     1048.016      856.870        0.845        0.134      117.486       12.736        0.012      344.847       21.956      861.775
09/16/2014  08:48:00       52.138       66.239       37.413       44.257       32.153       40.256     1958.702     1033.825     1620.556        0.656        0.231       84.297       20.517        0.059      344.962       22.154      861.765
09/16/2014  08:49:00       80.288      102.935       70.514       42.555       32.887       39.475     1810.925     1081.559     1558.236        1.323        0.223      130.544       27.508        0.044      344.953       22.137      861.752
09/16/2014  08:50:00       16.483       65.014       69.307       33.295       36.971       20.119     1108.575     1366.848      404.774        0.609        0.144       67.071       20.341        0.092      345.036       22.279      861.761
09/16/2014  08:51:00       56.284       42.492       37.517       39.270       21.962       23.032     1542.110      482.323      530.486        0.447        0.128       70.523       21.672        0.094      345.000       22.218      861.764
09/16/2014  08:52:00       94.886       49.003        5.607       32.297       35.969       30.799     1043.066     1293.774      948.609        0.736        0.164      106.793       14.608        0.019      344.885       22.021      861.765
09/16/2014  08:53:00       73.105       53.537       -2.735       22.762       23.633       22.363      518.107      558.538      500.095        0.490        0.079       90.612       11.537        0.016      344.868       21.993      861.764
09/16/2014  08:54:00      100.082       71.351        0.822       17.234       22.543       20.866      297.018      508.168      435.374        0.817        0.062      122.913        8.221        0.004      344.842       21.947      861.763
09/16/2014  08:55:00      112.322       73.852       -1.670       20.623       36.741       22.248      425.309     1349.907      494.960        1.017        0.114      134.426       12.682        0.009      344.812       21.897      861.753
09/16/2014  08:56:00      110.166       72.238       14.167       20.867       21.102       26.305      435.420      445.276      691.937        0.956        0.079      131.738       15.405        0.014      344.855       21.971      861.750
09/16/2014  08:57:00       75.469       40.233        5.956       30.022       29.326       21.091      901.335      859.997      444.849        0.478        0.110       85.524       16.327        0.036      345.091       22.374      861.746
09/16/2014  08:58:00       78.588       56.740        1.475       28.335       24.301       22.473      802.871      590.563      505.040        0.565        0.095       96.930       12.151        0.016      345.140       22.457      861.737
09/16/2014  08:59:00       31.505       52.887        1.258       26.055       24.302       22.335      678.871      590.607      498.869        0.278        0.088       61.560       14.503        0.056      345.412       22.924      861.741
09/16/2014  09:00:00       34.887       34.371       -1.383       20.669       26.580       23.828      427.207      706.521      567.767        0.205        0.085       48.974       17.950        0.134      345.500       23.075      861.762
09/16/2014  09:01:00        5.241        0.546       -1.892       13.377       21.464       18.405      178.949      460.720      338.730        0.050        0.049        5.270       11.984        5.172      345.666       23.360      861.762
09/16/2014  09:02:00       14.730       36.477        5.363       22.241       28.539       19.930      494.680      814.484      397.190        0.164        0.085       39.339       15.109        0.148      345.840       23.657      861.767
09/16/2014  09:03:00       23.601       35.539       33.678       39.978       30.548       33.203     1598.242      933.177     1102.467        0.329        0.182       42.661       17.806        0.174      345.962       23.867      861.773
09/16/2014  09:04:00       -8.082       40.765       71.126       15.516       31.735       13.802      240.732     1007.102      190.484        0.411        0.072       41.559       15.362        0.137      346.141       24.176      861.773
09/16/2014  09:05:00       10.017       -5.133       44.238       28.808       48.048       31.846      829.899     2308.586     1014.141        0.312        0.208       11.255       16.558        2.164      346.038       23.998      861.774
09/16/2014  09:06:00       24.745      -36.011       32.061       54.322       74.617       39.953     2950.868     5567.682     1596.267        0.652        0.506       43.694       26.290        0.362      345.847       23.671      861.774
09/16/2014  09:07:00       36.401        4.279       68.814       41.461       75.820       33.414     1718.995     5748.682     1116.495        0.733        0.429       36.652       35.135        0.919      345.882       23.730      861.760
09/16/2014  09:08:00       24.524       63.946       96.959       68.446       79.421       37.040     4684.787     6307.754     1371.987        1.323        0.618       68.487       39.266        0.329      345.888       23.741      861.760
09/16/2014  09:09:00      149.258       92.195       61.159       54.781       54.633       49.801     3000.955     2984.780     2480.179        2.149        0.423      175.437       39.453        0.051      345.337       22.794      861.769
09/16/2014  09:10:00       95.997      100.549       64.185       67.049       48.325       57.602     4495.563     2335.271     3317.971        1.680        0.507      139.017       45.958        0.109      345.400       22.903      861.766
09/16/2014  09:11:00      106.716       62.618       15.907       30.914       29.253       32.594      955.650      855.758     1062.398        0.922        0.144      123.731       14.814        0.014      345.456       22.999      861.754
09/16/2014  09:12:00      113.305       66.874       11.590       50.341       31.262       26.759     2534.208      977.332      716.032        1.084        0.211      131.568        9.136        0.005      345.565       23.187      861.732
09/16/2014  09:13:00       84.208       41.937       17.380       66.453       43.230       24.875     4416.048     1868.821      618.748        0.803        0.345       94.073       20.753        0.049      345.687       23.396      861.701
09/16/2014  09:14:00       90.681       54.963        7.501       33.848       27.153       29.819     1145.664      737.274      889.148        0.704        0.139      106.037       22.473        0.045      345.719       23.451      861.690
09/16/2014  09:15:00       48.564       56.731        9.656       38.291       37.924       28.495     1466.224     1438.254      811.953        0.469        0.186       74.678       21.113        0.080      345.911       23.781      861.693
09/16/2014  09:16:00       16.246       57.623       10.054       26.345       33.091       25.477      694.059     1095.038      649.058        0.306        0.122       59.870       20.796        0.121      346.218       24.307      861.694
09/16/2014  09:17:00       54.838       53.176        3.628       44.112       26.218       30.985     1945.880      687.392      960.097        0.472        0.180       76.387       23.235        0.093      346.039       24.000      861.699
09/16/2014  09:18:00       83.259       70.450       -2.779       27.572       22.832       18.892      760.194      521.305      356.915        0.677        0.082      109.065       11.679        0.011      345.890       23.744      861.696
09/16/2014  09:19:00       54.840       64.608        5.123       26.956       16.658       19.618      726.621      277.480      384.857        0.430        0.069       84.744        8.880        0.011      345.867       23.705      861.707
09/16/2014  09:20:00        6.372      -21.144       26.367       25.419       35.753       23.171      646.103     1278.271      536.902        0.182        0.123       22.083       14.441        0.428      346.457       24.719      861.717
09/16/2014  09:21:00       52.669       52.586       68.763       38.671       27.787       21.808     1495.455      772.104      475.602        0.650        0.137       74.427       10.468        0.020      346.112       24.125      861.717
09/16/2014  09:22:00        6.169       49.352       83.304       38.171       54.525       34.950     1457.026     2973.026     1221.471        0.753        0.283       49.736       32.885        0.437      346.387       24.599      861.717
09/16/2014  09:23:00       36.587       87.815       87.565       41.951       41.576       27.032     1759.886     1728.590      730.741        1.047        0.211       95.132       20.116        0.045      346.190       24.260      861.707
09/16/2014  09:24:00       97.439       94.643       64.639       49.035       29.029       35.594     2404.404      842.707     1266.944        1.357        0.226      135.837       30.329        0.050      345.895       23.753      861.708
09/16/2014  09:25:00       70.110       67.439       59.833       26.995       17.901       20.671      728.731      320.434      427.276        0.726        0.074       97.280       11.695        0.014      346.090       24.086      861.704
09/16/2014  09:26:00        2.830       50.729       77.104       17.510       28.957       23.635      306.607      838.480      558.627        0.511        0.085       50.808       16.718        0.108      346.502       24.796      861.724
09/16/2014  09:27:00       72.032       53.010       43.314       45.223       30.963       36.680     2045.080      958.702     1345.419        0.711        0.217       89.435       33.212        0.138      346.273       24.401      861.735
09/16/2014  09:28:00       88.396       48.596       29.554       27.142       26.053       28.978      736.692      678.777      839.713        0.665        0.113      100.874       16.544        0.027      346.216       24.305      861.739
09/16/2014  09:29:00       45.367       48.301        8.116       37.702       18.758       23.756     1421.427      351.863      564.350        0.340        0.117       66.266        8.132        0.015      346.379       24.585      861.736
09/16/2014  09:30:00      -20.894       96.436       -1.259       22.583       29.474       24.641      510.009      868.703      607.179        0.586        0.099       98.674       15.765        0.026      346.431       24.673      861.728
09/16/2014  09:31:00       46.948       32.286       25.881       27.255       29.212       33.013      742.814      853.332     1089.883        0.330        0.134       56.979       23.789        0.174      346.488       24.773      861.721
09/16/2014  09:32:00       -8.615       30.109       10.887       21.587       19.226       27.371      465.985      369.626      749.170        0.134        0.079       31.317       13.861        0.196      346.620       24.997      861.701
09/16/2014  09:33:00       -3.797       40.430       -3.121       20.265       28.728       17.926      410.670      825.297      321.345        0.161        0.078       40.608       13.041        0.103      346.543       24.865      861.687
09/16/2014  09:34:00      -10.150       36.017       11.772       20.162       27.925       20.795      406.488      779.805      432.438        0.158        0.081       37.419       18.658        0.249      346.823       25.348      861.659
09/16/2014  09:35:00      -20.764       77.297        1.223       19.967       32.533       23.273      398.684     1058.410      541.644        0.420        0.100       80.037       20.641        0.067      346.814       25.335      861.654
09/16/2014  09:36:00      -25.022       53.175       10.108       25.378       40.221       26.816      644.019     1617.738      719.113        0.327        0.149       58.768       24.067        0.168      346.974       25.608      861.639
09/16/2014  09:37:00      -42.160       45.731        3.497       32.210       51.843       26.386     1037.467     2687.650      696.242        0.415        0.221       62.199       28.240        0.206      346.894       25.470      861.636
09/16/2014  09:38:00      -30.750       -2.599       -0.063       30.519       22.548       18.909      931.395      508.418      357.540        0.137        0.090       30.860       17.127        0.308      346.816       25.336      861.628
09/16/2014  09:39:00       -7.200      -22.298       13.301       24.846       21.519       19.547      617.331      463.063      382.096        0.109        0.073       23.432       14.688        0.393      346.969       25.600      861.633
09/16/2014  09:40:00      -20.612      -68.311      -13.991       16.667       19.686       15.361      277.786      387.519      235.948        0.309        0.045       71.353        6.715        0.009      346.699       25.134      861.640
09/16/2014  09:41:00      -18.567      -45.969       -5.190       26.945       26.481       20.710      726.038      701.220      428.913        0.217        0.093       49.577       17.608        0.126      346.804       25.315      861.641
09/16/2014  09:42:00      -28.377       -3.931        8.557       24.899       12.633       19.637      619.957      159.594      385.594        0.103        0.058       28.648       18.237        0.405      347.090       25.809      861.636
09/16/2014  09:43:00       -5.315        1.328       30.350       30.451       36.215       25.977      927.274     1311.559      674.826        0.193        0.146        5.479       23.767       18.820      347.368       26.287      861.614
09/16/2014  09:44:00       12.442      -29.486       24.615       29.256       47.014       30.203      855.913     2210.351      912.231        0.280        0.199       32.003       18.152        0.322      347.335       26.231      861.590
09/16/2014  09:45:00       74.750      -65.080       13.898       55.643       61.588       39.933     3096.181     3793.124     1594.653        0.925        0.424       99.111       44.822        0.205      347.240       26.067      861.575
09/16/2014  09:46:00       81.668      102.037       77.046       62.657       50.722       48.727     3925.881     2572.732     2374.339        1.594        0.444      130.695       41.090        0.099      346.937       25.543      861.557
09/16/2014  09:47:00      159.062      114.293       65.259       57.130       31.946       45.265     3263.836     1020.566     2048.889        2.448        0.317      195.866       22.304        0.013      346.729       25.183      861.551
09/16/2014  09:48:00       54.374       80.436       89.546       79.230       82.499       70.696     6277.332     6806.014     4997.939        1.776        0.904       97.090       64.994        0.448      346.947       25.559      861.540
09/16/2014  09:49:00       88.935       97.183       99.722       87.319       56.869       62.523     7624.681     3234.055     3909.080        2.103        0.738      131.734       55.213        0.176      346.827       25.352      861.532
09/16/2014  09:50:00      143.233      124.024        4.561       73.475       48.257       46.811     5398.559     2328.699     2191.251        2.292        0.496      189.467       15.950        0.007      346.528       24.839      861.541
09/16/2014  09:51:00       93.340       82.485        3.863       41.306       27.579       30.492     1706.186      760.578      929.761        0.946        0.170      124.564       11.556        0.009      346.698       25.134      861.546
09/16/2014  09:52:00       79.182       56.224       24.084       67.414       35.630       33.244     4544.601     1269.526     1105.181        0.846        0.346       97.113       32.507        0.112      346.981       25.620      861.546
09/16/2014  09:53:00       42.316       56.756       28.363       62.547       48.576       31.977     3912.081     2359.654     1022.504        0.655        0.365       70.795        9.107        0.017      347.185       25.971      861.535
09/16/2014  09:54:00        4.812       26.451       19.406       40.665       43.639       29.830     1653.658     1904.355      889.829        0.277        0.222       26.885       23.358        0.755      347.191       25.982      861.544
09/16/2014  09:55:00       27.814        2.107       23.417       48.861       23.893       24.858     2387.435      570.874      617.897        0.245        0.179       27.894       22.441        0.647      346.971       25.603      861.546
09/16/2014  09:56:00       73.541       50.560        8.628       35.278       38.430       30.639     1244.511     1476.861      938.765        0.585        0.183       89.244       23.453        0.069      346.982       25.622      861.545
09/16/2014  09:57:00       49.389       41.156        9.171       35.888       20.945       25.633     1287.950      438.699      657.059        0.330        0.119       64.289       12.656        0.039      347.051       25.741      861.529
09/16/2014  09:58:00       -1.582      136.508      -18.350       47.467       50.359       38.287     2253.090     2536.069     1465.893        1.261        0.313      136.518       29.729        0.047      347.027       25.701      861.514
09/16/2014  09:59:00      -46.725      148.469       -7.549       33.299       54.072       31.924     1108.814     2923.737     1019.138        1.467        0.253      155.648       17.009        0.012      347.042       25.725      861.502
09/16/2014  10:00:00       -0.200       43.255       12.798       44.284       35.707       33.718     1961.071     1274.975     1136.888        0.320        0.219       43.256       27.455        0.403      347.496       26.508      861.511
09/16/2014  10:01:00        8.077       38.826       13.693       31.523       33.595       36.367      993.731     1128.599     1322.546        0.260        0.172       39.657       24.745        0.389      347.330       26.222      861.523
09/16/2014  10:02:00       22.082       16.790        1.470       30.192       31.547       23.250      911.555      995.184      540.578        0.161        0.122       27.740        8.527        0.094      346.973       25.608      861.532
09/16/2014  10:03:00      -11.953       10.863       26.521       15.012       21.945       21.987      225.355      481.575      483.445        0.108        0.060       16.152       12.595        0.608      347.851       27.120      861.523
09/16/2014  10:04:00      -10.988       45.510       14.500       22.959       47.151       23.724      527.121     2223.214      562.809        0.286        0.166       46.818       24.255        0.268      347.787       27.010      861.537
09/16/2014  10:05:00       23.895       84.344       -8.965       33.217       42.740       37.214     1103.383     1826.737     1384.904        0.604        0.216       87.664       33.228        0.144      347.287       26.149      861.534
09/16/2014  10:06:00       81.218       58.207       21.411       34.123       35.077       25.456     1164.367     1230.372      647.996        0.674        0.152       99.922       14.710        0.022      347.094       25.814      861.523
09/16/2014  10:07:00       77.914       50.722       18.341       37.903       44.155       31.189     1436.651     1949.638      972.763        0.667        0.218       92.969       23.426        0.063      347.138       25.891      861.505
09/16/2014  10:08:00       68.050       56.863        7.157       29.175       27.040       24.125      851.197      731.182      582.002        0.504        0.108       88.680        7.224        0.007      347.063       25.763      861.504
09/16/2014  10:09:00       30.361       29.515       18.061       39.380       32.300       37.051     1550.809     1043.314     1372.798        0.304        0.198       42.342       30.565        0.521      347.589       26.669      861.503
09/16/2014  10:10:00       40.500       11.313       12.352       40.223       29.598       21.742     1617.915      876.029      472.728        0.244        0.148       42.050       20.066        0.228      347.441       26.412      861.506
09/16/2014  10:11:00      -29.763       15.082        9.767       27.773       19.906       21.141      771.333      396.252      446.923        0.141        0.081       33.366       19.782        0.352      347.598       26.683      861.470
09/16/2014  10:12:00      -26.006       76.352        0.171       30.595       38.548       27.800      936.052     1485.948      772.815        0.485        0.160       80.660       22.261        0.076      347.698       26.856      861.458
09/16/2014  10:13:00       -0.281       31.084       24.460       33.368       34.838       25.817     1113.403     1213.708      666.515        0.228        0.150       31.085       21.178        0.464      348.003       27.382      861.449
09/16/2014  10:14:00        1.415       25.206       44.532       32.581       32.361       27.383     1061.520     1047.239      749.841        0.274        0.143       25.246       20.563        0.663      347.906       27.215      861.451
09/16/2014  10:15:00       88.302       75.662       -5.329       67.366       43.683       38.418     4538.155     1908.174     1475.974        1.073        0.396      116.285       27.176        0.055      347.429       26.392      861.459
09/16/2014  10:16:00       49.950       65.246       53.765       85.584       38.068       39.716     7324.613     1449.183     1577.360        0.999        0.518       82.171       47.134        0.329      347.829       27.082      861.454
09/16/2014  10:17:00      103.941       46.411        0.697       54.035       44.343       37.553     2919.776     1966.287     1410.203        0.963        0.315      113.832       19.903        0.031      347.257       26.096      861.467
09/16/2014  10:18:00       37.867       59.518       18.016       36.593       35.980       37.164     1339.068     1294.594     1381.131        0.466        0.201       70.543       25.003        0.126      347.719       26.892      861.459
09/16/2014  10:19:00       -7.954      121.411        1.343       32.035       54.375       31.641     1026.269     2956.693     1001.138        0.989        0.249      121.672       23.740        0.038      347.442       26.414      861.475
09/16/2014  10:20:00        3.776      108.947        3.208       31.588       56.660       35.648      997.831     3210.355     1270.767        0.869        0.274      109.012       27.338        0.063      347.671       26.810      861.484
09/16/2014  10:21:00      -15.144       62.840       12.634       36.576       43.813       36.299     1337.809     1919.536     1317.588        0.446        0.229       64.639       28.534        0.195      347.875       27.162      861.484
09/16/2014  10:22:00       14.168       17.164       39.868       43.824       28.554       16.747     1920.571      815.358      280.477        0.255        0.151       22.256       16.240        0.532      348.328       27.943      861.482
09/16/2014  10:23:00       92.366       82.975       12.365       74.329       49.728       51.321     5524.761     2472.838     2633.845        1.310        0.532      124.163       30.501        0.060      347.236       26.058      861.461
09/16/2014  10:24:00       17.844       21.883       -3.958       30.618       36.423       23.246      937.447     1326.653      540.380        0.181        0.140       28.236       17.983        0.406      347.697       26.856      861.458
09/16/2014  10:25:00       10.667        7.850       18.975       27.198       18.532       20.922      739.751      343.443      437.747        0.103        0.076       13.244       12.345        0.869      348.001       27.381      861.460
09/16/2014  10:26:00      -47.708      -22.655       -0.288       29.570       23.019       14.059      874.391      529.881      197.669        0.220        0.080       52.814        8.320        0.025      347.399       26.341      861.457
09/16/2014  10:27:00     -154.225      -65.573      -16.634       82.855       87.808       34.993     6864.870     7710.214     1224.493        2.208        0.790      167.586       35.705        0.045      347.148       25.906      861.466
09/16/2014  10:28:00      -74.993      -42.708       -3.740      105.451       40.155       31.580    11119.846     1612.418      997.276        1.059        0.686       86.301       37.933        0.193      347.330       26.220      861.471
09/16/2014  10:29:00       25.115      -59.927       24.382       70.977      109.360       63.408     5037.674    11959.628     4020.606        1.291        1.051       64.977       78.081        1.444      347.904       27.211      861.468
09/16/2014  10:30:00       51.852       -9.926        4.110       42.602       51.132       48.360     1814.954     2614.485     2338.697        0.478        0.338       52.793       19.196        0.132      347.340       26.238      861.443
09/16/2014  10:31:00       18.520       85.057      -24.644       35.632       37.037       20.140     1269.632     1371.719      405.633        0.562        0.152       87.050       12.378        0.020      347.190       25.980      861.425
09/16/2014  10:32:00      -48.302       48.373       -6.126       48.739       29.970       23.201     2375.512      898.171      538.269        0.426        0.191       68.360       20.585        0.091      347.390       26.325      861.421
09/16/2014  10:33:00      -79.584       -9.947      -29.550       57.818       64.576       21.114     3342.966     4170.037      445.797        0.763        0.398       80.203       27.221        0.115      347.136       25.886      861.432
09/16/2014  10:34:00      -67.011      -15.828      -13.516       41.471       45.864       21.980     1719.812     2103.504      483.127        0.461        0.215       68.855        9.403        0.019      347.105       25.834      861.436
09/16/2014  10:35:00      -46.357      -51.686       -3.382       74.955       76.793       46.005     5618.199     5897.241     2116.462        0.923        0.682       69.429       22.844        0.108      347.566       26.627      861.426
09/16/2014  10:36:00      -54.449      -43.562       12.751       63.607       46.245       37.321     4045.894     2138.562     1392.835        0.630        0.379       69.731       19.660        0.079      347.523       26.554      861.426
09/16/2014  10:37:00      -64.671      -64.277       -2.517       73.981       69.647       48.254     5473.116     4850.746     2328.484        1.048        0.633       91.181       38.293        0.176      347.467       26.458      861.433
09/16/2014  10:38:00      -23.079     -205.394      -23.111       88.394       65.808       51.017     7813.441     4330.702     2602.733        2.900        0.737      206.687       30.954        0.022      347.344       26.242      861.437
09/16/2014  10:39:00      -35.558     -188.229      -14.539       58.036       52.450       39.481     3368.197     2750.980     1558.740        2.229        0.384      191.559       28.100        0.022      347.208       26.010      861.439
09/16/2014  10:40:00       28.690      -63.291       -4.367       64.387       98.701       53.354     4145.695     9741.949     2846.635        1.079        0.837       69.490       58.493        0.709      347.587       26.665      861.419
09/16/2014  10:41:00       29.241       17.177       38.964       48.596       48.921       37.351     2361.606     2393.294     1395.104        0.441        0.308       33.913       35.574        1.100      347.809       27.048      861.391
09/16/2014  10:42:00       51.076      -51.273       -4.834       23.230       29.583       29.655      539.635      875.159      879.434        0.378        0.115       72.372       21.271        0.086      347.494       26.503      861.396
09/16/2014  10:43:00      -11.845      -16.100        9.010       24.232       37.829       33.112      587.171     1430.996     1096.408        0.180        0.156       19.987       29.899        2.238      347.869       27.151      861.396
09/16/2014  10:44:00      -39.987      -17.149        9.362       29.334       27.835       30.003      860.470      774.770      900.151        0.226        0.127       43.509       24.595        0.320      347.801       27.034      861.404
09/16/2014  10:45:00      -18.194       -3.864       21.287       46.557       43.874       36.826     2167.508     1924.897     1356.164        0.312        0.272       18.600       42.113        5.127      347.845       27.111      861.416
09/16/2014  10:46:00      133.937       90.506       55.862       60.178       55.775       44.722     3621.449     3110.861     2000.058        1.899        0.437      161.649       13.389        0.007      347.394       26.330      861.398
09/16/2014  10:47:00     -139.263       -3.210        4.380       62.648      101.015       45.088     3924.747    10203.935     2032.945        1.779        0.808      139.300       17.533        0.016      347.556       26.609      861.335
09/16/2014  10:48:00     -122.853      -11.379      -12.747       84.818       94.418       35.620     7194.021     8914.815     1268.806        1.638        0.869      123.379       17.518        0.020      347.820       27.066      861.301
09/16/2014  10:49:00      -50.492      -33.095       15.147       75.045       65.524       35.607     5631.756     4293.432     1267.831        0.753        0.560       60.371       44.558        0.545      348.278       27.859      861.321
09/16/2014  10:50:00        5.653      -35.272        7.700       52.914       93.592       44.795     2799.841     8759.428     2006.609        0.745        0.678       35.723       29.912        0.701      347.897       27.200      861.341
09/16/2014  10:51:00      -35.955       82.237      -13.245       46.721       40.801       33.717     2182.898     1664.716     1136.833        0.661        0.249       89.754       26.600        0.088      347.928       27.253      861.326
09/16/2014  10:52:00      -66.082       73.963      -16.396       41.517       78.844       31.195     1723.661     6216.337      973.130        0.951        0.446       99.183       30.775        0.096      347.775       26.989      861.298
09/16/2014  10:53:00       -1.787        7.471       24.536       27.419       30.357       24.091      751.825      921.517      580.360        0.146        0.113        7.682       15.220        3.925      348.719       28.619      861.300
09/16/2014  10:54:00       45.794       44.037        5.701       39.104       29.213       29.557     1529.111      853.371      873.618        0.366        0.163       63.532       17.464        0.076      348.536       28.305      861.308
09/16/2014  10:55:00       12.692       14.674       30.895       23.514       47.345       24.825      552.905     2241.534      616.289        0.237        0.171       19.401       18.962        0.955      348.785       28.735      861.317
09/16/2014  10:56:00       18.109       48.394       84.383       82.550       56.133       58.963     6814.434     3150.925     3476.597        1.161        0.672       51.671       57.280        1.229      348.320       27.931      861.307
09/16/2014  10:57:00       67.272       68.362       71.604       68.967       54.942       57.621     4756.384     3018.589     3320.161        1.271        0.555       95.911       37.820        0.155      348.143       27.623      861.303
09/16/2014  10:58:00       47.481        5.042       39.843       62.001      107.630       60.125     3844.089    11584.185     3615.063        1.145        0.952       47.748       54.312        1.294      348.100       27.549      861.303
09/16/2014  10:59:00       73.654      -16.646       43.270       49.162       52.226       36.063     2416.889     2727.588     1300.517        0.701        0.322       75.512       26.469        0.123      348.151       27.640      861.292
09/16/2014  11:00:00       -2.861      -18.772        0.844       27.858       22.118       20.014      776.065      489.215      400.579        0.101        0.083       18.989       12.838        0.457      348.049       27.462      861.280
09/16/2014  11:01:00      -39.621      -23.643        3.129       51.618       70.312       31.505     2664.371     4943.811      992.573        0.537        0.430       46.139       21.907        0.225      348.164       27.660      861.261
09/16/2014  11:02:00      -64.172      -59.293        2.489       35.149       47.751       22.601     1235.443     2280.176      510.784        0.583        0.201       87.371       18.738        0.046      347.815       27.058      861.261
09/16/2014  11:03:00      -40.117      -69.932        0.966       38.336       56.885       26.147     1469.622     3235.935      683.654        0.594        0.269       80.622       19.148        0.056      347.962       27.311      861.275
09/16/2014  11:04:00        7.921      -41.514       24.670       34.236       51.399       25.619     1172.122     2641.838      656.311        0.343        0.224       42.263       24.284        0.330      348.178       27.684      861.286
09/16/2014  11:05:00      -49.708      -57.671        5.796       46.737       41.183       28.193     2184.362     1696.017      794.858        0.525        0.234       76.136       23.622        0.096      347.892       27.189      861.299
09/16/2014  11:06:00     -186.381     -154.368      -12.826       82.250       69.230       35.459     6765.004     4792.815     1257.324        3.577        0.641      242.007       34.982        0.021      347.599       26.681      861.294
09/16/2014  11:07:00     -161.452     -135.115      -12.292       53.907       37.982       25.037     2905.940     1442.631      626.829        2.472        0.249      210.529       14.773        0.005      347.552       26.602      861.297
09/16/2014  11:08:00      -40.757      -81.844        3.076       34.711       40.195       30.442     1204.843     1615.606      926.689        0.606        0.187       91.431       21.809        0.057      347.825       27.076      861.284
09/16/2014  11:09:00      -21.709      -18.267       45.591       50.490       45.288       39.212     2549.289     2050.970     1537.577        0.451        0.307       28.372       35.717        1.585      348.603       28.421      861.273
09/16/2014  11:10:00       -7.335      -84.769       11.517       66.591       79.176       45.901     4434.367     6268.805     2106.916        1.009        0.641       85.086       43.545        0.262      348.195       27.714      861.265
09/16/2014  11:11:00      -31.120      -76.020        8.966      108.396       94.978       47.650    11749.649     9020.872     2270.485        1.493        1.152       82.143       53.666        0.427      348.382       28.037      861.222
09/16/2014  11:12:00     -102.510     -107.269       18.828      147.366      102.468       65.046    21716.615    10499.718     4231.031        2.940        1.822      148.374       80.169        0.292      348.090       27.532      861.202
09/16/2014  11:13:00     -107.705      -99.239        2.520       53.113       47.463       33.511     2820.948     2252.763     1122.987        1.382        0.310      146.454       26.983        0.034      347.829       27.081      861.203
09/16/2014  11:14:00     -155.903     -159.948      -15.620       73.096      105.156       43.476     5343.025    11057.753     1890.134        3.421        0.915      223.359       47.593        0.045      347.791       27.012      861.205
09/16/2014  11:15:00      -81.216     -111.498       12.556       81.249       88.410       34.417     6601.383     7816.370     1184.553        1.739        0.780      137.942       34.525        0.063      347.947       27.285      861.210
09/16/2014  11:16:00     -106.673     -125.294       -0.078       68.314       79.677       37.412     4666.752     6348.406     1399.676        1.974        0.621      164.553       48.286        0.086      348.119       27.581      861.222
09/16/2014  11:17:00      -39.569     -146.115      -17.649       65.198       97.407       40.137     4250.833     9488.122     1610.949        1.929        0.767      151.378       12.102        0.006      347.789       27.012      861.230
09/16/2014  11:18:00      -23.834      -46.461        8.732       28.070       46.769       23.541      787.936     2187.375      554.184        0.317        0.176       52.218       10.643        0.042      348.300       27.895      861.185
09/16/2014  11:19:00      -70.414        9.426       -5.511       37.566       58.273       22.959     1411.221     3395.798      527.119        0.520        0.267       71.043       13.269        0.035      348.291       27.881      861.166
09/16/2014  11:20:00      -63.148        9.280        4.367       54.119       32.259       21.603     2928.860     1040.659      466.701        0.426        0.222       63.826       11.250        0.031      348.090       27.532      861.140
09/16/2014  11:21:00      -67.182      -35.481       -4.607       70.055       62.556       24.911     4907.652     3913.286      620.545        0.762        0.472       75.976       31.816        0.175      348.397       28.064      861.145
09/16/2014  11:22:00      -25.358     -113.102       -2.369       86.033       69.793       38.998     7401.624     4871.062     1520.851        1.361        0.690      115.910       36.695        0.100      348.264       27.833      861.133
09/16/2014  11:23:00       70.199     -131.166      -11.263       76.983       87.601       74.214     5926.405     7674.009     5507.767        2.068        0.955      148.769       58.680        0.156      348.411       28.086      861.134
09/16/2014  11:24:00      115.101      -69.468       39.453      114.979      156.640       80.857    13220.149    24536.112     6537.895        3.195        2.215      134.440      111.037        0.682      348.417       28.097      861.114
09/16/2014  11:25:00       57.766      -33.851       45.161       70.409       78.890       68.050     4957.461     6223.649     4630.868        1.116        0.791       66.954       71.000        1.125      348.359       27.998      861.094
09/16/2014  11:26:00       46.226       40.278       79.308       68.836       72.534       46.441     4738.400     5261.241     2156.729        1.110        0.608       61.312       55.004        0.805      348.449       28.152      861.068
09/16/2014  11:27:00        4.609      -34.597       24.330       58.793       66.737       40.115     3456.602     4453.822     1609.242        0.566        0.476       34.903       37.235        1.138      348.427       28.116      861.045
09/16/2014  11:28:00       50.268      -92.049       -2.126       38.119       56.109       36.383     1453.047     3148.173     1323.753        0.846        0.296      104.881       34.380        0.107      348.483       28.213      861.051
09/16/2014  11:29:00       61.279      -55.084       28.381       59.367       46.310       32.261     3524.456     2144.655     1040.775        0.715        0.335       82.398       25.972        0.099      348.555       28.336      861.037
09/16/2014  11:30:00      -56.534      -46.021       13.034       31.266       47.805       29.803      977.554     2285.349      888.190        0.482        0.208       72.898       16.968        0.054      348.638       28.480      861.045
09/16/2014  11:31:00      -15.806       -7.434        2.921       67.244       78.432       42.144     4521.745     6151.612     1776.130        0.638        0.622       17.467       31.834        3.322      348.480       28.205      861.051
09/16/2014  11:32:00      -27.889      -42.711        9.183       33.442       29.316       35.001     1118.377      859.437     1225.076        0.294        0.160       51.010       10.075        0.039      348.516       28.268      861.042
09/16/2014  11:33:00       -1.167      -67.087       -4.528       37.258       67.433       31.708     1388.189     4547.144     1005.397        0.573        0.347       67.097       23.629        0.124      348.587       28.392      861.040
09/16/2014  11:34:00       15.672     -171.489      -26.403       78.579       96.653       43.345     6174.644     9341.846     1878.778        2.387        0.870      172.203       40.562        0.055      348.279       27.857      861.021
09/16/2014  11:35:00      -86.510       39.625        6.402       63.218       42.580       25.699     3996.573     1813.019      660.443        0.778        0.324       95.153       19.779        0.043      348.132       27.607      860.987
09/16/2014  11:36:00      -63.749      -54.852        7.634       40.757       31.618       25.501     1661.169      999.667      650.283        0.522        0.166       84.099       23.626        0.079      348.397       28.064      860.969
09/16/2014  11:37:00      -24.252      -31.797       19.984       59.484       33.325       30.920     3538.311     1110.542      956.024        0.380        0.280       39.990       33.707        0.710      348.718       28.620      860.952
09/16/2014  11:38:00      -31.312      -42.734        5.974       69.021       52.751       36.330     4763.901     2782.712     1319.886        0.585        0.443       52.977       29.698        0.314      348.886       28.911      860.956
09/16/2014  11:39:00      -30.063      -28.103        5.153       63.143       48.633       29.838     3987.059     2365.204      890.316        0.448        0.362       41.153       25.388        0.381      348.736       28.650      860.973
09/16/2014  11:40:00      -54.445     -118.187       -8.274       53.933       83.952       41.297     2908.733     7047.957     1705.462        1.433        0.583      130.125       14.848        0.013      348.166       27.663      860.966
09/16/2014  11:41:00      -64.591       61.010       20.501       38.487       34.584       38.388     1481.272     1196.034     1473.656        0.623        0.208       88.850       32.829        0.137      348.408       28.083      860.934
09/16/2014  11:42:00      -23.103       22.188       19.631       56.553       25.485       34.857     3198.274      649.460     1215.015        0.324        0.253       32.032       31.231        0.951      348.825       28.804      860.910
09/16/2014  11:43:00        1.833      -13.791       20.373       52.047       43.729       29.144     2708.889     1912.193      849.366        0.304        0.274       13.912       26.674        3.676      348.832       28.818      860.906
09/16/2014  11:44:00       12.790      -76.800       18.683       69.151       91.054       48.623     4781.859     8290.849     2364.154        1.092        0.772       77.858       52.131        0.448      348.930       28.985      860.905
09/16/2014  11:45:00       45.063      -88.728       -4.718       51.099       67.936       40.945     2611.095     4615.368     1676.520        0.941        0.445       99.516       35.157        0.125      348.518       28.274      860.900
09/16/2014  11:46:00       89.032     -138.132      -24.070       73.912       95.439       66.223     5463.006     9108.523     4385.438        2.327        0.948      164.339       48.836        0.088      348.536       28.301      860.884
09/16/2014  11:47:00       -2.458      -60.392       29.926       55.064       84.083       56.105     3032.069     7069.980     3147.761        0.890        0.662       60.442       50.709        0.704      348.898       28.929      860.901
09/16/2014  11:48:00       44.146      -45.256       35.019       62.903       85.563       53.780     3956.758     7321.012     2892.267        0.969        0.709       63.222       46.661        0.545      348.635       28.474      860.896
09/16/2014  11:49:00       41.215       -9.070       28.568       52.710       55.247       45.616     2778.365     3052.187     2080.827        0.525        0.396       42.201       41.444        0.964      348.773       28.714      860.891
09/16/2014  11:50:00       -0.847      -11.316       42.280       36.864       72.599       37.517     1358.946     5270.605     1407.536        0.498        0.402       11.348       40.350       12.643      348.861       28.867      860.878
09/16/2014  11:51:00       60.439      -55.675       -3.058       56.186       49.782       23.138     3156.869     2478.217      535.357        0.646        0.309       82.174       18.246        0.049      348.375       28.027      860.853
09/16/2014  11:52:00       39.238       -8.325       13.923       40.375       70.116       41.227     1630.181     4916.188     1699.647        0.502        0.412       40.112       33.895        0.714      348.769       28.708      860.821
09/16/2014  11:53:00       81.532       89.518       55.917       57.091       36.213       36.723     3259.367     1311.412     1348.578        1.185        0.296      121.082       22.975        0.036      348.711       28.607      860.810
09/16/2014  11:54:00       19.900       39.983       60.105       49.574       53.024       32.100     2457.599     2811.570     1030.403        0.595        0.315       44.661       36.725        0.676      349.075       29.236      860.795
09/16/2014  11:55:00       16.027       65.649       14.585       48.766       30.762       31.716     2378.132      946.281     1005.900        0.455        0.217       67.578       26.146        0.150      348.704       28.596      860.798
09/16/2014  11:56:00     -128.041     -116.748       -3.643       69.256       89.403       37.883     4796.450     7992.861     1435.098        2.213        0.711      173.276       21.951        0.016      348.459       28.167      860.779
09/16/2014  11:57:00     -146.667      -88.073      -14.227       59.966       57.301       31.730     3595.902     3283.353     1006.821        1.868        0.394      171.079       24.147        0.020      348.197       27.716      860.766
09/16/2014  11:58:00      -76.643        6.531       -8.755       48.201       22.828       19.740     2323.347      521.103      389.671        0.461        0.162       76.921       23.883        0.096      348.229       27.773      860.757
09/16/2014  11:59:00        4.633       40.222       19.828       29.423       31.208       31.774      865.698      973.911     1009.617        0.244        0.142       40.488       20.200        0.249      349.095       29.273      860.728
09/16/2014  12:00:00       23.089       26.373       21.902       27.399       29.953       19.244      750.682      897.203      370.318        0.186        0.101       35.052       13.715        0.153      349.065       29.221      860.727
09/16/2014  12:01:00       34.983       21.424       22.946       40.794       42.633       28.584     1664.188     1817.574      817.043        0.325        0.215       41.022       15.117        0.136      349.011       29.127      860.733
09/16/2014  12:02:00       30.137      -75.578       -0.908       49.778       54.550       33.530     2477.817     2975.691     1124.233        0.660        0.329       81.365       17.027        0.044      348.800       28.761      860.711
09/16/2014  12:03:00        5.034      -36.658       10.420       38.541       49.511       38.460     1485.370     2451.312     1479.200        0.345        0.271       37.002       36.105        0.952      349.199       29.453      860.694
09/16/2014  12:04:00      -11.707       -7.481       55.293       54.771       78.514       45.394     2999.886     6164.448     2060.616        0.724        0.561       13.893       25.200        3.290      349.642       30.221      860.653
09/16/2014  12:05:00      -20.034      -47.841       54.720       73.386       74.686       51.194     5385.577     5577.978     2620.794        0.963        0.679       51.866       30.945        0.356      349.388       29.778      860.645
09/16/2014  12:06:00       21.808       43.352      109.460       56.770       92.530       58.886     3222.875     8561.869     3467.592        1.479        0.763       48.528       51.377        1.121      349.135       29.340      860.640
09/16/2014  12:07:00       24.579       31.372       81.561       63.667       68.658       48.938     4053.443     4713.968     2394.936        0.970        0.558       39.853       40.309        1.023      349.279       29.590      860.622
09/16/2014  12:08:00     -122.410      -83.219      -16.522       78.447      107.280       45.485     6153.957    11509.079     2068.912        2.095        0.987      148.019       36.852        0.062      348.498       28.238      860.629
09/16/2014  12:09:00      -81.992       18.121       10.217       51.109       26.301       26.003     2612.082      691.738      676.140        0.557        0.199       83.971       26.219        0.097      348.762       28.695      860.598
09/16/2014  12:10:00      -66.787     -192.658       -4.132       82.740       73.662       51.467     6845.850     5426.068     2648.807        2.825        0.746      203.906       35.945        0.031      348.699       28.582      860.618
09/16/2014  12:11:00     -223.358     -118.448      -13.831       81.561       82.193       45.604     6652.218     6755.609     2079.710        3.980        0.774      252.821       32.284        0.016      348.579       28.373      860.596
09/16/2014  12:12:00     -160.917     -160.655       -5.991       63.854      105.290       37.086     4077.353    11085.895     1375.405        3.414        0.827      227.386       27.993        0.015      348.568       28.354      860.572
09/16/2014  12:13:00     -112.589      -83.842        6.952       67.638       60.461       36.598     4574.954     3655.477     1339.424        1.466        0.478      140.377       36.637        0.068      348.660       28.518      860.553
09/16/2014  12:14:00      -49.399      -22.634        8.823       72.504       46.769       26.121     5256.837     2187.315      682.316        0.558        0.406       54.337       21.849        0.162      349.154       29.374      860.538
09/16/2014  12:15:00      140.732      -92.113       32.603      102.313      219.961      107.008    10467.923    48382.739    11450.792        4.981        3.515      168.197      141.872        0.711      348.979       29.068      860.527
09/16/2014  12:16:00       -8.189     -127.506       42.754       92.017      109.607       47.670     8467.052    12013.706     2272.427        2.045        1.138      127.769       50.981        0.159      348.910       28.950      860.529
09/16/2014  12:17:00     -160.025     -119.421       -2.431      113.796       78.357       59.003    12949.585     6139.822     3481.305        3.122        1.129      199.673       65.432        0.107      348.917       28.962      860.558
09/16/2014  12:18:00      -86.887     -119.824       -3.731       67.784       63.288       52.620     4594.621     4005.361     2768.822        1.664        0.568      148.011       38.966        0.069      348.801       28.762      860.570
09/16/2014  12:19:00      -28.891      -44.785      -12.158       66.943       39.328       37.262     4481.345     1546.690     1388.450        0.520        0.371       53.295       26.274        0.243      348.679       28.553      860.568
09/16/2014  12:20:00       26.458     -134.979      -14.369       65.923       69.555       37.124     4345.887     4837.893     1378.160        1.484        0.528      137.548       22.589        0.027      348.783       28.729      860.544
09/16/2014  12:21:00      -29.188     -102.520      -18.352       66.132       52.145       21.548     4373.395     2719.072      464.300        0.963        0.378      106.594       10.315        0.009      348.418       28.101      860.523
09/16/2014  12:22:00     -148.236      -47.651      -18.477       58.151       50.155       32.624     3381.520     2515.565     1064.336        1.577        0.348      155.707       28.405        0.033      348.674       28.541      860.490
09/16/2014  12:23:00      -90.806     -104.937      -13.919       83.668       40.508       39.145     7000.299     1640.914     1532.356        1.481        0.509      138.771       40.632        0.086      348.567       28.358      860.475
09/16/2014  12:24:00      -38.293     -202.572        2.578       87.759       98.568       46.086     7701.645     9715.562     2123.875        3.102        0.977      206.160       32.693        0.025      348.561       28.343      860.442
09/16/2014  12:25:00      -92.708      -51.581      -15.676      107.743      101.688       45.742    11608.573    10340.460     2092.291        1.777        1.202      106.091       44.954        0.180      348.634       28.471      860.441
09/16/2014  12:26:00      -21.049       46.033       -1.692       30.244       62.827       38.416      914.699     3947.275     1475.775        0.445        0.317       50.617       29.186        0.332      348.885       28.907      860.447
09/16/2014  12:27:00       19.909       47.026       23.071       34.621       39.591       34.821     1198.605     1567.452     1212.502        0.356        0.199       51.067       23.918        0.219      349.210       29.472      860.439
09/16/2014  12:28:00       29.873       36.153       25.813       29.312       24.774       22.047      859.196      613.772      486.075        0.241        0.098       46.898       15.489        0.109      349.237       29.518      860.405
09/16/2014  12:29:00       50.089       80.932        8.544       50.803       40.494       33.076     2580.919     1639.795     1094.021        0.722        0.266       95.178       30.871        0.105      349.239       29.522      860.350
09/16/2014  12:30:00       29.170       22.432       12.864       59.491       59.394       28.093     3539.162     3527.675      789.196        0.469        0.393       36.798       24.617        0.448      349.880       30.632      860.291
09/16/2014  12:31:00      -35.698       -3.550       -7.127       58.187       31.516       23.991     3385.688      993.275      575.588        0.315        0.248       35.874        3.016        0.007      349.632       30.204      860.272
09/16/2014  12:32:00       -2.731      -47.853      -12.657       29.761       35.281       23.537      885.715     1244.731      554.001        0.257        0.134       47.931       11.768        0.060      349.346       29.708      860.281
09/16/2014  12:33:00      -89.348       -4.357      -17.591       42.920       32.137       31.984     1842.121     1032.817     1022.980        0.610        0.195       89.454       28.925        0.105      349.162       29.388      860.243
09/16/2014  12:34:00      -15.096     -109.065       49.032       78.744      145.360       85.941     6200.685    21129.631     7385.799        2.461        1.736      110.105       82.211        0.557      349.487       29.951      860.232
09/16/2014  12:35:00     -145.730     -120.598       13.765      139.936      123.317       83.234    19582.106    15207.128     6927.926        3.884        2.086      189.158       63.919        0.114      349.513       29.993      860.150
09/16/2014  12:36:00     -120.428     -210.247       12.713      113.088      124.837       60.173    12788.928    15584.294     3620.774        4.542        1.600      242.295       57.560        0.056      349.188       29.429      860.321
09/16/2014  12:37:00     -134.941     -251.619       -9.597       89.465      150.202       44.023     8003.998    22560.618     1938.019        5.705        1.625      285.519       47.485        0.028      348.956       29.028      860.360
09/16/2014  12:38:00      -34.118     -185.899       16.600       71.075      106.820       43.734     5051.716    11410.594     1912.678        2.718        0.919      189.004       47.504        0.063      349.265       29.563      860.366
09/16/2014  12:39:00     -156.961     -216.338       -3.943      116.477      145.008       57.431    13566.941    21027.246     3298.337        5.467        1.895      267.281       59.730        0.050      349.283       29.593      860.348
09/16/2014  12:40:00     -302.231      -10.633      -19.167      105.250       85.743       45.924    11077.523     7351.807     2108.977        5.618        1.027      302.418       46.338        0.023      349.339       29.692      860.302
09/16/2014  12:41:00     -273.110      -66.902        2.366      114.068      107.601       58.581    13011.549    11577.946     3431.739        5.354        1.401      281.185       60.546        0.046      349.510       29.986      860.286
09/16/2014  12:42:00     -161.236     -131.089       -4.558      100.713      100.920       61.803    10143.198    10184.799     3819.670        3.367        1.207      207.801       54.607        0.069      349.522       30.010      860.300
09/16/2014  12:43:00      -37.368     -145.455        1.144       64.224       71.085       47.629     4124.713     5053.040     2268.540        1.700        0.572      150.178       37.675        0.063      349.227       29.498      860.309
09/16/2014  12:44:00       87.016      -72.712       41.656      116.484      137.156       70.471    13568.500    18811.884     4966.179        2.596        1.867      113.397       78.321        0.477      349.745       30.396      860.260
09/16/2014  12:45:00      -53.224      -11.741       24.465      112.346       70.463       56.290    12621.674     4965.054     3168.587        1.216        1.038       54.503       61.352        1.267      349.329       29.677      860.226
09/16/2014  12:46:00     -132.595      -84.750      -11.271       68.484       47.845       36.105     4690.118     2289.173     1303.572        1.659        0.414      157.366       37.306        0.056      349.229       29.503      860.212
09/16/2014  12:47:00     -189.608     -125.309        8.167      111.113      107.970       54.850    12346.107    11657.592     3008.565        3.936        1.351      227.274       58.550        0.066      349.421       29.833      860.238
09/16/2014  12:48:00     -207.342     -268.693       -5.431      141.790      166.852       67.807    20104.375    27839.539     4597.819        8.387        2.627      339.392       77.974        0.053      349.213       29.472      860.225
09/16/2014  12:49:00     -263.729     -314.452      -26.903      121.589      149.557       72.469    14783.953    22367.364     5251.691       10.577        2.120      410.406       57.915        0.020      349.145       29.356      860.255
09/16/2014  12:50:00     -199.769     -194.237      -11.555      120.550      136.682       61.909    14532.248    18681.905     3832.698        5.740        1.852      278.632       57.850        0.043      349.269       29.570      860.214
09/16/2014  12:51:00     -227.946     -204.997      -23.835      107.040      106.797       55.272    11457.470    11405.568     3054.967        6.023        1.296      306.567       54.816        0.032      349.239       29.518      860.201
09/16/2014  12:52:00     -289.670     -194.342       -0.984      199.974      128.634       71.122    39989.713    16546.769     5058.370        9.162        3.080      348.823       80.899        0.054      349.440       29.865      860.229
09/16/2014  12:53:00     -182.203     -182.174        9.076      131.383      127.271       59.207    17261.434    16197.949     3505.410        5.171        1.848      257.654       59.663        0.054      349.462       29.904      860.212
09/16/2014  12:54:00     -231.544      -77.556        3.035      137.461      106.676       61.838    18895.656    11379.752     3823.968        4.686        1.705      244.188       71.251        0.085      349.464       29.910      860.172
09/16/2014  12:55:00      -77.959     -234.850      -21.862      107.554      116.466       59.813    11567.757    13564.246     3577.557        4.520        1.435      247.451       28.939        0.014      349.621       30.179      860.196
09/16/2014  12:56:00      -17.375     -249.486      -25.428      133.127      168.903       71.252    17722.865    28528.173     5076.855        5.725        2.566      250.091       50.305        0.040      349.596       30.137      860.222
09/16/2014  12:57:00        3.472     -267.421      -29.182      141.418      152.812       92.275    19999.075    23351.419     8514.650        6.211        2.593      267.443       63.936        0.057      349.512       29.991      860.200
09/16/2014  12:58:00     -239.499     -189.558      -29.016      155.298      158.665       65.053    24117.443    25174.664     4231.895        7.382        2.676      305.438       54.171        0.031      349.476       29.929      860.203
09/16/2014  12:59:00     -339.758     -104.990      -26.990      178.483      119.171       71.810    31856.161    14201.796     5156.717        8.919        2.561      355.610       72.945        0.042      349.322       29.663      860.169
09/16/2014  13:00:00      -54.812     -201.708       18.223      118.872      121.690       63.732    14130.517    14808.428     4061.712        3.851        1.650      209.023       58.186        0.077      349.204       29.457      860.148
09/16/2014  13:01:00      -92.341     -154.313       18.320      103.622      136.053       52.828    10737.431    18510.474     2790.848        3.235        1.602      179.832       62.783        0.122      349.304       29.632      860.089
09/16/2014  13:02:00     -192.704     -178.633       10.831      140.313      123.398       62.260    19687.837    15226.982     3876.288        5.397        1.940      262.763       62.440        0.056      349.365       29.736      860.098
09/16/2014  13:03:00     -292.278      -84.258      -23.297      222.440      156.285       62.993    49479.569    24425.051     3968.171        8.546        3.894      304.181       76.364        0.063      349.360       29.727      860.019
09/16/2014  13:04:00      -20.654     -212.018        3.627      147.423      118.820       68.264    21733.475    14118.157     4660.018        4.294        2.026      213.022       65.673        0.095      349.594       30.133      860.007
09/16/2014  13:05:00     -247.081     -234.967        4.981      205.946      166.498       92.316    42413.613    27721.525     8522.228        9.745        3.933      340.967      100.208        0.086      349.548       30.054      860.032
09/16/2014  13:06:00     -212.147     -233.767       -1.686      255.326      159.310       73.836    65191.199    25379.645     5451.805        9.782        4.801      315.679       79.929        0.064      349.294       29.613      860.059
09/16/2014  13:07:00      -33.648     -119.342       20.497      124.193      156.002       83.787    15423.893    24336.712     7020.310        3.128        2.339      123.994       85.937        0.480      349.773       30.444      860.077
09/16/2014  13:08:00      -59.231     -283.717      -15.251      136.160      128.040       68.771    18539.482    16394.273     4729.415        6.194        1.983      289.833       49.324        0.029      349.608       30.156      860.115
09/16/2014  13:09:00      -46.657     -240.376      -15.765      201.480      146.318       92.770    40594.202    21408.834     8606.337        6.539        3.530      244.862       60.583        0.061      349.573       30.098      860.114
09/16/2014  13:10:00      -36.148     -187.509       -8.431      197.435      126.299       71.181    38980.581    15951.439     5066.718        4.826        3.000      190.962       65.866        0.119      349.546       30.051      860.089
09/16/2014  13:11:00      -83.546      -95.582        7.397      102.000       81.073       62.062    10404.022     6572.902     3851.645        1.850        1.041      126.948       58.248        0.211      349.828       30.542      860.087
09/16/2014  13:12:00        6.984     -203.544      -15.860      148.835      111.659       78.417    22151.816    12467.844     6149.279        4.124        2.038      203.664       50.951        0.063      349.533       30.027      860.099
09/16/2014  13:13:00      -25.783     -172.958       -0.778      107.886      113.878       63.585    11639.414    12968.282     4043.044        2.961        1.433      174.869       47.050        0.072      349.650       30.232      860.087
09/16/2014  13:14:00     -102.451     -230.084      -31.220      160.607      179.259       66.584    25794.643    32133.623     4433.389        6.337        3.118      251.863       40.741        0.026      349.604       30.152      860.068
09/16/2014  13:15:00       20.560     -204.403      -17.203      178.379      166.131       68.433    31819.178    27599.562     4683.074        5.329        3.205      205.435       74.054        0.130      349.715       30.344      860.043
09/16/2014  13:16:00     -136.285     -125.565        6.698      196.903      114.581       76.401    38770.802    13128.806     5837.083        4.605        2.887      185.311       64.723        0.122      349.648       30.226      860.049
09/16/2014  13:17:00        7.342     -176.916      -15.934      100.049      122.709       68.100    10009.825    15057.580     4637.670        3.065        1.485      177.068       72.536        0.168      349.575       30.101      860.019
09/16/2014  13:18:00      -57.482     -207.189       -2.916      100.621      144.814       72.591    10124.550    20971.059     5269.483        4.130        1.818      215.015       64.774        0.091      349.683       30.288      859.993
09/16/2014  13:19:00      -54.364     -134.130      -21.000       98.558      116.285       60.049     9713.697    13522.290     3605.825        2.411        1.342      144.729       39.352        0.074      349.725       30.363      859.966
09/16/2014  13:20:00     -222.417     -181.861       -0.854      212.900      141.696       75.737    45326.279    20077.742     5736.124        7.683        3.557      287.303       74.162        0.067      349.681       30.284      860.005
09/16/2014  13:21:00      -79.892     -223.824       10.699      201.387      219.400       89.269    40556.888    48136.207     7969.043        7.661        4.833      237.655       80.515        0.115      349.641       30.216      859.995
09/16/2014  13:22:00       -1.789     -334.734      -14.347      138.414      207.419       77.212    19158.389    43022.624     5961.659        9.019        3.407      334.739       19.307        0.003      349.429       29.848      859.983
09/16/2014  13:23:00      -63.445     -279.384       -6.921      175.779      174.158       87.414    30898.345    30331.153     7641.168        7.549        3.444      286.497       64.449        0.051      349.358       29.723      859.949
09/16/2014  13:24:00     -101.454     -235.077        9.954      116.167      159.898       55.958    13494.660    25567.453     3131.271        5.391        2.110      256.035       43.963        0.029      349.544       30.047      859.972
09/16/2014  13:25:00     -133.178     -138.338       23.490      143.573       98.874       68.368    20613.162     9776.074     4674.123        3.624        1.753      192.025       71.792        0.140      349.590       30.127      859.945
09/16/2014  13:26:00     -307.274     -196.336      -12.201      191.029      121.739       71.519    36491.991    14820.417     5114.988        9.476        2.821      364.644       78.985        0.047      349.743       30.391      859.925
09/16/2014  13:27:00     -301.294     -118.481      -10.797      180.638      147.498       74.302    32629.949    21755.577     5520.824        8.241        2.995      323.753       85.717        0.070      349.549       30.054      859.879
09/16/2014  13:28:00     -234.345     -292.193       -2.698      191.530      121.321       78.042    36683.789    14718.734     6090.514        9.889        2.875      374.558       73.003        0.038      349.725       30.360      859.877
09/16/2014  13:29:00     -169.786     -265.156       -8.624      130.856      164.266       73.253    17123.183    26983.261     5366.030        7.433        2.474      314.857       72.998        0.054      349.844       30.567      859.882
09/16/2014  13:30:00     -224.488     -217.579        2.959      165.978      173.063       86.806    27548.638    29950.898     7535.227        8.138        3.252      312.627       80.449        0.066      349.923       30.706      859.911
09/16/2014  13:31:00      -45.667     -244.512       -1.193      195.886      154.469       96.292    38371.203    23860.621     9272.227        6.667        3.575      248.740      101.881        0.168      349.810       30.508      859.887
09/16/2014  13:32:00     -106.473     -297.072       -0.097      121.976      107.899       57.843    14878.251    11642.193     3345.840        6.472        1.493      315.576       57.873        0.034      349.781       30.457      859.839
09/16/2014  13:33:00     -431.842     -321.222      -14.121      229.135      186.747       95.487    52503.029    34874.602     9117.831       19.316        4.825      538.211      101.120        0.035      349.667       30.261      859.819
09/16/2014  13:34:00     -262.823     -317.853       11.285      188.490      184.141       88.317    35528.374    33907.918     7799.849       12.372        3.862      412.440       82.082        0.040      349.674       30.270      859.828
09/16/2014  13:35:00     -202.165     -170.362       -0.759      187.406      186.771       76.379    35121.135    34883.375     5833.720        7.285        3.792      264.375       95.334        0.130      349.734       30.376      859.791
09/16/2014  13:36:00       12.653     -234.226      -22.563      176.127      160.662       72.393    31020.570    25812.219     5240.692        5.879        3.104      234.568       41.767        0.032      349.926       30.711      859.788
09/16/2014  13:37:00      127.035     -342.322      -24.466      158.793      181.751       93.811    25215.245    33033.377     8800.430       10.047        3.352      365.134       88.163        0.058      349.665       30.256      859.857
09/16/2014  13:38:00      -52.627     -213.499      -11.529      142.852      135.258       83.900    20406.606    18294.819     7039.239        4.710        2.287      219.889       81.104        0.136      349.819       30.525      859.789
09/16/2014  13:39:00      -46.848      -97.392        3.458       83.445       82.489       48.186     6963.037     6804.417     2321.844        1.389        0.804      108.073       30.630        0.080      350.043       30.915      859.825
09/16/2014  13:40:00     -138.087     -297.939        2.285      117.066      162.946       80.908    13704.420    26551.273     6546.161        7.731        2.340      328.383       78.993        0.058      349.743       30.391      859.861
09/16/2014  13:41:00     -181.886     -226.371       26.496      173.903      142.002       75.023    30242.248    20164.524     5628.504        7.052        2.802      290.390       78.931        0.074      349.651       30.232      859.834
09/16/2014  13:42:00     -227.814     -359.548       15.834      210.748      199.764      106.100    44414.917    39905.734    11257.314       13.848        4.779      425.646      110.427        0.067      349.454       29.891      859.789
09/16/2014  13:43:00     -178.356     -158.694       11.683      187.884      148.263       80.902    35300.373    21981.839     6545.056        6.047        3.191      238.736       79.645        0.111      349.768       30.435      859.716
09/16/2014  13:44:00     -145.492     -304.419      -14.663      178.903      150.941       97.807    32006.246    22783.241     9566.299        8.919        3.218      337.400       67.605        0.040      349.709       30.333      859.718
09/16/2014  13:45:00     -270.959     -410.430      -13.983      229.731      176.075       79.296    52776.513    31002.331     6287.888       16.605        4.503      491.804       81.729        0.028      349.581       30.111      859.749
09/16/2014  13:46:00     -290.340     -155.657       -0.966      210.205      149.418       77.633    44185.991    22325.775     6026.940        9.052        3.627      329.434       77.570        0.055      349.846       30.569      859.703
09/16/2014  13:47:00     -238.975     -248.218       -8.349      156.297      167.899       70.785    24428.702    28190.042     5010.548        8.820        2.881      344.559       67.420        0.038      349.830       30.543      859.700
09/16/2014  13:48:00     -397.667     -224.017        6.002      267.132      208.836      114.398    71359.369    43612.307    13086.979       16.818        6.403      456.424      141.339        0.096      349.663       30.253      859.646
09/16/2014  13:49:00     -148.175     -151.777       19.379      154.010      163.562       78.971    23719.063    26752.504     6236.396        5.103        2.835      212.113       78.640        0.137      349.885       30.639      859.689
09/16/2014  13:50:00     -153.966     -367.465       12.428      144.971      183.489       87.444    21016.463    33668.259     7646.457       11.060        3.117      398.417       86.738        0.047      349.636       30.206      859.679
09/16/2014  13:51:00     -276.557     -235.778      -14.617      168.476      150.216       91.617    28384.258    22564.812     8393.646        9.580        2.967      363.422       75.558        0.043      349.748       30.400      859.671
09/16/2014  13:52:00     -454.973     -310.533       -9.790      207.535      158.823       88.191    43070.980    25224.672     7777.572       18.978        3.804      550.846       85.659        0.024      349.644       30.220      859.631
09/16/2014  13:53:00     -571.129     -345.252      -12.770      326.320      235.261      101.966   106484.690    55347.789    10397.075       30.886        8.611      667.373      135.532        0.041      349.449       29.883      859.560
09/16/2014  13:54:00     -567.763     -126.977       -4.283      285.008      215.764      103.705    81229.648    46553.930    10754.718       23.849        6.927      581.789      115.690        0.040      349.492       29.956      859.534
09/16/2014  13:55:00     -304.160     -129.555       -0.012      222.775      138.080       79.912    49628.658    19065.977     6385.905        9.217        3.754      330.602       85.141        0.066      349.557       30.068      859.595
09/16/2014  13:56:00     -197.351     -159.352       29.459      208.416      159.297       84.685    43437.190    25375.654     7171.507        7.058        3.799      253.654       94.672        0.139      349.745       30.396      859.627
09/16/2014  13:57:00     -207.945     -245.519        2.119      176.228      204.637       74.303    31056.427    41876.357     5520.979        9.097        3.923      321.746       94.665        0.087      349.581       30.112      859.601
09/16/2014  13:58:00     -233.946     -123.620       -3.798      145.961      129.441       63.316    21304.565    16754.928     4008.941        5.604        2.103      264.599       63.636        0.058      349.679       30.281      859.570
09/16/2014  13:59:00     -260.287     -139.480       -4.938      135.740       95.953       59.072    18425.461     9206.980     3489.506        5.917        1.556      295.303       50.406        0.029      349.567       30.088      859.528
09/16/2014  14:00:00     -224.151     -236.672        8.682      195.777      179.017       89.735    38328.589    32046.986     8052.300        9.236        3.921      325.971      106.393        0.107      349.731       30.371      859.491
09/16/2014  14:01:00     -187.070     -287.105      -10.346      163.880      180.427      102.664    26856.688    32554.014    10539.852        9.373        3.498      342.673       89.233        0.068      349.564       30.080      859.500
09/16/2014  14:02:00     -250.411     -275.465       -9.444      146.634      185.089       83.320    21501.402    34257.802     6942.162       10.068        3.135      372.272       76.151        0.042      349.861       30.598      859.484
09/16/2014  14:03:00     -450.200     -303.559       -1.290      336.814      232.687      112.348   113443.458    54143.227    12622.063       23.748        9.010      542.981      139.527        0.066      349.826       30.535      859.455
09/16/2014  14:04:00     -337.505     -252.053      -14.589      211.637      186.738       89.276    44790.009    34871.081     7970.189       13.262        4.382      421.237       85.747        0.041      349.698       30.314      859.433
09/16/2014  14:05:00     -251.753     -140.655       21.766      197.908       97.652       80.503    39167.427     9535.993     6480.734        6.940        2.759      288.381       87.785        0.093      349.865       30.601      859.412
09/16/2014  14:06:00     -339.535     -228.708      -29.646      148.527      123.652       69.902    22060.152    15289.769     4886.333       10.535        2.112      409.380       67.632        0.027      349.794       30.480      859.458
09/16/2014  14:07:00     -391.692     -188.903      -16.354      213.260      170.516       81.064    45479.920    29075.745     6571.406       13.523        4.056      434.865       98.796        0.052      349.637       30.207      859.430
09/16/2014  14:08:00     -310.649     -198.606       -1.458      198.540      117.074       79.716    39418.179    13706.239     6354.572        9.770        2.974      368.710       92.383        0.063      349.820       30.526      859.470
09/16/2014  14:09:00     -297.320     -284.145       -0.413      230.341      163.878       83.251    53057.162    26856.152     6930.765       12.797        4.342      411.263      113.445        0.076      349.809       30.506      859.464
09/16/2014  14:10:00     -233.757     -266.942       10.576      222.884      200.476       87.439    49677.404    40190.693     7645.588       11.174        4.876      354.824       74.119        0.044      349.886       30.639      859.466
09/16/2014  14:11:00     -195.652     -163.739        5.036      155.335      149.088       73.226    24129.052    22227.254     5362.026        5.841        2.586      255.128       73.642        0.083      349.990       30.821      859.483
09/16/2014  14:12:00     -216.296     -345.300        8.658      153.325      223.085       95.706    23508.658    49766.726     9159.676       12.425        4.122      407.451       90.023        0.049      349.884       30.636      859.479
09/16/2014  14:13:00     -377.654     -298.229        9.188      234.495      192.337       96.487    54987.774    36993.337     9309.770       16.645        5.065      481.211       98.599        0.042      349.792       30.476      859.482
09/16/2014  14:14:00     -393.840     -158.137       -4.524      205.224      162.467       99.038    42117.076    26395.582     9808.476       12.921        3.916      424.402      111.205        0.069      349.837       30.557      859.494
09/16/2014  14:15:00     -316.618     -277.772      -15.413      192.323      200.219       84.417    36988.175    40087.716     7126.208       13.091        4.210      421.194       91.120        0.047      349.510       29.988      859.525
09/16/2014  14:16:00      -10.459     -200.440        5.578      128.321      143.265       83.288    16466.167    20524.914     6936.948        4.211        2.196      200.712       58.001        0.084      349.399       29.796      859.463
09/16/2014  14:17:00       -6.608      -84.147        0.630       46.713       68.525       44.269     2182.071     4695.687     1959.773        0.798        0.442       84.406       45.073        0.285      349.689       30.302      859.404
09/16/2014  14:18:00     -184.428      -82.809       -9.360       58.831       75.477       39.611     3461.041     5696.736     1569.065        2.584        0.536      202.166       29.311        0.021      349.578       30.105      859.393
09/16/2014  14:19:00     -103.219       -6.346        4.173       82.854       65.013       44.160     6864.780     4226.724     1950.096        1.187        0.652      103.414       37.720        0.133      349.875       30.625      859.395
09/16/2014  14:20:00     -430.878     -246.230      -12.718      245.492      226.775       92.752    60266.247    51426.882     8602.963       18.335        6.015      496.271      104.572        0.044      349.834       30.549      859.417
09/16/2014  14:21:00     -514.791     -271.262        1.966      294.092      188.591      101.452    86490.117    35566.678    10292.549       23.545        6.617      581.887      131.637        0.051      349.646       30.223      859.360
09/16/2014  14:22:00     -359.629      -65.798        8.299      161.972      142.755       90.129    26234.963    20378.946     8123.300        9.422        2.737      365.598       74.756        0.042      349.743       30.391      859.354
09/16/2014  14:23:00     -327.791      -88.585       -6.255      186.601      117.875       84.744    34819.970    13894.521     7181.466        8.560        2.795      339.550       90.749        0.071      349.717       30.346      859.323
09/16/2014  14:24:00     -215.561     -169.851       17.731      171.490      136.915       91.276    29408.750    18745.749     8331.247        6.605        2.824      274.437       94.751        0.119      349.877       30.625      859.296
09/16/2014  14:25:00     -292.838      -75.268       -4.395      142.636      144.495       73.818    20345.166    20878.803     5449.130        6.905        2.334      302.357       53.182        0.031      350.027       30.883      859.240
09/16/2014  14:26:00     -106.024      -10.162       17.313       99.370      126.229       71.679     9874.442    15933.780     5137.821        2.129        1.547      106.510       63.204        0.352      350.203       31.193      859.237
09/16/2014  14:27:00     -101.228      -97.787       15.128      111.096      127.984       58.111    12342.249    16379.924     3376.931        2.606        1.605      140.745       50.547        0.129      350.073       30.966      859.267
09/16/2014  14:28:00     -211.903     -312.879       -4.819      186.246      203.953       74.560    34687.701    41596.630     5559.257       11.232        4.092      377.884       73.793        0.038      349.766       30.432      859.285
09/16/2014  14:29:00     -384.812     -367.455        3.764      200.900      219.453      104.495    40360.930    48159.638    10919.162       19.126        4.972      532.075      101.690        0.037      349.818       30.521      859.233
09/16/2014  14:30:00     -260.843     -197.011      -11.808      204.311      155.835       91.808    41743.154    24284.503     8428.686        9.071        3.723      326.883      104.133        0.101      349.907       30.677      859.252
09/16/2014  14:31:00     -334.146     -307.482       -6.798      231.860      202.612       94.614    53758.865    41051.522     8951.773       15.498        5.188      454.091       95.352        0.044      349.958       30.764      859.241
09/16/2014  14:32:00     -470.319     -248.713       -2.982      226.462      175.860      102.998    51285.024    30926.842    10608.622       18.793        4.641      532.032      102.684        0.037      349.792       30.475      859.233
09/16/2014  14:33:00     -490.335     -322.595      -25.328      187.132      177.401       90.786    35018.350    31471.018     8242.153       20.992        3.737      586.938       90.172        0.024      349.673       30.267      859.190
09/16/2014  14:34:00     -305.866     -119.254        3.727      222.574      168.322       75.311    49539.258    28332.185     5671.730        9.565        4.177      328.292      106.258        0.105      349.731       30.371      859.113
09/16/2014  14:35:00     -246.322     -204.343       -0.434      127.076      123.991       80.660    16148.308    15373.773     6506.042        7.022        1.901      320.048       78.533        0.060      349.840       30.560      859.132
09/16/2014  14:36:00     -247.462     -186.301       -3.633      128.795      137.444       68.446    16588.083    18890.978     4684.805        6.805        2.008      309.751       69.206        0.050      350.014       30.862      859.142
09/16/2014  14:37:00     -309.651     -231.345        4.427      172.962      171.573       96.512    29915.857    29437.352     9314.561       10.903        3.433      386.528       97.916        0.064      350.010       30.856      859.144
09/16/2014  14:38:00     -404.465     -261.398      -27.687      181.579      166.835       95.817    32971.090    27833.761     9180.923       15.132        3.499      481.581       79.855        0.027      349.833       30.548      859.110
09/16/2014  14:39:00     -372.764     -355.610      -12.857      201.061      200.322       90.505    40425.416    40128.936     8191.150       17.714        4.437      515.180       84.430        0.027      349.815       30.517      859.144
09/16/2014  14:40:00     -361.936     -221.053       -3.894      198.024      155.482       81.871    39213.593    24174.767     6702.914       12.497        3.505      424.101       83.318        0.039      349.728       30.365      859.130
09/16/2014  14:41:00     -219.511     -174.195        0.940      132.622      125.092       60.567    17588.691    15647.963     3668.408        5.771        1.845      280.230       64.856        0.054      349.797       30.486      859.142
09/16/2014  14:42:00     -141.946     -100.443       -6.486      127.427       85.367       43.948    16237.750     7287.571     1931.470        2.786        1.273      173.889       41.205        0.056      349.960       30.770      859.146
09/16/2014  14:43:00     -153.765     -247.889      -18.481      158.238      162.505       60.150    25039.255    26407.881     3617.994        7.024        2.753      291.706       57.562        0.039      349.803       30.496      859.133
09/16/2014  14:44:00      -69.003      -34.205       19.052      103.570       83.501       60.353    10726.784     6972.367     3642.504        1.381        1.067       77.015       53.940        0.491      350.207       31.200      859.106
09/16/2014  14:45:00     -106.398     -109.627       18.018      128.397      101.950       57.240    16485.877    10393.886     3276.368        2.690        1.508      152.770       53.908        0.125      350.298       31.357      859.102
09/16/2014  14:46:00      -93.660     -139.592        0.929      104.715       89.089       46.848    10965.311     7936.802     2194.692        2.467        1.055      168.101       35.036        0.043      350.007       30.851      859.080
09/16/2014  14:47:00     -116.544     -313.353      -20.364      123.617      116.615       56.074    15281.126    13599.055     3144.303        7.210        1.601      334.324       43.243        0.017      350.039       30.905      859.102
09/16/2014  14:48:00      -87.915     -352.626      -21.873      272.059      182.620       92.827    74016.348    33349.942     8616.933       12.424        5.799      363.420       89.571        0.061      350.016       30.866      859.068
09/16/2014  14:49:00     -145.870     -170.961       18.864      169.927      142.685       77.359    28875.198    20359.007     5984.468        5.303        2.761      224.735       50.464        0.050      350.245       31.263      859.040
09/16/2014  14:50:00     -189.875     -188.479      -10.774      136.549      112.566       59.361    18645.538    12671.163     3523.760        5.326        1.742      267.538       63.400        0.056      350.093       31.001      859.084
09/16/2014  14:51:00     -116.759     -131.943        5.868      110.480       88.514       54.995    12205.821     7834.735     3024.497        2.707        1.153      176.186       57.158        0.105      350.035       30.899      859.061
09/16/2014  14:52:00     -253.481     -154.780       16.627      181.513      134.451       69.314    32947.141    18077.140     4804.361        7.215        2.791      297.001       82.665        0.077      350.153       31.105      859.048
09/16/2014  14:53:00     -172.193     -213.967       14.530      255.263      199.763       90.132    65159.273    39905.306     8123.705        9.439        5.659      274.649       80.234        0.085      350.028       30.886      859.037
09/16/2014  14:54:00     -178.506     -450.233       16.824      204.213      219.496       98.119    41703.051    48178.472     9627.323       16.716        4.975      484.329       70.338        0.021      349.970       30.786      859.044
09/16/2014  14:55:00     -159.135     -186.015        7.445      178.759      199.610       74.974    31954.892    39844.167     5621.115        6.869        3.871      244.797       83.814        0.117      350.115       31.039      859.068
09/16/2014  14:56:00      -59.893     -131.356        0.518      128.725      101.948       66.101    16570.196    10393.295     4369.283        2.608        1.567      144.366       32.574        0.051      350.114       31.038      859.069
09/16/2014  14:57:00      -15.445      -84.130       22.553      115.785       93.969       65.999    13406.080     8830.082     4355.841        1.720        1.330       85.536       62.682        0.537      350.195       31.179      858.996
09/16/2014  14:58:00     -205.171     -287.143       -2.901      152.281      228.673       93.754    23189.600    52291.310     8789.861       10.440        4.214      352.911      104.801        0.088      349.983       30.809      858.972
09/16/2014  14:59:00     -150.467     -140.244       -2.516      146.736      132.355       75.456    21531.451    17517.924     5693.621        4.352        2.237      205.690       64.512        0.098      349.935       30.725      858.959
09/16/2014  15:00:00     -198.718     -133.056        6.388      124.394      114.870       60.298    15473.785    13195.185     3635.836        4.476        1.615      239.150       59.815        0.063      350.136       31.074      858.955
09/16/2014  15:01:00     -160.215     -198.823       -0.734      172.002      118.896       75.769    29584.678    14136.204     5740.965        5.732        2.473      255.342       64.390        0.064      350.241       31.257      858.947
09/16/2014  15:02:00     -264.788     -274.504        4.604      208.645      194.452       91.121    43532.565    37811.421     8303.124       11.755        4.482      381.399      109.866        0.083      349.923       30.704      858.964
09/16/2014  15:03:00     -366.306     -310.083       -8.150      310.297      237.797      108.427    96284.505    56547.647    11756.423       19.746        8.229      479.929      107.453        0.050      349.909       30.680      858.910
09/16/2014  15:04:00     -305.883     -324.611       -9.331      193.177      244.871       92.384    37317.518    59961.987     8534.779       15.240        5.291      446.023       94.974        0.045      349.931       30.717      858.955
09/16/2014  15:05:00     -206.222     -285.137       -3.847      151.445      211.265       73.518    22935.596    44632.751     5404.836        9.839        3.649      351.895       84.217        0.057      349.949       30.750      858.953
09/16/2014  15:06:00      -97.831     -279.106       -9.555      152.513      144.803       89.311    23260.081    20967.929     7976.424        6.987        2.610      295.755       57.983        0.038      349.846       30.570      858.954
09/16/2014  15:07:00      -64.991     -180.458       -0.482      164.822      106.859       75.749    27166.351    11418.835     5737.981        4.055        2.216      191.805       61.319        0.102      349.962       30.773      858.942
09/16/2014  15:08:00     -129.776     -131.425       14.892      125.164      143.469       63.898    15665.972    20583.289     4082.978        3.733        2.017      184.701       54.328        0.087      350.094       31.002      858.968
09/16/2014  15:09:00     -136.179     -289.192        6.318      176.068      167.867       94.384    31000.073    28179.281     8908.384        8.514        3.404      319.651       66.680        0.044      349.824       30.533      858.994
09/16/2014  15:10:00     -247.605     -175.626        0.890      171.748      226.192       87.327    29497.507    51162.813     7626.003        9.020        4.414      303.566       76.093        0.063      349.820       30.526      858.937
09/16/2014  15:11:00     -247.796     -391.599       11.258      219.560      243.443      122.925    48206.502    59264.271    15110.656       16.871        6.129      463.414      119.735        0.067      349.786       30.466      858.906
09/16/2014  15:12:00     -133.831     -311.687       20.504      179.924      179.007       93.150    32372.480    32043.481     8676.995        9.427        3.655      339.204       83.989        0.061      349.875       30.621      858.885
09/16/2014  15:13:00     -355.057     -144.791        0.208      199.240      161.065       97.059    39696.576    25942.045     9420.508       11.103        3.753      383.445       97.015        0.064      349.927       30.711      858.842
09/16/2014  15:14:00     -326.334     -258.186      -17.284      226.917      165.498       80.015    51491.347    27389.571     6402.380       12.935        4.264      416.117       93.518        0.051      349.638       30.208      858.785
09/16/2014  15:15:00     -273.883     -296.446       10.280      264.752      189.165      114.479    70093.489    35783.560    13105.427       14.097        5.949      403.599      131.037        0.105      349.935       30.725      858.775
09/16/2014  15:16:00     -287.878     -340.713      -18.448      153.975      197.552       87.660    23708.259    39026.641     7684.341       13.485        3.521      446.049       78.639        0.031      349.874       30.618      858.774
09/16/2014  15:17:00     -324.934     -208.121      -11.943      117.029      115.705       67.577    13695.713    13387.597     4566.697        9.034        1.583      385.871       55.185        0.020      349.977       30.799      858.741
09/16/2014  15:18:00     -547.037     -367.789      -15.864      239.718      189.286      109.141    57464.846    35829.133    11911.707       26.997        5.260      659.180      118.940        0.033      349.835       30.551      858.727
09/16/2014  15:19:00     -300.944     -148.534       19.123      205.738      172.428       93.120    42328.162    29731.432     8671.371        9.685        4.037      335.603       95.527        0.081      349.973       30.791      858.746
09/16/2014  15:20:00     -287.847     -209.718       11.061      172.994      211.654       92.769    29926.882    44797.338     8606.137       10.513        4.167      356.142      109.780        0.095      350.016       30.866      858.741
09/16/2014  15:21:00     -316.439     -205.302       -8.315      167.842      128.717       70.953    28170.822    16568.151     5034.293        9.605        2.489      377.203       78.725        0.044      350.003       30.843      858.740
09/16/2014  15:22:00     -103.289     -162.749        3.735      132.706      181.987       53.790    17611.005    33119.369     2893.321        4.539        2.681      192.759       69.522        0.130      350.065       30.953      858.755
09/16/2014  15:23:00     -150.639     -205.708        0.403      155.583      163.403       66.924    24206.071    26700.658     4478.866        6.019        2.769      254.967       62.338        0.060      350.117       31.040      858.763
09/16/2014  15:24:00     -276.236     -188.770        3.575      174.828      141.974       92.095    30564.984    20156.681     8481.514        8.557        2.960      334.575       82.306        0.061      350.029       30.886      858.736
09/16/2014  15:25:00     -203.019     -165.057       -1.535      202.270      138.404       72.450    40913.229    19155.560     5249.014        6.688        3.266      261.649       60.521        0.054      350.137       31.077      858.708
09/16/2014  15:26:00     -154.243     -100.128       12.858      118.786      109.913       59.034    14110.088    12080.787     3485.019        3.182        1.484      183.892       56.849        0.096      350.335       31.422      858.718
09/16/2014  15:27:00     -229.982     -182.902       18.755      154.446      164.423       83.207    23853.688    27034.814     6923.459        7.224        2.891      293.845       79.573        0.073      350.249       31.270      858.693
09/16/2014  15:28:00     -153.887     -288.982       13.429      130.216      233.055       78.573    16956.319    54314.407     6173.651        9.239        3.872      327.402       78.713        0.058      350.305       31.369      858.762
09/16/2014  15:29:00     -120.235     -252.986       -5.131      135.295      164.359       89.384    18304.661    27013.977     7989.565        6.589        2.665      280.104       74.877        0.071      349.990       30.820      858.721
09/16/2014  15:30:00     -297.624     -406.429       -9.686      232.406      189.942      104.496    54012.550    36077.952    10919.489       17.741        5.050      503.750      105.877        0.044      349.939       30.732      858.736
09/16/2014  15:31:00     -286.433     -425.795      -33.968      220.085      223.659       94.166    48437.524    50023.558     8867.194       18.589        5.366      513.172       83.728        0.027      349.812       30.511      858.706
09/16/2014  15:32:00     -206.910     -491.767      -37.420      159.994      196.218       78.088    25597.960    38501.356     6097.670       17.811        3.510      533.522       45.735        0.007      349.826       30.536      858.727
09/16/2014  15:33:00     -426.764     -292.561       -2.799      324.760      158.783       96.289   105469.004    25212.199     9271.544       20.381        6.998      517.417      108.740        0.044      349.881       30.633      858.659
09/16/2014  15:34:00     -320.652     -314.867      -10.541      198.797      159.115       89.503    39520.439    25317.649     8010.732       13.744        3.642      449.399       89.484        0.040      349.970       30.785      858.667
09/16/2014  15:35:00     -364.361     -346.397      -13.492      208.370      208.584       99.311    43418.135    43507.366     9862.676       17.484        4.839      502.742       90.223        0.032      349.905       30.673      858.657
09/16/2014  15:36:00     -147.235     -137.992       32.008      184.470      219.449       95.555    34029.219    48157.798     9130.708        6.651        4.566      201.792       93.568        0.215      350.202       31.188      858.665
09/16/2014  15:37:00     -330.071     -326.797      -19.248      188.000      203.050       77.914    35344.105    41229.287     6070.619       14.936        4.132      464.482       73.366        0.025      349.875       30.620      858.631
09/16/2014  15:38:00     -189.970     -228.698        4.730      188.715      169.059       90.582    35613.163    28580.834     8205.100        8.039        3.620      297.307       94.807        0.102      350.117       31.042      858.599
09/16/2014  15:39:00     -400.854     -249.881       -8.429      187.294      184.372       94.865    35078.966    33992.969     8999.322       15.062        3.904      472.360       84.130        0.032      350.034       30.896      858.610
09/16/2014  15:40:00     -347.759     -232.144      -12.106      241.454      174.409       85.285    58299.958    30418.419     7273.553       13.546        4.800      418.124      100.986        0.058      350.102       31.015      858.589
09/16/2014  15:41:00     -207.164     -209.487       -2.452      168.370      194.731       73.088    28348.490    37920.105     5341.870        7.919        3.581      294.621       65.401        0.049      350.172       31.137      858.607
09/16/2014  15:42:00     -156.923     -279.149       -9.465      188.810      170.759       79.505    35649.405    29158.514     6321.058        8.687        3.556      320.233       94.867        0.088      350.154       31.107      858.611
09/16/2014  15:43:00     -235.033     -179.334       -2.927      169.947      132.943       66.631    28881.823    17673.790     4439.717        6.919        2.550      295.637       70.744        0.057      350.219       31.218      858.620
09/16/2014  15:44:00     -128.143      -58.242       34.060      170.711      123.910       77.416    29142.364    15353.574     5993.276        3.572        2.524      140.758       95.767        0.463      350.358       31.462      858.580
09/16/2014  15:45:00     -389.532     -161.877       -9.180      248.946      145.850       94.177    61974.195    21272.227     8869.347       13.505        4.606      421.829       96.589        0.052      350.108       31.026      858.548
09/16/2014  15:46:00     -302.701     -117.111       15.857      190.635      205.629       95.416    36341.839    42283.102     9104.212        9.664        4.386      324.566      102.926        0.101      350.128       31.061      858.519
09/16/2014  15:47:00     -404.674     -211.242      -15.971      201.922      177.569       91.440    40772.637    31530.776     8361.270       14.464        4.033      456.491       85.365        0.035      350.093       30.999      858.540
09/16/2014  15:48:00     -433.192     -246.635      -24.422      166.246      154.426       90.496    27637.778    23847.359     8189.512       15.437        2.984      498.482       90.266        0.033      350.061       30.944      858.545
09/16/2014  15:49:00     -172.804      -20.217       28.356      150.225      104.440       66.980    22567.563    10907.758     4486.308        3.451        1.898      173.983       67.761        0.152      350.275       31.316      858.562
09/16/2014  15:50:00     -186.368     -321.194       -7.320      150.638      172.339       77.946    22691.935    29700.752     6075.506        9.820        2.923      371.347       75.689        0.042      349.912       30.686      858.534
09/16/2014  15:51:00     -352.062     -226.366        5.143      206.925      200.371       91.908    42818.002    40148.365     8447.135       13.330        4.571      418.556      110.210        0.069      349.955       30.759      858.513
09/16/2014  15:52:00     -500.500     -307.046      -17.044      244.249      195.626       90.392    59657.785    38269.483     8170.636       22.556        5.305      587.178       97.817        0.028      349.774       30.446      858.499
09/16/2014  15:53:00     -335.726     -214.890       -3.433      220.422      204.708       98.070    48586.008    41905.315     9617.761       12.949        5.005      398.610      101.390        0.065      349.873       30.617      858.433
09/16/2014  15:54:00     -357.747     -254.991      -14.326      246.485      200.866       86.121    60754.880    40347.087     7416.827       15.084        5.426      439.322       83.368        0.036      350.036       30.900      858.449
09/16/2014  15:55:00     -391.635     -277.930      -10.030      162.755      221.418       93.131    26489.105    49025.987     8673.346       15.744        4.209      480.232      102.770        0.046      349.992       30.823      858.459
09/16/2014  15:56:00     -459.766     -315.055      -11.624      222.500      161.476       99.230    49506.093    26074.400     9846.561       19.809        4.271      557.355      115.274        0.043      349.786       30.466      858.460
09/16/2014  15:57:00     -267.352     -225.942       -8.501      160.611      152.795       66.183    25795.739    23346.196     4380.191        8.805        2.676      350.038       71.576        0.042      349.710       30.334      858.445
09/16/2014  15:58:00     -197.899     -171.921        6.959      118.899      134.476       65.045    14137.005    18083.868     4230.803        5.260        1.823      262.147       59.049        0.051      349.956       30.760      858.449
09/16/2014  15:59:00     -319.872     -258.588      -13.783      187.812      136.958       82.275    35273.357    18757.555     6769.148       11.508        3.040      411.322       84.336        0.042      350.049       30.922      858.465
09/16/2014  16:00:00     -359.609     -248.053       -7.751      192.786      150.444       78.903    37166.527    22633.371     6225.608       12.845        3.301      436.863       84.825        0.038      349.939       30.731      858.461
09/16/2014  16:01:00     -143.006     -207.313        7.496      181.367      229.854       81.664    32893.930    52832.961     6669.036        7.792        4.620      251.852       93.052        0.137      350.034       30.898      858.417
09/16/2014  16:02:00     -387.606     -256.501      -24.278      176.014      147.078       80.580    30980.790    21631.920     6493.073       13.785        2.955      464.791       77.551        0.028      350.085       30.985      858.420
09/16/2014  16:03:00     -226.634     -207.457        3.757      136.288      135.212       76.899    18574.290    18282.211     5913.527        6.858        2.139      307.248       73.723        0.058      350.069       30.957      858.437
09/16/2014  16:04:00     -299.504     -241.243       -4.698      231.591      169.893       89.839    53634.576    28863.714     8071.000       11.923        4.528      384.578      102.341        0.071      350.091       30.995      858.432
09/16/2014  16:05:00     -283.799      -97.134        8.903      203.323      164.778       96.551    41340.159    27151.840     9322.144        8.392        3.891      299.961      108.775        0.132      350.211       31.205      858.453
09/16/2014  16:06:00     -347.778     -358.609      -10.206      191.630      227.228       99.605    36722.108    51632.625     9921.227       17.395        4.914      499.550      101.588        0.041      349.982       30.805      858.456
09/16/2014  16:07:00     -269.184     -189.119        3.681      156.047      151.148       74.401    24350.644    22845.847     5535.543        8.048        2.637      328.977       77.941        0.056      349.976       30.797      858.462
09/16/2014  16:08:00     -374.593     -217.214      -23.609      117.316      140.872       56.967    13762.949    19844.835     3245.215       11.245        1.843      433.015       39.674        0.008      349.823       30.529      858.424
09/16/2014  16:09:00     -388.805     -216.706        8.188      252.138      163.885       84.082    63573.578    26858.395     7069.783       14.783        4.875      445.119      110.495        0.062      350.047       30.917      858.386
09/16/2014  16:10:00     -334.780     -318.263        9.769      223.004      184.722      106.953    49730.845    34122.391    11438.905       15.436        4.765      461.918      105.390        0.052      349.940       30.733      858.401
09/16/2014  16:11:00     -401.569     -283.814       -9.902      235.016      171.993       92.445    55232.658    29581.475     8546.157       16.761        4.668      491.740       87.656        0.032      349.828       30.540      858.406
09/16/2014  16:12:00     -304.032     -168.741       13.473      198.518      116.086       80.816    39409.423    13475.861     6531.237        9.024        2.971      347.720       84.126        0.059      349.772       30.441      858.400
09/16/2014  16:13:00     -331.203     -185.171        1.724      181.222      132.798       71.291    32841.493    17635.208     5082.376        9.976        2.778      379.451       87.974        0.054      349.798       30.487      858.377
09/16/2014  16:14:00     -197.450      -71.551        2.564      156.737      129.380       54.163    24566.448    16739.257     2933.607        4.417        2.212      210.014       63.832        0.092      349.962       30.772      858.370
09/16/2014  16:15:00     -286.309     -229.776       -2.067      161.138      147.507       75.873    25965.462    21758.425     5756.665        9.412        2.674      367.110       72.605        0.039      349.894       30.653      858.348
09/16/2014  16:16:00     -339.583     -196.861        2.537      162.726      140.259       71.252    26479.763    19672.530     5076.896       10.264        2.561      392.519       73.399        0.035      349.910       30.682      858.331
09/16/2014  16:17:00     -420.808     -116.420      -32.984      185.204      143.935       82.117    34300.689    20717.296     6743.160       12.673        3.088      436.615       74.884        0.029      350.019       30.871      858.291
09/16/2014  16:18:00     -200.277     -142.321        7.252      123.205       89.815       51.945    15179.469     8066.650     2698.273        4.318        1.297      245.695       56.770        0.053      350.116       31.040      858.321
09/16/2014  16:19:00     -328.980     -274.263       -8.455      160.449      154.365       72.916    25743.998    23828.456     5316.807       11.919        2.744      428.308       65.143        0.023      350.067       30.953      858.293
09/16/2014  16:20:00     -348.736     -228.943       -3.249      210.270      133.032       79.630    44213.443    17697.449     6340.883       12.113        3.413      417.171       92.462        0.049      349.834       30.549      858.293
09/16/2014  16:21:00     -398.445     -212.677      -10.835      157.070      120.482       71.689    24670.857    14515.925     5139.300       12.421        2.216      451.653       65.661        0.021      349.883       30.635      858.288
09/16/2014  16:22:00     -212.802      -39.156       -1.119      110.338       82.356       53.970    12174.470     6782.431     2912.776        3.434        1.093      216.375       55.339        0.065      350.103       31.018      858.305
09/16/2014  16:23:00     -356.584     -148.451      -19.504      157.783      178.642       73.459    24895.574    31913.039     5396.249       10.588        3.110      386.251       61.949        0.026      349.858       30.591      858.280
09/16/2014  16:24:00     -318.811      -26.327       -4.382      174.207      137.390       84.129    30348.138    18875.960     7077.676        7.932        2.815      319.896       86.463        0.073      349.930       30.716      858.259
09/16/2014  16:25:00     -430.232       58.168        0.803      192.044      139.969       79.678    36881.058    19591.195     6348.644       12.564        3.141      434.146       89.313        0.042      349.822       30.530      858.250
09/16/2014  16:26:00     -275.175       -2.161       -3.497      146.993      125.664       54.398    21606.926    15791.467     2959.176        5.804        2.018      275.184       58.773        0.046      349.904       30.670      858.240
09/16/2014  16:27:00     -394.642      -75.431      -24.477      234.308      126.820       84.131    54900.174    16083.204     7077.989       12.003        3.903      401.786       84.718        0.044      349.947       30.745      858.234
09/16/2014  16:28:00     -335.726     -139.038       -5.832      210.456      206.509       89.997    44291.727    42645.977     8099.407       11.354        4.752      363.378      112.098        0.095      349.837       30.556      858.187
09/16/2014  16:29:00     -222.572     -117.317       12.988      150.896      135.161       85.609    22769.605    18268.573     7328.905        5.591        2.418      251.598       93.053        0.137      349.878       30.625      858.201
09/16/2014  16:30:00     -569.905     -257.391      -16.450      220.451      193.948       92.918    48598.735    37615.768     8633.709       24.306        4.742      625.333       91.223        0.021      349.713       30.340      858.180
09/16/2014  16:31:00     -459.044     -183.509       -6.733      266.719      191.019      110.649    71138.809    36488.085    12243.112       18.213        5.994      494.365      130.985        0.070      349.564       30.080      858.175
09/16/2014  16:32:00     -325.352     -144.355       -2.463      235.192      193.831       91.559    55315.112    37570.565     8382.971       11.396        5.063      355.938      112.144        0.099      349.656       30.242      858.150
09/16/2014  16:33:00     -438.136      -89.314      -23.873      185.113      132.784       73.016    34266.746    17631.480     5331.318       12.886        2.861      447.147       82.895        0.034      349.705       30.326      858.144
09/16/2014  16:34:00     -366.113      -23.168      -21.796      140.336      112.262       71.498    19694.131    12602.814     5111.893        8.622        1.870      366.846       81.935        0.050      349.615       30.170      858.120
09/16/2014  16:35:00     -394.712      -17.783      -15.962      210.269      164.088       81.055    44212.950    26925.013     6569.840       11.702        3.885      395.112       89.198        0.051      349.651       30.233      858.091
09/16/2014  16:36:00     -300.275       17.973       -5.611      169.937      152.533       88.851    28878.630    23266.422     7894.524        7.527        3.002      300.812       87.249        0.084      349.663       30.254      858.079
09/16/2014  16:37:00     -215.122      -53.898        7.016      169.055      125.754       77.726    28579.521    15814.183     6041.259        4.982        2.522      221.771       83.953        0.143      349.766       30.432      858.067
09/16/2014  16:38:00     -290.395     -108.915      -14.439      137.526      147.554       84.324    18913.473    21772.154     7110.537        7.209        2.390      310.148       71.049        0.052      349.724       30.359      858.037
09/16/2014  16:39:00     -546.100     -110.604      -22.823      261.812      185.957       93.666    68545.496    34579.898     8773.336       21.142        5.595      557.188      103.861        0.035      349.514       29.995      858.023
09/16/2014  16:40:00     -638.138     -197.304      -21.694      212.131      176.456       90.784    44999.462    31136.884     8241.674       26.548        4.219      667.944       89.496        0.018      349.430       29.847      857.987
09/16/2014  16:41:00     -414.397      -98.375      -21.236      176.947      150.966       79.843    31310.167    22790.764     6374.848       12.115        3.024      425.914       90.415        0.045      349.538       30.037      857.988
09/16/2014  16:42:00     -464.470      -61.933      -17.938      181.540      193.383       82.588    32956.900    37397.040     6820.716       14.852        3.859      468.581       75.313        0.026      349.553       30.062      857.984
09/16/2014  16:43:00     -337.426     -104.933        2.986      244.833      164.523       93.896    59943.270    27067.927     8816.465       11.033        4.791      353.366      117.502        0.111      349.523       30.010      857.995
09/16/2014  16:44:00     -238.613      -74.990       -9.034      175.330      131.439       78.850    30740.642    17276.085     6217.401        5.843        2.712      250.120       89.246        0.127      349.571       30.093      858.007
09/16/2014  16:45:00     -563.779     -130.508      -22.466      220.085      173.797       95.190    48437.622    30205.486     9061.050       21.153        4.385      578.688      105.741        0.033      349.360       29.727      858.001
09/16/2014  16:46:00     -466.993     -137.127      -25.116      199.993      183.989       94.583    39997.274    33851.914     8945.890       16.014        4.140      486.710      101.564        0.044      349.358       29.725      858.002
09/16/2014  16:47:00     -303.009      -30.427       -7.444      148.923      130.236       61.162    22178.146    16961.361     3740.733        6.783        2.144      304.533       57.664        0.036      349.509       29.985      857.991
09/16/2014  16:48:00     -429.193        1.446      -33.446      191.339      164.551       94.756    36610.637    27077.045     8978.608       12.898        3.633      429.196       88.510        0.043      349.427       29.844      857.993
09/16/2014  16:49:00     -442.473      -87.692      -23.529      171.293      124.044       79.407    29341.248    15386.948     6305.472       12.752        2.552      451.079       89.953        0.040      349.357       29.721      857.986
09/16/2014  16:50:00     -222.116      -51.481        4.669      209.257      151.877       95.979    43788.576    23066.654     9211.939        6.402        3.803      228.004      108.899        0.228      349.426       29.842      857.965
09/16/2014  16:51:00     -498.840     -119.202      -43.099      240.655      159.887       87.832    57914.885    25563.970     7714.442       17.803        4.560      512.884      101.988        0.040      349.366       29.737      857.977
09/16/2014  16:52:00     -382.517     -205.855      -18.533      198.404      144.511       82.261    39364.162    20883.468     6766.825       12.801        3.351      434.391      101.050        0.054      349.295       29.615      857.988
09/16/2014  16:53:00     -293.870      -51.971       -7.473      203.571      156.342       89.072    41441.146    24442.675     7933.794        8.145        3.691      298.430      100.450        0.113      349.327       29.669      857.999
09/16/2014  16:54:00     -329.531      -58.305      -10.602      174.789      111.311       68.075    30551.069    12390.164     4634.201        7.983        2.379      334.650       79.837        0.057      349.361       29.730      858.006
09/16/2014  16:55:00     -206.672      -46.564       -5.018      128.496       82.906       59.838    16511.258     6873.445     3580.586        3.593        1.348      211.853       67.362        0.101      349.432       29.853      858.013
09/16/2014  16:56:00     -394.884      -35.760      -30.170      201.235      182.101       73.249    40495.542    33160.850     5365.389       11.856        3.951      396.500       82.129        0.043      349.359       29.726      858.000
09/16/2014  16:57:00     -237.119       -6.964       -9.973      137.494      126.474       62.806    18904.571    15995.554     3944.540        4.760        1.942      237.221       65.892        0.077      349.479       29.934      857.973
09/16/2014  16:58:00     -366.832      -77.528      -16.946      153.758      129.904       80.049    23641.659    16875.141     6407.914        9.388        2.346      374.935       82.437        0.048      349.354       29.718      857.937
09/16/2014  16:59:00     -407.136     -113.125      -14.466      189.487      164.276       82.436    35905.311    26986.589     6795.619       12.421        3.484      422.560       89.180        0.045      349.393       29.783      857.931
09/16/2014  17:00:00     -411.367       17.152       -2.204      296.814      138.606      104.519    88098.417    19211.722    10924.130       14.385        5.912      411.724      130.646        0.101      349.351       29.713      857.922
09/16/2014  17:01:00     -536.824        0.214      -32.524      213.066      174.430       95.994    45396.961    30425.928     9214.919       18.712        4.252      536.824      107.480        0.040      349.261       29.557      857.913
09/16/2014  17:02:00     -618.486      -54.908      -37.525      186.851      161.431       97.232    34913.385    26059.849     9454.133       22.867        3.521      620.919       98.152        0.025      349.254       29.543      857.913
09/16/2014  17:03:00     -493.446     -127.546      -10.338      246.791      134.558       93.436    60905.864    18105.809     8730.244       17.379        4.387      509.663      116.861        0.053      349.287       29.601      857.895
09/16/2014  17:04:00     -584.051      -66.042      -49.182      201.854      148.473       84.681    40745.124    22044.211     7170.902       20.891        3.498      587.773       80.181        0.019      349.208       29.463      857.874
09/16/2014  17:05:00     -504.729      -61.450      -17.700      218.026      203.187       95.054    47535.444    41284.759     9035.220       17.833        4.893      508.456       94.917        0.035      349.233       29.507      857.848
09/16/2014  17:06:00     -412.169     -111.338      -15.326      190.794      149.085       82.642    36402.325    22226.293     6829.734       12.397        3.273      426.942       97.268        0.052      349.265       29.562      857.872
09/16/2014  17:07:00     -359.238      -80.528       -8.913      214.380      167.526      105.204    45958.986    28065.065    11067.793       11.034        4.255      368.153      118.797        0.104      349.230       29.502      857.861
09/16/2014  17:08:00     -480.534      -73.772      -11.229      211.826      173.617       88.676    44870.099    30142.944     7863.465       15.966        4.144      486.164      101.645        0.044      349.264       29.561      857.880
09/16/2014  17:09:00     -422.420      -91.166      -16.869      208.479      140.530       78.402    43463.285    19748.664     6146.813       12.818        3.468      432.146       92.646        0.046      349.254       29.543      857.895
09/16/2014  17:10:00     -321.925      -75.800      -26.125      168.822      142.047       82.510    28500.727    20177.337     6807.896        8.276        2.774      330.728       74.990        0.051      349.319       29.657      857.892
09/16/2014  17:11:00     -277.293      -91.947       -8.656      174.947      127.228       81.963    30606.420    16186.996     6717.853        6.946        2.676      292.140       80.612        0.076      349.298       29.620      857.897
09/16/2014  17:12:00     -347.527     -171.819       -7.164      197.004      134.691       88.809    38810.510    18141.735     7887.087       10.758        3.242      387.681       79.002        0.042      349.233       29.506      857.925
09/16/2014  17:13:00     -191.720      -94.048       25.882      227.435      195.964      105.163    51726.740    38401.887    11059.196        7.371        5.059      213.546      120.235        0.317      349.227       29.497      857.936
09/16/2014  17:14:00     -427.984     -193.604       -3.652      246.892      160.152       98.409    60955.791    25648.751     9684.290       15.846        4.814      469.737      116.224        0.061      349.123       29.315      857.938
09/16/2014  17:15:00     -182.947      -56.864        6.851      171.826      167.408       76.677    29524.267    28025.516     5879.365        5.008        3.171      191.581       62.405        0.106      349.208       29.464      857.974
09/16/2014  17:16:00     -354.162     -112.599       -6.535      284.572      221.367      112.701    80981.302    49003.501    12701.505       14.039        7.134      371.631      126.802        0.116      349.115       29.301      857.991
09/16/2014  17:17:00     -584.278     -123.315      -34.433      250.233      201.700      109.152    62616.455    40682.958    11914.071       23.647        5.761      597.149      120.748        0.041      349.060       29.208      857.992
09/16/2014  17:18:00     -370.783     -135.946      -17.217      265.716      235.297       82.598    70605.032    55364.449     6822.395       14.450        6.640      394.919       85.759        0.047      349.104       29.283      858.007
09/16/2014  17:19:00     -265.086     -102.217       -6.257      176.096      139.051       76.786    31009.642    19335.109     5896.070        6.849        2.812      284.111       78.650        0.077      349.154       29.370      858.003
09/16/2014  17:20:00     -362.903        3.624      -22.914      153.510      152.439       75.299    23565.464    23237.666     5669.873        9.234        2.624      362.921       68.829        0.036      349.160       29.381      857.972
09/16/2014  17:21:00     -471.886      -38.442      -15.308      270.134      172.415       90.563    72972.504    29726.964     8201.640       16.762        5.545      473.449      107.739        0.052      349.076       29.234      857.969
09/16/2014  17:22:00     -354.553     -119.413        3.891      199.340      195.176      110.461    39736.394    38093.780    12201.650       11.499        4.502      374.122      116.114        0.096      349.069       29.221      857.960
09/16/2014  17:23:00     -532.309     -196.320      -14.068      221.095      163.660       88.966    48883.182    26784.455     7915.034       20.282        4.179      567.357       95.449        0.028      349.008       29.117      857.986
09/16/2014  17:24:00     -403.176      -43.748      -11.469      160.593      155.017       79.855    25790.169    24030.352     6376.871       11.039        2.810      405.542       81.975        0.041      349.029       29.154      858.008
09/16/2014  17:25:00     -333.431      -77.124       -9.434      183.473      119.786       77.825    33662.261    14348.747     6056.790        8.563        2.703      342.235       67.315        0.039      349.039       29.172      857.995
09/16/2014  17:26:00     -307.737      -37.862       10.577      246.411      164.801       92.585    60718.602    27159.252     8571.988        9.633        4.822      310.057      125.094        0.163      349.070       29.226      857.964
09/16/2014  17:27:00     -455.314     -204.771      -18.089      166.759      181.574       94.048    27808.423    32969.157     8845.068       15.958        3.481      499.242       92.268        0.034      348.960       29.034      857.936
09/16/2014  17:28:00     -276.938     -126.880       -4.218      164.860      145.083       72.925    27178.899    21048.939     5317.998        7.317        2.677      304.620       73.591        0.058      349.009       29.120      857.940
09/16/2014  17:29:00     -207.806      -44.525        4.654      143.335       79.987       45.949    20544.886     6397.869     2111.318        3.711        1.453      212.522       61.600        0.084      349.060       29.209      857.961
09/16/2014  17:30:00     -181.605     -102.981        1.289      125.841      110.963       56.806    15835.962    12312.733     3226.900        3.747        1.569      208.771       66.242        0.101      349.037       29.167      857.956
09/16/2014  17:31:00     -492.032      -95.176      -25.740      227.322      108.653       73.945    51675.098    11805.388     5467.905       16.037        3.447      501.153       80.231        0.026      348.953       29.020      857.943
09/16/2014  17:32:00     -334.265      -98.083      -38.131      159.326       94.730       64.673    25384.791     8973.721     4182.578        8.067        1.927      348.359       69.952        0.040      348.946       29.010      857.944
09/16/2014  17:33:00     -395.519      -31.498      -34.435      150.355      128.863       67.486    22606.489    16605.737     4554.386       10.118        2.188      396.771       65.573        0.027      348.868       28.875      857.942
09/16/2014  17:34:00     -396.187      -26.564      -22.257      140.702      163.549       66.669    19797.101    26748.421     4444.815       10.457        2.550      397.076       60.456        0.023      348.841       28.827      857.951
09/16/2014  17:35:00     -445.867     -141.380      -18.664      166.193      153.566       79.712    27620.163    23582.387     6354.074       13.833        2.878      467.745       57.014        0.015      348.788       28.736      857.950
09/16/2014  17:36:00     -424.741     -109.234        3.548      282.159      170.848       95.641    79613.633    29189.119     9147.169       15.513        5.897      438.562      129.385        0.087      348.731       28.639      857.943
09/16/2014  17:37:00     -375.343      -72.446      -22.910      200.810      157.114       89.862    40324.784    24684.842     8075.115       10.986        3.654      382.271      102.982        0.073      348.738       28.649      857.933
09/16/2014  17:38:00     -167.010      -42.743       37.100      186.923      149.730       74.293    34940.323    22419.051     5519.393        4.697        3.144      172.393       88.948        0.266      348.759       28.687      857.954
09/16/2014  17:39:00     -455.887     -168.807      -12.103      226.889      174.001       93.997    51478.626    30276.334     8835.450       16.352        4.530      486.137      103.672        0.045      348.674       28.539      857.971
09/16/2014  17:40:00     -516.108     -190.896      -22.784      255.142      193.495       91.959    65097.358    37440.502     8456.436       20.714        5.550      550.281      101.004        0.034      348.621       28.446      857.971
09/16/2014  17:41:00     -488.998     -235.830      -13.400      173.994      161.525       85.222    30274.017    26090.172     7262.756       17.926        3.181      542.895       86.127        0.025      348.593       28.397      857.970
09/16/2014  17:42:00     -382.267     -111.295      -15.475      177.749      137.396       81.522    31594.555    18877.726     6645.808       10.792        2.856      398.139       86.114        0.047      348.565       28.349      857.971
09/16/2014  17:43:00     -334.600      -96.619      -22.555      156.781      124.204       68.617    24580.371    15426.720     4708.254        8.325        2.236      348.270       78.754        0.051      348.565       28.349      857.994
09/16/2014  17:44:00     -552.500     -134.703      -23.749      176.640      181.148       82.887    31201.771    32814.438     6870.256       19.741        3.544      568.683       81.327        0.020      348.526       28.282      857.975
09/16/2014  17:45:00     -486.789     -142.408      -14.919      264.843      206.514      111.110    70141.551    42647.969    12345.470       19.128        6.257      507.192      120.210        0.056      348.492       28.224      857.960
09/16/2014  17:46:00     -315.789     -141.442       -8.690      198.802      160.397       82.916    39522.303    25727.230     6875.083        9.595        3.606      346.018       89.473        0.067      348.508       28.252      857.954
09/16/2014  17:47:00     -352.052     -181.270      -16.004      167.887      155.003       92.159    28185.955    24025.816     8493.329       10.887        3.035      395.979       97.452        0.061      348.487       28.215      857.989
09/16/2014  17:48:00     -436.938     -135.267       -6.346      260.052      223.104       97.531    67627.022    49775.538     9512.392       16.806        6.346      457.397      116.183        0.065      348.460       28.170      858.002
09/16/2014  17:49:00     -264.228     -125.775        6.737      244.930      163.876      105.774    59990.766    26855.267    11188.150        9.184        4.902      292.636      128.159        0.192      348.457       28.166      858.026
09/16/2014  17:50:00     -333.653     -100.077       -9.569      163.251      123.464       80.058    26650.931    15243.323     6409.303        8.486        2.415      348.339       73.792        0.045      348.465       28.178      858.060
09/16/2014  17:51:00     -388.202      -57.753      -22.590      209.965      129.557       80.430    44085.253    16784.887     6468.926       11.093        3.367      392.474       90.825        0.054      348.464       28.176      858.085
09/16/2014  17:52:00     -343.343     -119.628      -10.757      208.726      164.854       85.243    43566.738    27176.826     7266.291       10.514        3.900      363.587       95.406        0.069      348.475       28.197      858.057
09/16/2014  17:53:00     -498.370     -134.524       -1.187      296.128      218.919      104.640    87691.559    47925.318    10949.428       20.649        7.328      516.207      128.232        0.062      348.457       28.163      858.062
09/16/2014  17:54:00     -550.164      -42.563      -33.327      232.233      166.372       89.174    53932.355    27679.524     7951.925       19.757        4.478      551.808       96.934        0.031      348.459       28.168      858.098
09/16/2014  17:55:00     -210.159     -139.690       12.852      153.269      188.253       87.724    23491.505    35439.263     7695.480        6.522        3.331      252.349       87.896        0.121      348.498       28.236      858.114
09/16/2014  17:56:00     -279.365      -86.712       -1.869      218.452      178.064      106.522    47721.103    31706.857    11346.835        8.815        4.539      292.513      121.071        0.171      348.483       28.209      858.109
09/16/2014  17:57:00     -306.774      -90.621        2.691      231.470      127.469       81.699    53578.453    16248.373     6674.730        8.940        3.825      319.878       69.286        0.047      348.473       28.192      858.125
09/16/2014  17:58:00     -180.909     -115.795       11.064      204.025      170.141      112.596    41626.203    28947.917    12677.833        6.474        4.163      214.794      122.522        0.325      348.494       28.229      858.146
09/16/2014  17:59:00     -339.980     -191.768       -2.500      269.365      185.111      101.704    72557.690    34265.984    10343.763       13.474        5.858      390.335      121.532        0.097      348.459       28.168      858.143
09/16/2014  18:00:00     -402.988     -211.626      -10.081      269.354      214.703      126.840    72551.325    46097.340    16088.341       17.098        6.737      455.175      136.636        0.090      348.405       28.074      858.164
09/16/2014  18:01:00     -450.127     -230.270      -23.368      210.424      147.939       92.906    44278.445    21885.863     8631.558       16.548        3.740      505.607       96.386        0.036      348.412       28.085      858.194
09/16/2014  18:02:00     -268.084     -136.906       -2.535      215.593      139.011       93.561    46480.442    19323.939     8753.742        8.257        3.728      301.019       86.473        0.083      348.439       28.134      858.208
09/16/2014  18:03:00     -508.603     -117.630      -24.083      182.766      185.010       98.678    33403.549    34228.656     9737.299       17.522        3.868      522.029       89.936        0.030      348.412       28.086      858.206
09/16/2014  18:04:00     -404.016      -97.376        2.877      241.149      148.724      112.721    58152.986    22118.730    12706.026       13.283        4.649      415.586      138.754        0.111      348.386       28.040      858.216
09/16/2014  18:05:00     -463.994     -226.707      -22.814      234.958      223.847      104.734    55205.376    50107.379    10969.273       19.172        5.814      516.417      105.527        0.042      348.350       27.977      858.208
09/16/2014  18:06:00     -300.738      -84.019        9.590      196.335      142.211       79.529    38547.446    20224.071     6324.845        8.133        3.255      312.254       93.258        0.089      348.358       27.992      858.202
09/16/2014  18:07:00     -462.388     -109.034      -44.183      235.119      165.359       91.135    55280.885    27343.641     8305.676       15.927        4.547      475.070       95.920        0.041      348.341       27.962      858.202
09/16/2014  18:08:00     -366.013      -60.223        3.432      240.316      175.336       91.076    57751.563    30742.588     8294.842       11.718        4.839      370.934      105.619        0.081      348.292       27.878      858.199
09/16/2014  18:09:00     -399.022       25.738       -5.665      268.093      182.951       93.426    71873.770    33471.205     8728.432       13.697        5.704      399.851      118.160        0.087      348.306       27.901      858.178
09/16/2014  18:10:00     -567.886     -118.780      -46.014      241.632      170.567       96.140    58386.179    29093.235     9242.993       21.770        4.836      580.175      105.863        0.033      348.252       27.808      858.172
09/16/2014  18:11:00     -186.605      -81.236        4.732      176.090      145.740       91.402    31007.643    21240.058     8354.348        5.101        3.030      203.521       90.569        0.198      348.290       27.875      858.181
09/16/2014  18:12:00     -308.218     -161.498      -17.936      170.079      138.831       77.732    28926.904    19273.954     6042.318        8.781        2.712      347.965       77.336        0.049      348.264       27.829      858.171
09/16/2014  18:13:00     -352.493     -111.154      -22.089      171.113      167.646       84.651    29279.598    28105.133     7165.860       10.081        3.228      369.603       77.537        0.044      348.257       27.819      858.177
09/16/2014  18:14:00     -431.701     -159.001      -15.882      222.249      163.768       92.368    49394.629    26820.118     8531.930       14.831        4.237      460.051      105.125        0.052      348.254       27.813      858.203
09/16/2014  18:15:00     -383.627      -57.988      -14.435      216.295      163.627       84.188    46783.736    26773.867     7087.701       11.568        4.032      387.985      100.320        0.067      348.248       27.803      858.218
09/16/2014  18:16:00     -294.507     -141.477       -0.587      196.685      158.320       88.158    38684.814    25065.341     7771.863        8.912        3.576      326.726       93.889        0.083      348.250       27.805      858.219
09/16/2014  18:17:00     -225.454      -48.827       20.304      213.706      141.298       84.425    45670.203    19965.031     7127.590        6.318        3.638      230.681       83.359        0.131      348.246       27.799      858.198
09/16/2014  18:18:00     -307.023     -141.370        3.431      177.515      143.381       75.217    31511.461    20558.174     5657.586        8.598        2.886      338.007       74.982        0.049      348.235       27.780      858.222
09/16/2014  18:19:00     -170.952     -114.703       22.105      215.017      140.847       82.046    46232.305    19837.901     6731.530        5.782        3.640      205.867      106.227        0.266      348.242       27.793      858.239
09/16/2014  18:20:00     -178.829      -70.805        5.604      134.110      126.100       68.583    17985.598    15901.330     4703.593        3.780        1.930      192.336       59.498        0.096      348.228       27.769      858.223
09/16/2014  18:21:00     -338.670     -119.773      -16.225      218.424      162.576       84.768    47708.902    26431.104     7185.613       10.530        4.066      359.226       72.969        0.041      348.208       27.735      858.210
09/16/2014  18:22:00     -282.147     -112.017       -0.969      150.667      143.261       65.188    22700.503    20523.689     4249.465        6.981        2.374      303.569       66.585        0.048      348.217       27.748      858.240
09/16/2014  18:23:00     -418.312     -198.052      -15.887      153.964      132.552       72.818    23705.052    17570.164     5302.420       13.051        2.329      462.827       72.202        0.024      348.183       27.692      858.250
09/16/2014  18:24:00     -439.784      -61.833      -12.173      261.614      148.760      104.364    68441.875    22129.399    10891.828       14.940        5.073      444.109      115.690        0.068      348.169       27.665      858.250
09/16/2014  18:25:00     -521.689     -178.059      -33.911      271.932      170.865       88.598    73946.889    29194.970     7849.579       20.798        5.550      551.239      114.274        0.043      348.161       27.652      858.249
09/16/2014  18:26:00     -400.418     -161.576       -6.530      253.376      233.338       97.782    64199.233    54446.731     9561.288       15.732        6.410      431.789      109.275        0.064      348.144       27.622      858.246
09/16/2014  18:27:00     -485.554     -192.002      -11.401      301.180      162.475       84.026    90709.621    26398.066     7060.337       19.844        6.208      522.138      100.819        0.037      348.133       27.604      858.225
09/16/2014  18:28:00     -314.115     -107.505       -7.639      161.842       98.248       75.298    26192.764     9652.572     5669.829        7.589        2.076      332.003       74.143        0.050      348.151       27.634      858.244
09/16/2014  18:29:00     -304.329      -81.401       -2.396      184.685      140.953       74.977    34108.452    19867.826     5621.617        7.941        2.980      315.027       71.544        0.052      348.132       27.600      858.256
09/16/2014  18:30:00     -404.692      -89.929      -26.510      162.960      122.216       73.281    26556.020    14936.774     5370.122       10.971        2.343      414.564       57.489        0.019      348.113       27.567      858.207
09/16/2014  18:31:00     -457.244     -178.682      -12.937      250.357      202.089      108.031    62678.454    40839.979    11670.609       17.815        5.759      490.917      121.961        0.062      348.078       27.508      858.192
09/16/2014  18:32:00     -348.160     -152.082      -16.955      180.060      143.583       78.010    32421.495    20616.083     6085.556       10.187        2.956      379.927       69.301        0.033      348.091       27.530      858.228
09/16/2014  18:33:00     -215.659      -76.363        6.443      139.575       93.742       53.630    19481.316     8787.591     2876.160        4.176        1.557      228.780       60.029        0.069      348.084       27.518      858.243
09/16/2014  18:34:00     -312.481      -34.556       -5.429      156.006      116.264       58.300    24338.024    13517.269     3398.852        7.005        2.063      314.386       70.293        0.050      348.079       27.508      858.231
09/16/2014  18:35:00     -228.287      -82.546       -1.905      149.315       95.863       59.395    22294.935     9189.638     3527.740        4.697        1.751      242.752       69.266        0.081      348.080       27.511      858.228
09/16/2014  18:36:00     -324.103     -118.040      -27.347      163.098      117.523       64.037    26600.841    13811.734     4100.785        8.211        2.226      344.929       74.270        0.046      348.053       27.464      858.218
09/16/2014  18:37:00     -210.895     -179.071        5.622      185.918      118.049       86.738    34565.430    13935.472     7523.477        6.629        2.801      276.664      101.297        0.134      348.051       27.462      858.202
09/16/2014  18:38:00     -434.491     -262.200      -12.050      206.420      175.005       85.800    42609.212    30626.760     7361.700       16.912        4.030      507.476       92.007        0.033      348.027       27.420      858.181
09/16/2014  18:39:00     -514.827     -207.457      -51.274      155.008      172.334       86.972    24027.378    29699.005     7564.077       18.599        3.065      555.055       81.539        0.022      348.011       27.392      858.174
09/16/2014  18:40:00     -368.886     -171.889        0.327      187.463      192.767       91.947    35142.309    37158.943     8454.253       12.317        4.038      406.967       86.850        0.046      347.995       27.364      858.166
09/16/2014  18:41:00     -338.377     -147.755      -20.745      222.818      149.611       79.773    49647.811    22383.583     6363.809       10.756        3.920      369.229       84.923        0.053      348.005       27.382      858.166
09/16/2014  18:42:00     -277.522     -161.870        2.516      193.200      162.155       88.404    37326.425    26294.267     7815.238        8.732        3.572      321.279       94.152        0.086      347.968       27.319      858.174
09/16/2014  18:43:00     -311.667     -183.970      -13.247      216.659      157.021       80.146    46941.047    24655.609     6423.435       10.457        3.901      361.913      100.160        0.077      347.969       27.322      858.176
09/16/2014  18:44:00     -281.544     -131.845       11.340      213.921      147.003       97.881    45762.234    21609.767     9580.726        8.685        3.848      310.886      100.537        0.105      347.965       27.313      858.163
09/16/2014  18:45:00     -460.216     -248.389       -8.615      211.181      167.479       99.896    44597.469    28049.314     9979.275       17.808        4.131      522.968      114.356        0.048      347.956       27.297      858.169
09/16/2014  18:46:00     -289.113     -125.498       -0.141      160.490      115.799       68.052    25757.171    13409.314     4631.132        7.156        2.190      315.176       82.035        0.068      347.960       27.306      858.219
09/16/2014  18:47:00     -213.437      -98.586       12.112      170.527      118.552       76.476    29079.614    14054.646     5848.623        5.219        2.449      235.105       87.552        0.139      347.937       27.267      858.218
09/16/2014  18:48:00     -176.466     -127.335       -1.068      107.223      110.497       52.163    11496.788    12209.576     2721.019        3.689        1.321      217.611       49.847        0.052      347.937       27.265      858.208
09/16/2014  18:49:00      -60.964      -26.852       19.305       94.634       87.521       54.577     8955.667     7660.005     2978.691        1.220        0.980       66.616       56.503        0.719      347.904       27.211      858.208
09/16/2014  18:50:00     -289.145     -255.763      -20.904      171.592      147.087       87.175    29443.953    21634.669     7599.554       10.406        2.934      386.031       78.727        0.042      347.935       27.261      858.196
09/16/2014  18:51:00     -469.687     -308.102      -18.177      215.322      163.743      110.009    46363.633    26811.743    12101.902       20.055        4.264      561.723      112.769        0.040      347.892       27.187      858.162
09/16/2014  18:52:00     -334.082     -191.607      -17.283      228.881      169.491       87.760    52386.368    28727.257     7701.834       11.870        4.441      385.128      109.914        0.081      347.886       27.176      858.174
09/16/2014  18:53:00     -418.173     -169.902       -7.380      313.862      211.712      111.397    98509.651    44821.797    12409.390       17.973        7.787      451.371      136.799        0.092      347.854       27.122      858.145
09/16/2014  18:54:00     -291.462     -262.779        1.663      274.627      168.897      119.884    75420.036    28526.343    14372.101       13.614        5.916      392.432      150.500        0.147      347.842       27.099      858.142
09/16/2014  18:55:00     -297.405     -167.204      -18.868      182.252      146.925       81.941    33215.777    21586.832     6714.375        8.913        3.076      341.184       89.103        0.068      347.854       27.122      858.139
09/16/2014  18:56:00     -286.813     -117.645        7.785      208.563      196.861       93.515    43498.492    38754.342     8745.074        9.356        4.550      310.003      105.634        0.116      347.831       27.080      858.125
09/16/2014  18:57:00     -347.428     -190.562      -16.222      195.547      205.734      103.513    38238.518    42326.472    10714.985       12.426        4.564      396.257       95.147        0.058      347.830       27.080      858.124
09/16/2014  18:58:00     -428.844     -161.187      -13.316      285.598      183.911       95.631    81566.008    33823.195     9145.256       16.728        6.227      458.136      132.370        0.083      347.813       27.051      858.132
09/16/2014  18:59:00     -367.882     -227.664       -0.989      216.313      215.412       95.854    46791.252    46402.439     9187.976       14.476        5.119      432.630       99.612        0.053      347.820       27.062      858.110
09/16/2014  19:00:00     -484.726     -134.501       -7.820      210.915      199.814       90.273    44484.969    39925.730     8149.304       17.282        4.628      503.041      101.717        0.041      347.812       27.048      858.104
09/16/2014  19:01:00     -362.370     -140.622      -15.088      178.526      151.302       81.016    31871.481    22892.212     6563.640       10.631        3.066      388.698       73.791        0.036      347.800       27.027      858.154
09/16/2014  19:02:00     -346.442     -129.865       -4.674      220.623      172.577       82.765    48674.383    29782.847     6850.055       11.109        4.265      369.982       88.228        0.057      347.783       26.999      858.176
09/16/2014  19:03:00     -226.653     -138.945      -12.163      209.744      172.102      100.237    43992.519    29619.119    10047.461        7.723        4.183      265.852      108.858        0.168      347.772       26.981      858.165
09/16/2014  19:04:00     -384.119     -231.727      -15.958      262.944      184.792      109.101    69139.396    34148.034    11902.980       15.832        5.760      448.603      115.738        0.067      347.745       26.935      858.157
09/16/2014  19:05:00     -443.193     -233.099      -37.428      218.551      158.407       92.987    47764.488    25092.686     8646.490       16.681        4.075      500.755       81.115        0.026      347.750       26.943      858.170
09/16/2014  19:06:00     -364.638     -191.537      -20.809      209.250      140.976       86.921    43785.639    19874.135     7555.295       12.063        3.561      411.882       90.418        0.048      347.719       26.889      858.178
09/16/2014  19:07:00     -284.877     -213.572        4.131      181.067      145.703       95.360    32785.423    21229.245     9093.448        9.493        3.155      356.044      102.044        0.082      347.700       26.855      858.201
09/16/2014  19:08:00     -255.495     -149.519       -5.343      127.307       95.006       65.906    16207.120     9026.058     4343.623        5.861        1.479      296.030       67.122        0.051      347.682       26.824      858.220
09/16/2014  19:09:00     -267.030     -182.425      -14.079      130.663       89.904       61.043    17072.784     8082.787     3726.265        6.683        1.444      323.395       59.954        0.034      347.679       26.819      858.196
09/16/2014  19:10:00     -411.406     -287.383       -3.918      179.852      148.395       95.322    32346.762    22021.050     9086.197       15.764        3.173      501.840       94.543        0.035      347.638       26.748      858.184
09/16/2014  19:11:00     -343.326     -200.698       -8.643      190.018      164.405       78.679    36106.956    27029.111     6190.316       11.376        3.466      397.684       98.477        0.061      347.617       26.714      858.188
09/16/2014  19:12:00     -213.129     -139.724        7.267      173.981      169.145      106.311    30269.421    28609.983    11302.017        6.758        3.509      254.847      103.277        0.164      347.590       26.668      858.164
09/16/2014  19:13:00     -300.071     -178.495      -19.251      169.701      155.005       95.044    28798.434    24026.467     9033.445        9.205        3.093      349.146       83.603        0.057      347.595       26.675      858.170
09/16/2014  19:14:00     -408.235     -232.264      -19.998      214.915      161.443       90.035    46188.484    26063.851     8106.322       15.066        4.018      469.684       93.135        0.039      347.584       26.656      858.198
09/16/2014  19:15:00     -409.485     -254.280        0.381      265.730      207.389      116.462    70612.684    43010.045    13563.360       17.974        6.359      482.013      141.798        0.087      347.574       26.638      858.180
09/16/2014  19:16:00     -429.448     -259.140       -7.292      204.120      175.116       82.911    41664.933    30665.502     6874.166       16.540        3.960      501.577       74.123        0.022      347.588       26.663      858.213
09/16/2014  19:17:00     -407.185     -276.080      -20.861      206.720      147.442       94.634    42733.137    21739.009     8955.665       15.793        3.671      491.955       97.030        0.039      347.572       26.636      858.225
09/16/2014  19:18:00     -385.301     -222.477       -1.777      186.547      128.675      101.022    34799.916    16557.383    10205.544       12.975        3.078      444.919      104.375        0.055      347.559       26.615      858.240
09/16/2014  19:19:00     -410.449     -183.214      -25.806      158.319      121.409       71.619    25064.825    14740.109     5129.336       12.381        2.247      449.484       77.896        0.030      347.562       26.617      858.256
09/16/2014  19:20:00     -267.743     -112.941       -0.808      168.633      124.568       82.848    28437.093    15517.263     6863.838        6.762        2.541      290.590       79.717        0.075      347.542       26.585      858.251
09/16/2014  19:21:00     -414.063     -206.286      -31.193      177.160      150.488       72.501    31385.760    22646.624     5256.448       13.712        2.964      462.604       70.667        0.023      347.528       26.557      858.279
09/16/2014  19:22:00     -538.885     -235.240      -33.195      260.046      204.699      110.016    67624.092    41901.786    12103.440       23.421        6.081      587.993      138.679        0.056      347.516       26.538      858.266
09/16/2014  19:23:00     -273.750     -111.246       18.530      225.216      148.101       88.014    50722.311    21933.986     7746.431        8.401        4.020      295.491      101.259        0.117      347.493       26.499      858.256
09/16/2014  19:24:00     -485.108     -234.961        0.623      248.077      216.097      108.675    61542.418    46698.079    11810.343       20.527        6.003      539.015      131.148        0.059      347.493       26.498      858.258
09/16/2014  19:25:00     -452.556     -235.641      -24.384      229.321      232.046      107.697    52588.044    53845.481    11598.693       18.946        5.902      510.229      114.331        0.050      347.485       26.485      858.261
09/16/2014  19:26:00     -335.623     -202.454       -0.418      235.653      164.388      101.550    55532.336    27023.554    10312.368       12.323        4.643      391.957      109.050        0.077      347.454       26.429      858.292
09/16/2014  19:27:00     -372.792     -279.993      -11.344      247.770      223.061      114.000    61389.944    49756.113    12996.107       17.080        6.207      466.229      129.981        0.078      347.462       26.445      858.300
09/16/2014  19:28:00     -583.655     -260.803      -25.931      266.843      180.664      101.100    71205.436    32639.507    10221.304       26.168        5.703      639.274      111.807        0.031      347.454       26.430      858.312
09/16/2014  19:29:00     -527.156     -271.768      -21.317      214.816      193.146      100.563    46146.062    37305.196    10112.940       22.287        4.678      593.086      100.919        0.029      347.457       26.435      858.350
09/16/2014  19:30:00     -320.779     -284.718      -12.439      238.528      179.559      118.514    56895.811    32241.446    14045.593       14.363        5.159      428.909      133.994        0.098      347.440       26.406      858.333
09/16/2014  19:31:00     -358.559     -214.073       -4.052      212.908      166.945      100.205    45329.643    27870.604    10041.141       12.881        4.162      417.602      119.340        0.082      347.431       26.390      858.356
09/16/2014  19:32:00     -271.610     -199.548        0.446      232.983      156.912       91.009    54280.861    24621.316     8282.717       10.037        4.359      337.033      108.552        0.104      347.433       26.394      858.360
09/16/2014  19:33:00     -256.801     -163.986        9.669      153.836      152.582       78.634    23665.505    23281.169     6183.269        7.302        2.656      304.693       92.566        0.092      347.427       26.384      858.364
09/16/2014  19:34:00     -239.687     -121.825       -2.640      188.437      123.332       73.703    35508.503    15210.729     5432.184        6.421        2.808      268.871       88.039        0.107      347.408       26.351      858.349
09/16/2014  19:35:00     -275.297     -165.361        3.449      168.534      128.505       73.635    28403.611    16513.556     5422.150        7.673        2.517      321.142       85.368        0.071      347.390       26.320      858.356
09/16/2014  19:36:00     -423.359     -303.672      -27.591      224.929      186.170      112.509    50592.934    34659.276    12658.218       18.504        4.896      521.009      112.968        0.047      347.416       26.364      858.319
09/16/2014  19:37:00     -488.396     -247.956       -7.361      295.976      211.887      104.514    87601.517    44895.938    10923.073       22.171        7.171      547.734      121.664        0.049      347.431       26.391      858.326
09/16/2014  19:38:00     -466.677     -203.000       -9.258      245.744      198.768      113.662    60390.337    39508.875    12918.987       18.593        5.641      508.917      129.742        0.065      347.407       26.349      858.321
09/16/2014  19:39:00     -426.618     -196.578       15.626      287.664      193.586       96.267    82750.561    37475.681     9267.290       17.517        6.475      469.729      116.206        0.061      347.380       26.304      858.354
09/16/2014  19:40:00     -379.026     -103.891       19.201      320.044      201.324      102.703   102427.909    40531.496    10547.864       15.413        7.675      393.007      135.544        0.119      347.347       26.248      858.368
09/16/2014  19:41:00     -403.930     -190.095       -4.581      219.014      163.758      107.457    47967.057    26816.827    11547.112       14.281        4.317      446.425      122.484        0.075      347.349       26.250      858.367
09/16/2014  19:42:00     -480.870     -260.052      -21.359      237.310      216.963      115.017    56315.932    47072.857    13228.818       20.795        5.831      546.684      112.901        0.043      347.341       26.235      858.331
09/16/2014  19:43:00     -332.818     -104.396        9.418      225.304      177.871       99.257    50761.894    31638.114     9851.937       10.699        4.613      348.807      107.567        0.095      347.314       26.191      858.347
09/16/2014  19:44:00     -383.262     -231.850       -2.636      249.875      193.440      100.946    62437.671    37419.007    10190.012       15.533        5.502      447.933      120.961        0.073      347.311       26.185      858.343
09/16/2014  19:45:00     -430.158     -144.401      -15.234      230.706      185.080      100.118    53225.306    34254.423    10023.623       15.179        4.875      453.748      112.040        0.061      347.312       26.187      858.349
09/16/2014  19:46:00     -453.309     -183.864      -24.990      220.235      185.290      101.493    48503.558    34332.379    10300.840       16.651        4.657      489.178      117.312        0.058      347.315       26.191      858.335
09/16/2014  19:47:00     -391.564     -183.516       -3.753      262.235      178.801      109.562    68767.180    31969.656    12003.782       14.986        5.637      432.435      127.931        0.088      347.350       26.254      858.346
09/16/2014  19:48:00     -280.029     -241.474        4.812      260.773      178.944      127.600    68002.674    32021.015    16281.661       12.650        5.815      369.765      151.139        0.167      347.367       26.282      858.376
09/16/2014  19:49:00     -454.114     -227.162      -23.020      257.397      183.802       89.524    66252.972    33783.263     8014.559       18.318        5.403      507.762      109.432        0.046      347.336       26.228      858.418
09/16/2014  19:50:00     -357.703     -149.384       -6.122      181.200      162.354       88.576    32833.503    26358.808     7845.657       10.866        3.352      387.643       78.496        0.041      347.320       26.201      858.467
09/16/2014  19:51:00     -370.649     -137.390      -10.836      264.166      255.822      106.627    69783.701    65444.804    11369.387       15.146        7.330      395.293      114.510        0.084      347.284       26.139      858.435
09/16/2014  19:52:00     -279.265      -77.178       16.496      248.708      172.653       98.043    61855.454    29809.179     9612.480        9.273        5.064      289.734      115.256        0.158      347.265       26.104      858.496
09/16/2014  19:53:00     -427.550     -220.094       17.863      283.558      237.746      114.140    80405.385    56523.064    13028.046       19.073        7.498      480.875      137.137        0.081      347.290       26.148      858.483
09/16/2014  19:54:00     -346.242     -184.167       -5.265      280.716      178.608      103.365    78801.598    31900.953    10684.307       13.758        6.069      392.175      134.875        0.118      347.435       26.400      858.528
09/16/2014  19:55:00     -225.166     -179.529      -10.353      177.093      122.377       72.522    31361.944    14976.101     5259.458        6.731        2.580      287.976       66.519        0.053      347.314       26.191      858.500
09/16/2014  19:56:00     -378.684     -272.441        5.236      311.384      275.019      145.651    96959.742    75635.402    21214.088       20.569        9.690      466.504      167.652        0.129      347.225       26.037      858.465
09/16/2014  19:57:00     -330.905     -236.790       10.321      210.391      220.460      112.012    44264.291    48602.728    12546.675       13.552        5.271      406.900      123.069        0.091      347.225       26.035      858.525
09/16/2014  19:58:00     -395.251     -305.363       -4.554      249.931      189.510      121.924    62465.660    35913.962    14865.403       18.135        5.662      499.470      130.225        0.068      347.220       26.029      858.521
09/16/2014  19:59:00     -362.344     -204.044      -10.413      194.079      151.893       89.007    37666.525    23071.622     7922.276       12.083        3.433      415.845       84.511        0.041      347.203       25.999      858.556
09/16/2014  20:00:00     -414.075     -155.732       15.254      222.442      190.215      101.133    49480.660    36181.683    10227.923       14.590        4.795      442.391      113.595        0.066      347.210       26.011      858.578
09/16/2014  20:01:00     -440.813     -279.733        5.008      196.325      166.799       89.960    38543.618    27821.815     8092.721       17.351        3.723      522.079       97.303        0.035      347.216       26.022      858.620
09/16/2014  20:02:00     -303.021     -185.969       13.196      219.738      139.431       94.296    48284.960    19440.984     8891.792       10.158        3.831      355.536      105.635        0.088      347.183       25.964      858.602
09/16/2014  20:03:00     -340.787     -258.847       -0.655      192.166      153.202       92.295    36927.903    23470.946     8518.403       12.601        3.446      427.946      108.590        0.064      347.175       25.951      858.577
09/16/2014  20:04:00     -454.926     -287.379      -34.153      210.721      172.991      101.069    44403.512    29925.940    10214.933       18.761        4.227      538.094      108.246        0.040      347.177       25.954      858.591
09/16/2014  20:05:00     -408.894     -166.865       -4.444      231.945      152.644       93.429    53798.487    23300.225     8729.055       14.043        4.291      441.631      115.509        0.068      347.176       25.953      858.628
09/16/2014  20:06:00     -485.446     -272.091      -19.641      242.600      214.054      108.506    58854.675    45818.921    11773.474       21.324        5.822      556.499      136.765        0.060      347.165       25.935      858.666
09/16/2014  20:07:00     -221.578     -190.058       -0.998      160.055      121.697       81.192    25617.719    14810.255     6592.106        6.611        2.351      291.923       79.790        0.075      347.141       25.891      858.628
09/16/2014  20:08:00     -302.384     -277.528       12.407      225.020      202.912      116.749    50634.115    41173.445    13630.333       13.700        5.272      410.436      125.190        0.093      347.190       25.976      858.623
09/16/2014  20:09:00     -343.993     -226.942       -3.523      209.074      182.100       90.343    43711.950    33160.228     8161.936       12.742        4.252      412.109       95.573        0.054      347.172       25.945      858.640
09/16/2014  20:10:00     -453.102     -293.166       -0.966      190.534      150.089       94.926    36303.180    22526.844     9010.977       17.953        3.392      539.673       96.915        0.032      347.164       25.931      858.655
09/16/2014  20:11:00     -357.927     -267.222      -10.307      178.574      144.955       88.743    31888.791    21012.050     7875.275       13.019        3.039      446.676       93.559        0.044      347.152       25.912      858.641
09/16/2014  20:12:00     -368.990     -270.746      -23.214      187.097      172.504       91.080    35005.113    29757.542     8295.497       14.151        3.653      457.665       75.170        0.027      347.114       25.845      858.641
09/16/2014  20:13:00     -381.102     -174.614       -7.886      217.247      175.463       86.723    47196.143    30787.160     7520.890       13.063        4.275      419.200      104.080        0.062      347.051       25.736      858.654
09/16/2014  20:14:00     -474.570     -208.139      -17.595      208.378      198.243       93.567    43421.308    39300.438     8754.783       18.014        4.574      518.207      108.530        0.044      347.048       25.732      858.657
09/16/2014  20:15:00     -445.650     -147.269      -11.950      254.987      178.132      104.892    65018.210    31730.983    11002.421       16.407        5.388      469.353      123.570        0.069      347.056       25.746      858.663
09/16/2014  20:16:00     -444.654     -183.509       -5.000      196.192      167.243       90.916    38491.338    27970.306     8265.780       15.306        3.736      481.033       83.702        0.030      347.060       25.752      858.656
09/16/2014  20:17:00     -258.423     -117.265        2.956      164.759      125.037       88.199    27145.676    15634.266     7779.096        6.554        2.528      283.784       84.994        0.090      347.045       25.727      858.582
09/16/2014  20:18:00     -206.321     -151.175       -3.886      165.111      126.755       78.397    27261.726    16066.934     6146.121        5.745        2.474      255.778       81.847        0.102      347.015       25.675      858.616
09/16/2014  20:19:00     -341.266     -142.405        0.925      212.463      172.222      102.321    45140.357    29660.376    10469.606       11.099        4.264      369.786      111.427        0.091      347.009       25.664      858.614
09/16/2014  20:20:00     -395.398     -310.811       -8.726      191.363      183.162      102.048    36619.897    33548.399    10413.843       16.678        4.029      502.934      112.035        0.050      347.025       25.693      858.635
09/16/2014  20:21:00     -256.199      -79.320       17.631      209.833      197.142      102.119    44030.062    38865.026    10428.245        8.276        4.666      268.197      116.395        0.188      346.980       25.614      858.635
09/16/2014  20:22:00     -405.390     -288.796      -26.846      213.339      201.944      102.313    45513.643    40781.568    10467.971       17.259        4.838      497.739      108.518        0.048      347.013       25.671      858.673
09/16/2014  20:23:00     -421.558     -262.282       -8.863      192.067      150.635      104.487    36889.669    22690.828    10917.439       15.853        3.525      496.490      110.975        0.050      346.965       25.590      858.679
09/16/2014  20:24:00     -281.120     -190.248       -6.725      174.260      112.835       75.556    30366.507    12731.760     5708.697        8.203        2.440      339.445       82.719        0.059      346.926       25.521      858.702
09/16/2014  20:25:00     -261.486     -149.925        4.229      127.901       97.694       62.324    16358.718     9544.110     3884.225        6.032        1.489      301.417       60.902        0.041      346.900       25.477      858.723
09/16/2014  20:26:00     -373.495     -211.797       -1.623      199.717      162.934       93.190    39886.693    26547.340     8684.354       12.972        3.756      429.367      103.495        0.058      346.888       25.455      858.710
09/16/2014  20:27:00     -484.963     -234.780      -20.825      334.617      187.956      114.087   111968.818    35327.586    13015.912       22.550        8.016      538.805      116.653        0.047      346.880       25.442      858.676
09/16/2014  20:28:00     -387.168     -168.476       -8.652      166.510      164.839       88.738    27725.496    27171.879     7874.348       12.055        3.139      422.236       74.944        0.032      346.914       25.500      858.738
09/16/2014  20:29:00     -237.347     -131.027      -13.979      191.613      140.691       91.539    36715.550    19793.965     8379.386        6.928        3.244      271.112       91.210        0.113      346.871       25.426      858.714
09/16/2014  20:30:00     -205.838     -114.243        1.686      157.559      131.979       77.728    24824.799    17418.584     6041.665        5.184        2.414      235.416       76.744        0.106      346.856       25.401      858.698
09/16/2014  20:31:00     -423.088     -114.950      -14.057      202.354      162.108       88.196    40947.217    26278.906     7778.559       13.369        3.750      438.426      102.605        0.055      346.846       25.383      858.727
09/16/2014  20:32:00     -341.185     -144.988       -2.864      174.140      144.391       78.359    30324.882    20848.779     6140.116        9.736        2.866      370.714       75.418        0.041      346.819       25.337      858.797
09/16/2014  20:33:00     -334.826     -217.983        0.106      216.509      197.445      104.360    46876.262    38984.514    10890.921       12.817        4.838      399.531      122.285        0.094      346.831       25.358      858.820
09/16/2014  20:34:00     -381.301     -200.944       -5.522      182.756      144.009       83.637    33399.881    20738.695     6995.105       12.345        3.057      431.009       94.166        0.048      346.837       25.369      858.807
09/16/2014  20:35:00     -244.084     -126.244      -21.982      197.047      122.716       83.235    38827.683    15059.295     6927.994        6.839        3.041      274.799       75.729        0.076      346.841       25.377      858.801
09/16/2014  20:36:00     -427.106     -105.949      -24.038      294.045      233.487      104.532    86462.175    54516.109    10926.987       17.303        7.595      440.051      107.912        0.060      346.825       25.347      858.771
09/16/2014  20:37:00     -456.048     -142.406      -22.690      213.114      193.166       93.928    45417.442    37313.069     8822.413       16.014        4.578      477.764      104.246        0.048      346.847       25.386      858.788
09/16/2014  20:38:00     -407.412     -205.907      -26.961      173.169      198.279       91.631    29987.674    39314.481     8396.272       14.339        3.885      456.489       84.213        0.034      346.842       25.377      858.791
09/16/2014  20:39:00     -369.663      -69.105      -14.236      226.833      124.456       86.498    51453.116    15489.194     7481.915       10.801        3.721      376.067      110.831        0.087      346.829       25.355      858.797
09/16/2014  20:40:00     -284.428     -129.925       -5.142      207.653      134.785       87.915    43119.779    18167.083     7729.123        8.340        3.451      312.698      103.921        0.110      346.809       25.322      858.782
09/16/2014  20:41:00     -374.623      -95.092      -12.179      161.237      147.225       78.931    25997.389    21675.246     6230.167       10.171        2.695      386.503       68.824        0.032      346.784       25.278      858.751
09/16/2014  20:42:00     -532.219     -189.266      -30.032      216.567      172.710       93.295    46901.125    29828.887     8703.957       20.269        4.272      564.871      113.308        0.040      346.774       25.258      858.743
09/16/2014  20:43:00     -469.865     -248.946      -26.662      173.357      207.151       81.421    30052.768    42911.698     6629.417       18.151        3.980      531.740       72.222        0.018      346.766       25.245      858.734
09/16/2014  20:44:00     -426.533      -90.509      -21.807      254.108      222.873       92.319    64571.029    49672.291     8522.889       15.666        6.138      436.030      112.963        0.067      346.760       25.235      858.705
09/16/2014  20:45:00     -472.762      -86.435      -17.945      220.675      144.454       95.110    48697.526    20866.887     9045.838       15.494        3.931      480.598      107.921        0.050      346.754       25.225      858.649
09/16/2014  20:46:00     -366.052      -95.526       -3.785      208.485      142.617       90.230    43465.989    20339.573     8141.392       10.753        3.597      378.311       98.915        0.068      346.760       25.235      858.620
09/16/2014  20:47:00     -422.999     -118.908       -8.460      280.574      167.113      100.645    78721.893    27926.740    10129.465       15.494        5.839      439.394      118.304        0.072      346.781       25.272      858.606
09/16/2014  20:48:00     -536.256     -224.950      -39.160      211.003      184.217       86.999    44522.446    33935.802     7568.792       21.285        4.301      581.526       79.983        0.019      346.796       25.296      858.527
09/16/2014  20:49:00     -446.058     -123.316      -34.742      205.836      131.477       81.347    42368.498    17286.154     6617.367       14.081        3.314      462.790       78.822        0.029      346.789       25.285      858.492
09/16/2014  20:50:00     -346.940     -250.736       -0.277      233.159      203.935      123.048    54363.345    41589.331    15140.770       14.714        5.555      428.060      133.447        0.097      346.794       25.295      858.502
09/16/2014  20:51:00     -532.868     -143.795        1.694      304.292      191.084      105.466    92593.691    36513.270    11123.095       22.240        7.012      551.929      139.187        0.064      346.881       25.445      858.437
09/16/2014  20:52:00     -407.731     -193.510       -6.817      261.123      205.440      103.634    68185.479    42205.579    10740.106       16.241        6.057      451.321      124.657        0.076      346.908       25.489      858.345
09/16/2014  20:53:00     -526.585      -90.127       -5.764      225.875      198.650      114.061    51019.477    39461.703    13009.934       19.445        5.175      534.242      116.733        0.048      346.856       25.402      858.346
09/16/2014  20:54:00     -518.820     -188.687      -30.689      246.066      179.881       91.742    60548.232    32357.102     8416.509       20.350        5.066      552.066      110.654        0.040      346.863       25.414      858.314
09/16/2014  20:55:00     -367.401     -161.722        9.354      281.131      190.098      110.143    79034.483    36137.064    12131.379       14.424        6.365      401.420      131.553        0.107      346.831       25.359      858.302
09/16/2014  20:56:00     -336.385     -148.292        5.796      240.630      170.263       97.018    57902.877    28989.435     9412.538       11.572        4.815      367.621      123.597        0.113      346.868       25.421      858.262
09/16/2014  20:57:00     -538.868     -157.500      -23.708      207.127      165.036       92.095    42901.485    27236.789     8481.404       19.717        3.931      561.413       89.603        0.025      346.873       25.429      858.255
09/16/2014  20:58:00     -309.008     -145.569        2.808      237.177      212.576      113.119    56253.048    45188.443    12795.979       11.544        5.712      341.579      129.263        0.143      346.832       25.360      858.273
09/16/2014  20:59:00     -568.413      -88.271      -20.760      246.608      232.674      100.962    60815.752    54137.158    10193.262       22.821        6.257      575.226       93.136        0.026      346.846       25.385      858.218
09/16/2014  21:00:00     -297.242     -154.879       -2.703      236.655      177.739       99.836    56005.791    31591.305     9967.208       10.494        4.878      335.172      107.229        0.102      346.852       25.395      858.240
09/16/2014  21:01:00     -261.116     -129.477        3.424      207.128      134.956       88.654    42902.100    18213.218     7859.587        7.695        3.449      291.455      102.106        0.123      346.850       25.392      858.223
09/16/2014  21:02:00     -345.995     -114.587       -9.211      229.148      155.725       87.005    52508.746    24250.395     7569.785       10.861        4.216      364.476       88.149        0.058      346.904       25.482      858.236
09/16/2014  21:03:00     -355.875      -67.299       -5.773      190.970      181.397       91.081    36469.671    32904.893     8295.769       10.442        3.884      362.183       81.251        0.050      346.924       25.518      858.227
09/16/2014  21:04:00     -362.588     -124.880        0.926      269.408      221.213      109.871    72580.443    48935.251    12071.574       14.030        6.679      383.490      129.025        0.113      346.911       25.496      858.207
09/16/2014  21:05:00     -448.857     -109.520      -25.850      251.482      175.461      103.869    63243.351    30786.626    10788.782       15.946        5.241      462.026      114.955        0.062      346.952       25.568      858.238
09/16/2014  21:06:00     -338.812     -215.436      -22.528      130.000      131.248       82.433    16900.006    17226.016     6795.182       10.131        2.046      401.505       70.913        0.031      346.980       25.615      858.293
09/16/2014  21:07:00     -155.266     -151.602       41.364      173.043      113.139       98.461    29943.780    12800.425     9694.507        5.061        2.622      217.004       98.978        0.208      346.947       25.559      858.287
09/16/2014  21:08:00     -386.123     -149.555      -17.719      195.126      167.657       85.330    38074.178    28108.713     7281.160       12.260        3.673      414.074       89.002        0.046      346.948       25.560      858.309
09/16/2014  21:09:00     -409.796     -278.494      -14.447      262.498      168.287      108.845    68904.947    28320.541    11847.299       17.736        5.454      495.471      126.412        0.065      346.928       25.526      858.317
09/16/2014  21:10:00     -224.286      -14.798       -1.578      186.103      145.121       84.942    34634.362    21060.122     7215.137        5.671        3.145      224.774       82.374        0.134      346.928       25.526      858.330
09/16/2014  21:11:00     -265.992     -179.585      -16.513      186.491      136.414       89.428    34778.851    18608.830     7997.347        8.232        3.069      320.940       95.888        0.089      346.932       25.532      858.404
09/16/2014  21:12:00     -456.675     -123.736      -29.063      194.640      139.948       85.864    37884.538    19585.509     7372.575       14.476        3.242      473.142       96.051        0.041      346.910       25.494      858.464
09/16/2014  21:13:00     -361.007     -112.916       -6.038      226.448      158.727       75.730    51278.888    25194.122     5735.055       11.264        4.110      378.254       96.582        0.065      346.870       25.425      858.440
09/16/2014  21:14:00     -406.493     -158.419      -12.253      271.239      209.702      104.766    73570.352    43974.837    10975.829       15.948        6.426      436.272      117.155        0.072      346.928       25.525      858.469
09/16/2014  21:15:00     -297.577     -245.649      -17.150      170.811      156.676       92.141    29176.522    24547.251     8490.053       10.569        3.111      385.869       89.719        0.054      346.929       25.527      858.520
09/16/2014  21:16:00     -422.431     -120.421      -13.277      250.922      128.396       89.804    62962.087    16485.644     8064.679       14.030        4.376      439.260       94.720        0.046      346.891       25.461      858.556
09/16/2014  21:17:00     -275.963     -184.678        5.009      182.832      125.353       72.521    33427.615    15713.448     5259.230        8.233        2.720      332.057       67.819        0.042      346.896       25.469      858.556
09/16/2014  21:18:00     -375.944     -181.799      -10.066      238.738      154.393       85.113    56995.670    23837.070     7244.306       13.126        4.404      417.594      101.344        0.059      346.896       25.470      858.561
09/16/2014  21:19:00     -336.533     -160.060      -20.382      192.273      185.918       81.863    36969.055    34565.647     6701.617       10.875        3.912      372.658       83.986        0.051      346.908       25.489      858.583
09/16/2014  21:20:00     -362.223     -146.468       -4.190      212.014      152.381       91.313    44949.762    23219.902     8338.025       11.458        3.825      390.715       89.412        0.052      346.893       25.464      858.566
09/16/2014  21:21:00     -327.915     -253.110       -2.837      199.807      165.050       97.253    39922.893    27241.408     9458.205       12.410        3.831      414.237       96.691        0.054      346.847       25.387      858.542
09/16/2014  21:22:00     -310.815     -112.687      -20.998      195.804      122.398       57.068    38339.082    14981.215     3256.800        8.315        2.829      330.612       65.931        0.040      346.876       25.436      858.553
09/16/2014  21:23:00     -406.945     -257.251      -18.901      185.435      132.099       84.451    34386.087    17450.256     7131.952       14.554        2.948      481.438       84.670        0.031      346.919       25.510      858.542
09/16/2014  21:24:00     -200.065     -157.929        7.353      200.165      161.723       82.209    40066.227    26154.468     6758.388        6.899        3.649      254.887       99.951        0.154      346.863       25.414      858.528
09/16/2014  21:25:00     -393.400     -185.517      -11.563      201.669      132.260       72.275    40670.232    17492.735     5223.634       12.634        3.169      434.949       85.367        0.039      346.842       25.377      858.532
09/16/2014  21:26:00     -310.026     -165.682       -8.952      148.925      100.826       70.320    22178.571    10165.788     4944.896        8.046        1.864      351.520       79.882        0.052      346.808       25.319      858.540
09/16/2014  21:27:00     -456.003     -223.354      -13.817      237.888      161.771       97.068    56590.585    26169.958     9422.288       17.508        4.609      507.765      124.425        0.060      346.856       25.401      858.518
09/16/2014  21:28:00     -299.250     -187.817       -7.602      176.271      159.846       79.431    31071.373    25550.644     6309.246        9.390        3.147      353.307       80.341        0.052      346.849       25.389      858.527
09/16/2014  21:29:00     -234.836     -116.821        8.217      191.911      162.538       84.434    36829.700    26418.648     7129.167        6.961        3.519      262.288       97.054        0.137      346.802       25.307      858.507
09/16/2014  21:30:00     -425.038     -166.456      -27.667      195.675      149.962       94.170    38288.800    22488.544     8867.937       13.937        3.482      456.469       92.005        0.041      346.856       25.401      858.531
09/16/2014  21:31:00     -267.303     -159.344        8.747      165.412      128.645       72.754    27361.206    16549.510     5293.211        7.305        2.460      311.194       83.874        0.073      346.824       25.346      858.533
09/16/2014  21:32:00     -326.383     -205.774       12.851      254.727      171.393      104.390    64885.952    29375.662    10897.240       12.708        5.258      385.836      125.498        0.106      346.849       25.390      858.561
09/16/2014  21:33:00     -410.096     -217.416      -14.786      159.040      135.808       73.087    25293.870    18443.907     5341.724       13.236        2.454      464.164       72.031        0.024      346.839       25.371      858.587
09/16/2014  21:34:00     -506.399     -307.852      -36.213      159.691      146.894       90.671    25501.203    21577.873     8221.313       20.390        2.765      592.632       84.075        0.020      346.896       25.469      858.576
09/16/2014  21:35:00     -410.750     -303.789      -11.917      225.234      169.389      102.030    50730.423    28692.664    10410.203       17.547        4.492      510.885      119.859        0.055      346.912       25.497      858.546
09/16/2014  21:36:00     -364.482     -231.293        6.904      192.716      174.353       88.328    37139.613    30399.134     7801.830       13.085        3.767      431.676       91.321        0.045      346.932       25.532      858.542
09/16/2014  21:37:00     -322.032     -200.594        8.304      181.294      174.041       97.451    32867.667    30290.348     9496.615       10.832        3.633      379.398      103.973        0.075      346.891       25.461      858.529
09/16/2014  21:38:00     -310.677     -144.901        7.031      180.065      139.015       68.950    32423.334    19325.107     4754.165        8.702        2.825      342.807       74.920        0.048      346.851       25.393      858.529
09/16/2014  21:39:00     -373.546      -96.463       -2.460      254.169      170.899       98.494    64601.690    29206.463     9701.159       12.616        5.175      385.800      112.977        0.086      346.849       25.390      858.563
09/16/2014  21:40:00     -467.700     -275.679      -16.734      218.950      225.608       97.760    47939.166    50898.883     9557.009       20.169        5.420      542.901       97.489        0.032      346.888       25.456      858.538
09/16/2014  21:41:00     -349.923     -202.619       -8.063      182.737      168.784       73.733    33392.865    28488.125     5436.557       11.543        3.366      404.352       75.263        0.035      346.875       25.433      858.559
09/16/2014  21:42:00     -477.151     -261.296      -31.498      209.046      156.657       93.861    43700.382    24541.503     8809.944       18.698        3.853      544.011       97.168        0.032      346.886       25.451      858.549
09/16/2014  21:43:00     -309.540     -214.257      -11.623      207.627      150.455       88.428    43109.111    22636.714     7819.515       10.770        3.678      376.459      101.767        0.073      346.879       25.440      858.538
09/16/2014  21:44:00     -295.800     -165.239        2.542      196.822      152.880       77.856    38738.765    23372.408     6061.612        9.148        3.409      338.823       90.837        0.072      346.853       25.395      858.546
09/16/2014  21:45:00     -353.381     -167.501      -18.258      181.208      138.198       77.715    32836.481    19098.718     6039.558       10.561        2.899      391.069       89.893        0.053      346.898       25.472      858.556
09/16/2014  21:46:00     -409.364     -251.690        3.168      204.882      162.992      108.076    41976.796    26566.296    11680.413       15.556        4.011      480.548      112.833        0.055      346.894       25.465      858.567
09/16/2014  21:47:00     -307.982      -85.578        6.871      138.703      146.331       70.665    19238.533    21412.823     4993.506        7.393        2.282      319.651       74.772        0.055      346.888       25.456      858.591
09/16/2014  21:48:00     -323.441     -143.373       -4.595      145.699      113.885       65.729    21228.120    12969.744     4320.323        8.185        1.926      353.793       65.201        0.034      346.859       25.406      858.606
09/16/2014  21:49:00     -373.453     -251.134      -11.926      200.065      121.344       78.662    40025.943    14724.253     6187.654       13.180        3.047      450.040       97.684        0.047      346.861       25.409      858.597
09/16/2014  21:50:00     -317.886     -224.230        1.056      154.928      148.365       74.789    24002.818    22012.319     5593.376       10.146        2.580      389.012       67.316        0.030      346.855       25.400      858.580
09/16/2014  21:51:00     -309.645     -183.085       -8.561      172.132      108.864       88.530    29629.529    11851.274     7837.541        8.939        2.466      359.722       75.368        0.044      346.883       25.447      858.547
09/16/2014  21:52:00     -324.446     -227.615       10.491      184.385      151.372      100.339    33997.697    22913.464    10067.823       11.207        3.349      396.325      101.934        0.066      346.827       25.351      858.520
09/16/2014  21:53:00     -294.865     -167.291       -6.563      159.173      155.215       74.341    25336.055    24091.794     5526.537        8.495        2.748      339.016       87.927        0.067      346.811       25.324      858.518
09/16/2014  21:54:00     -344.351     -174.600       -9.488      198.692      137.111       82.830    39478.684    18799.398     6860.740       10.713        3.257      386.087       93.933        0.059      346.832       25.360      858.501
09/16/2014  21:55:00     -209.809     -144.213        4.063      170.743      111.288       65.405    29153.292    12385.090     4277.813        5.532        2.291      254.592       80.341        0.100      346.828       25.355      858.524
09/16/2014  21:56:00     -175.136     -222.561        5.517      108.930      162.418       63.274    11865.766    26379.685     4003.568        6.123        2.112      283.207       53.406        0.036      346.842       25.377      858.505
09/16/2014  21:57:00     -312.784     -216.790      -13.636      136.435      128.182       62.123    18614.433    16430.640     3859.218        9.195        1.945      380.568       49.181        0.017      346.826       25.348      858.528
09/16/2014  21:58:00     -480.031     -202.464      -28.082      217.316      150.590       88.355    47226.453    22677.460     7806.656       17.495        3.886      520.982      110.686        0.045      346.815       25.330      858.535
09/16/2014  21:59:00     -415.136     -260.579      -14.742      193.604      171.403       95.583    37482.397    29379.068     9136.033       15.821        3.800      490.142       96.513        0.039      346.839       25.373      858.519
09/16/2014  22:00:00     -302.197     -148.719       11.616      177.512      151.011       82.451    31510.548    22804.379     6798.117        8.733        3.056      336.809       88.892        0.070      346.836       25.367      858.550
09/16/2014  22:01:00     -342.333     -176.068        3.115      191.928      165.668       81.660    36836.185    27445.890     6668.356       10.956        3.548      384.957       79.663        0.043      346.784       25.277      858.580
09/16/2014  22:02:00     -465.135     -263.394      -15.918      290.523      165.232      113.805    84403.502    27301.661    12951.512       20.529        6.233      534.534      136.986        0.066      346.802       25.307      858.528
09/16/2014  22:03:00     -357.647     -118.165        4.161      270.398      170.785       75.664    73114.898    29167.426     5725.102       12.493        5.400      376.662       90.354        0.058      346.786       25.281      858.530
09/16/2014  22:04:00     -204.596     -118.208       25.051      194.434      154.832       88.052    37804.667    23972.822     7753.202        6.298        3.477      236.289      103.647        0.192      346.759       25.235      858.526
09/16/2014  22:05:00     -388.275     -124.473      -21.883      215.689      149.564       68.194    46521.562    22369.341     4650.438       12.012        3.677      407.738       71.383        0.031      346.807       25.316      858.492
09/16/2014  22:06:00     -296.200     -108.530        5.103      222.309      179.505      102.166    49421.221    32222.113    10437.842        9.579        4.604      315.458       98.589        0.098      346.707       25.145      858.463
09/16/2014  22:07:00     -318.154     -166.570      -22.801      193.808      175.660       84.843    37561.649    30856.475     7198.275       10.254        3.781      359.121       88.456        0.061      346.686       25.108      858.492
09/16/2014  22:08:00     -253.987     -139.338       -5.641      172.516      158.124       78.017    29761.836    25003.109     6086.665        7.239        3.043      289.698       76.528        0.070      346.668       25.077      858.490
09/16/2014  22:09:00     -390.307     -203.480      -22.270      193.216      143.854       83.780    37332.545    20693.832     7019.168       12.963        3.252      440.163       88.028        0.040      346.618       24.991      858.458
09/16/2014  22:10:00     -157.713     -119.510        6.187      113.289       80.008       57.267    12834.464     6401.274     3279.490        3.085        1.126      197.879       61.967        0.098      346.610       24.978      858.467
09/16/2014  22:11:00     -256.238     -170.198       -7.324      119.158      102.341       57.999    14198.615    10473.663     3363.893        6.135        1.402      307.613       52.766        0.029      346.658       25.061      858.499
09/16/2014  22:12:00     -311.312      -73.202        1.635      182.876      148.954       82.398    33443.813    22187.318     6789.351        8.234        3.121      319.802       82.585        0.067      346.678       25.095      858.527
09/16/2014  22:13:00     -300.289     -230.090       -1.712      216.917      195.204       86.743    47053.040    38104.793     7524.295       11.788        4.634      378.305      107.171        0.080      346.744       25.209      858.452
09/16/2014  22:14:00     -243.788      -58.335        3.966      209.746      132.494       72.055    43993.316    17554.648     5191.909        6.478        3.337      250.670       77.917        0.097      346.720       25.166      858.453
09/16/2014  22:15:00     -362.581      -79.622       -4.080      249.419      188.483       93.136    62209.601    35525.929     8674.233       12.209        5.320      371.220      115.649        0.097      346.705       25.142      858.487
09/16/2014  22:16:00     -369.260     -152.617      -18.892      262.135      195.204       92.544    68714.699    38104.439     8564.317       13.767        5.769      399.556      114.453        0.082      346.731       25.187      858.569
09/16/2014  22:17:00     -268.057     -186.468       -3.661      151.043       96.219       72.471    22814.072     9258.098     5252.051        7.197        1.866      326.535       56.006        0.029      346.776       25.261      858.618
09/16/2014  22:18:00     -204.197     -148.881       12.340      132.702      124.691       62.912    17609.835    15547.931     3957.889        5.056        1.856      252.710       59.485        0.055      346.683       25.104      858.619
09/16/2014  22:19:00     -303.331     -134.223      -11.410      139.139      101.756       63.224    19359.650    10354.186     3997.251        7.193        1.686      331.701       65.779        0.039      346.622       24.999      858.560
09/16/2014  22:20:00     -378.504     -150.305      -18.785      186.139      104.128       60.521    34647.543    10842.586     3662.757       10.767        2.458      407.256       74.973        0.034      346.713       25.154      858.533
09/16/2014  22:21:00     -316.313     -129.601      -17.994      213.407      173.200       82.348    45542.556    29998.371     6781.171        9.973        4.116      341.834       94.011        0.076      346.626       25.006      858.535
09/16/2014  22:22:00     -230.136      -22.228       -2.274      137.765      136.345       67.495    18979.322    18589.857     4555.571        4.778        2.106      231.207       59.464        0.066      346.566       24.903      858.574
09/16/2014  22:23:00     -301.490     -157.506      -25.813      219.973      152.801       74.930    48387.955    23348.290     5614.478        9.685        3.868      340.154       87.693        0.066      346.614       24.985      858.547
09/16/2014  22:24:00     -323.666     -148.729      -11.370      175.625      131.888       78.558    30844.040    17394.382     6171.357        9.070        2.720      356.202       80.454        0.051      346.687       25.112      858.569
09/16/2014  22:25:00     -227.864     -129.066        8.251      186.027      149.466       74.500    34606.092    22340.001     5550.178        6.556        3.125      261.878       89.883        0.118      346.665       25.073      858.544
09/16/2014  22:26:00     -365.384     -126.522        3.118      217.002      173.452       96.994    47090.084    30085.475     9407.778       11.804        4.329      386.670      109.688        0.080      346.622       24.997      858.579
09/16/2014  22:27:00     -244.215      -77.560      -19.879      163.867      118.888       66.824    26852.537    14134.274     4465.410        5.574        2.273      256.235       74.544        0.085      346.604       24.970      858.612
09/16/2014  22:28:00     -249.797      -99.915       -5.933      194.518      133.362       74.617    37837.180    17785.316     5567.727        6.679        3.060      269.038       99.213        0.136      346.593       24.951      858.637
09/16/2014  22:29:00     -273.942      -64.596        9.078      153.287      124.727       69.958    23497.038    15556.911     4894.156        6.162        2.197      281.455       75.757        0.072      346.618       24.992      858.612
09/16/2014  22:30:00     -162.542     -119.241        8.775      110.811      126.931       60.892    12279.024    16111.511     3707.881        3.640        1.605      201.589       55.838        0.077      346.813       25.326      858.582
09/16/2014  22:31:00      -81.697     -207.783        5.475       68.543       71.182       38.158     4698.130     5066.923     1456.055        3.055        0.561      223.267       31.604        0.020      346.760       25.235      858.567
09/16/2014  22:32:00      -94.361     -140.649      -14.976      101.604       89.329       49.253    10323.468     7979.613     2425.844        2.482        1.036      169.370       43.079        0.065      346.697       25.130      858.598
09/16/2014  22:33:00      -32.225     -106.642       -5.673      108.739      100.448       57.846    11824.209    10089.817     3346.119        1.885        1.263      111.404       49.560        0.198      346.677       25.096      858.646
09/16/2014  22:34:00     -113.042     -127.350        2.028      102.318      101.349       51.928    10469.020    10271.645     2696.499        2.621        1.172      170.284       49.468        0.084      346.720       25.167      858.667
09/16/2014  22:35:00     -205.648       81.502      -27.927       86.299      115.691       49.426     7447.596    13384.336     2442.940        3.649        1.164      221.209       44.545        0.041      346.693       25.121      858.680
09/16/2014  22:36:00     -150.889      -34.138      -16.530      106.618      115.444       37.504    11367.329    13327.353     1406.542        2.515        1.305      154.703       39.069        0.064      346.751       25.221      858.713
09/16/2014  22:37:00       11.072     -114.459       26.359       58.284       93.671       49.306     3397.026     8774.327     2431.118        1.426        0.730      114.993       54.322        0.223      346.665       25.076      858.722
09/16/2014  22:38:00      -15.627      -66.091       -6.201       58.290       42.935       33.804     3397.687     1843.412     1142.701        0.552        0.319       67.913       21.319        0.099      346.626       25.010      858.712
09/16/2014  22:39:00       -1.562      -28.864       -4.312       49.215       43.450       25.680     2422.091     1887.894      659.473        0.291        0.248       28.907       22.469        0.604      346.673       25.091      858.717
09/16/2014  22:40:00     -216.014       68.063      -15.184      153.635       62.334       45.496    23603.691     3885.467     2069.867        4.054        1.478      226.483       66.446        0.086      346.563       24.898      858.728
09/16/2014  22:41:00       12.895       60.676       -8.263       40.106       53.063       27.225     1608.456     2815.636      741.178        0.454        0.258       62.031       19.930        0.103      346.416       24.648      858.730
09/16/2014  22:42:00       45.558      150.550      -22.703       43.647       40.122       31.319     1905.022     1609.771      980.889        1.488        0.225      157.292       29.939        0.036      346.424       24.661      858.760
09/16/2014  22:43:00      113.748      112.519       17.079       94.084       44.098       42.379     8851.826     1944.623     1795.999        1.924        0.630      159.997       43.408        0.074      346.477       24.750      858.752
09/16/2014  22:44:00      124.930       86.731       20.808       43.809       35.006       29.093     1919.203     1225.410      846.412        1.378        0.200      152.085       26.083        0.029      346.469       24.737      858.764
09/16/2014  22:45:00      180.076      109.693       27.589       46.236       48.544       37.193     2137.736     2356.545     1383.307        2.555        0.294      210.855       14.676        0.005      346.415       24.642      858.727
09/16/2014  22:46:00      101.457       64.501       37.272       93.671       56.488       42.955     8774.297     3190.845     1845.105        1.482        0.691      120.225       44.632        0.138      346.423       24.659      858.716
09/16/2014  22:47:00       66.674       53.048       16.322       45.901       31.940       30.716     2106.875     1020.185      943.467        0.580        0.204       85.203        9.475        0.012      346.305       24.457      858.755
09/16/2014  22:48:00       30.797       40.758        7.616       42.682       33.577       36.558     1821.749     1127.433     1336.470        0.348        0.214       51.085       23.921        0.219      346.283       24.419      858.780
09/16/2014  22:49:00       18.582       73.088       -8.536       19.760       31.401       13.153      390.443      985.992      172.996        0.365        0.077       75.413        7.877        0.011      346.293       24.437      858.832
09/16/2014  22:50:00       21.173      142.892       -3.734       34.154       58.367       36.928     1166.493     3406.651     1363.709        1.341        0.297      144.452       34.721        0.058      346.517       24.821      858.795
09/16/2014  22:51:00       70.557       96.910       18.555       62.162       55.198       61.640     3864.067     3046.795     3799.475        1.271        0.536      119.874       47.440        0.157      346.454       24.713      858.777
09/16/2014  22:52:00      174.954      111.259       56.046       76.503       54.307       51.356     5852.785     2949.264     2637.390        2.878        0.572      207.334       48.097        0.054      346.273       24.398      858.730
09/16/2014  22:53:00       53.423       89.605       69.288       77.423       36.674       40.268     5994.368     1344.971     1621.511        1.232        0.448      104.322       43.649        0.175      346.270       24.397      858.739
09/16/2014  22:54:00       28.839       -5.016       35.261       44.585       41.706       30.722     1987.822     1739.409      943.835        0.338        0.234       29.272       33.525        1.312      346.440       24.690      858.795
09/16/2014  22:55:00       69.212      -67.249        9.554       31.949       37.526       28.385     1020.738     1408.181      805.698        0.632        0.162       96.502       21.098        0.048      346.510       24.809      858.828
09/16/2014  22:56:00     -104.603      -29.416      -17.255      134.784       67.210       54.036    18166.798     4517.125     2919.899        1.885        1.280      108.660       64.279        0.350      346.671       25.085      858.816
09/16/2014  22:57:00       -0.020       38.995      -18.351       81.038       87.227       53.595     6567.201     7608.596     2872.451        0.945        0.852       38.995       51.632        1.753      346.787       25.285      858.781
09/16/2014  22:58:00      -73.061      -64.584      -16.831       49.580       58.639       25.255     2458.164     3438.492      637.799        0.816        0.327       97.514       25.600        0.069      346.700       25.136      858.775
09/16/2014  22:59:00     -107.155      -63.673       -1.490       48.849       39.268       31.108     2386.245     1541.940      967.714        1.022        0.245      124.646       14.773        0.014      346.618       24.995      858.800
09/16/2014  23:00:00      -42.955      -61.435       10.850       65.984       50.703       37.084     4353.829     2570.774     1375.239        0.702        0.415       74.963       33.353        0.198      346.649       25.047      858.794
09/16/2014  23:01:00      -48.508     -100.019        3.162       33.183       35.501       26.319     1101.097     1260.310      692.714        0.771        0.153      111.161       14.786        0.018      346.702       25.138      858.769
09/16/2014  23:02:00       10.222      -11.392       12.453       24.963       43.614       23.112      623.173     1902.148      534.145        0.172        0.153       15.306       31.054        4.116      346.620       24.994      858.761
09/16/2014  23:03:00        5.197       16.144       18.779       14.612       17.817       19.304      213.521      317.463      372.649        0.077        0.045       16.960       12.506        0.544      346.450       24.708      858.755
09/16/2014  23:04:00        4.239       42.615       57.148       26.413       28.966       21.279      697.625      839.012      452.783        0.354        0.099       42.825       18.349        0.184      346.453       24.711      858.740
09/16/2014  23:05:00        9.023       23.369       32.486       23.669       26.086       21.697      560.208      680.493      470.739        0.170        0.086       25.050       15.870        0.401      346.504       24.799      858.716
09/16/2014  23:06:00        3.657       -5.787        8.474       12.545       17.358       12.336      157.369      301.293      152.180        0.036        0.031        6.846        5.817        0.722      346.469       24.739      858.720
09/16/2014  23:07:00       16.331       -1.034       15.642       18.994       15.241        9.362      360.764      232.294       87.650        0.060        0.034       16.364       10.358        0.401      346.496       24.787      858.726
09/16/2014  23:08:00        6.218       28.954       44.584       17.748       29.131       18.604      315.006      848.617      346.097        0.219        0.075       29.614       18.668        0.397      346.480       24.758      858.722
09/16/2014  23:09:00       -0.380       38.180       52.573       17.663       21.553       13.338      311.968      464.511      177.895        0.259        0.048       38.182       13.838        0.131      346.362       24.555      858.721
09/16/2014  23:10:00       50.192       32.157       23.517       23.171       13.456       13.884      536.895      181.074      192.775        0.251        0.046       59.609       12.030        0.041      346.343       24.523      858.731
09/16/2014  23:11:00       69.051       38.413       28.837       21.264       18.290       19.237      452.156      334.528      370.045        0.412        0.058       79.017        7.351        0.009      346.309       24.464      858.742
09/16/2014  23:12:00       86.447       55.681       16.894       27.470       12.232       17.284      754.597      149.626      298.743        0.603        0.060      102.827        7.868        0.006      346.443       24.694      858.726
09/16/2014  23:13:00       53.268       45.702       -3.004       16.737       16.408       13.337      280.123      269.219      177.885        0.283        0.036       70.187        8.669        0.015      346.418       24.649      858.708
09/16/2014  23:14:00        3.446       64.091      -13.964       18.546       23.099        9.057      343.972      533.579       82.031        0.264        0.048       64.184        9.129        0.020      346.340       24.519      858.686
09/16/2014  23:15:00      -37.178      138.249      -23.854       18.249       21.699       11.136      333.042      470.857      124.008        1.100        0.046      143.161        7.408        0.003      346.693       25.124      858.680
09/16/2014  23:16:00      -24.319      144.177      -17.776       17.304       15.234       10.083      299.427      232.081      101.664        1.116        0.032      146.214        3.739        0.001      346.650       25.050      858.665
09/16/2014  23:17:00       39.705      117.966      -12.633       20.553       53.664       24.330      422.415     2879.861      591.959        0.977        0.195      124.469       29.848        0.058      346.730       25.187      858.661
09/16/2014  23:18:00       37.640       68.729       -9.555       39.689       28.945       21.355     1575.199      837.835      456.040        0.455        0.143       78.361       10.397        0.018      346.592       24.950      858.676
09/16/2014  23:19:00       84.778       41.159       -0.087       39.225       30.963       24.082     1538.589      958.693      579.942        0.598        0.154       94.241       16.935        0.032      346.562       24.900      858.684
09/16/2014  23:20:00       27.353      -24.257        4.640       30.622       43.512       20.338      937.684     1893.317      413.617        0.230        0.162       36.559       12.487        0.117      346.489       24.774      858.692
09/16/2014  23:21:00      -38.076      -31.673       -2.002       22.978       29.907       17.903      527.982      894.411      320.501        0.210        0.087       49.528       13.208        0.071      346.296       24.441      858.690
09/16/2014  23:22:00      -57.846        6.473       -7.713       24.209       16.860       12.396      586.072      284.276      153.650        0.224        0.051       58.207       10.382        0.032      346.177       24.236      858.687
09/16/2014  23:23:00      -75.057      -13.458       -6.929       14.659       15.698        9.109      214.897      246.416       82.978        0.320        0.027       76.254        7.670        0.010      346.286       24.424      858.676
09/16/2014  23:24:00      -29.329      -12.342       -4.689       19.968       13.054        8.561      398.728      170.400       73.296        0.084        0.032       31.820        6.616        0.043      346.317       24.476      858.670
09/16/2014  23:25:00      -10.138       12.949       -1.356       14.320       11.502        8.855      205.073      132.307       78.416        0.034        0.021       16.445        9.026        0.301      346.485       24.766      858.674
09/16/2014  23:26:00       39.302       15.564        4.617       26.535       18.642       11.813      704.121      347.540      139.543        0.150        0.060       42.272       11.109        0.069      346.411       24.639      858.685
09/16/2014  23:27:00       18.493        7.751       10.127       14.127       14.828       12.773      199.569      219.858      163.140        0.054        0.029       20.051        8.272        0.170      346.157       24.202      858.710
09/16/2014  23:28:00       33.861       52.659       43.732       20.116       30.418       27.031      404.654      925.244      730.678        0.395        0.103       62.606       21.885        0.122      346.039       24.000      858.735
09/16/2014  23:29:00       78.214       63.213       54.693       48.712       31.225       29.326     2372.837      975.025      860.029        0.866        0.210      100.565       15.978        0.025      346.087       24.083      858.738
09/16/2014  23:30:00      119.752       74.254       21.746       39.668       28.361       29.417     1573.514      804.368      865.389        1.178        0.162      140.905       16.957        0.014      346.096       24.097      858.727
09/16/2014  23:31:00      115.565       60.193        3.656       51.285       43.124       30.929     2630.172     1859.639      956.578        1.122        0.272      130.301       19.700        0.023      346.049       24.017      858.703
09/16/2014  23:32:00      114.348       76.639       30.542       33.870       28.223       35.393     1147.149      796.553     1252.699        1.154        0.160      137.655       24.180        0.031      346.275       24.407      858.701
09/16/2014  23:33:00      145.220       87.362       20.993       52.080       45.445       35.877     2712.301     2065.214     1287.138        1.761        0.303      169.472       24.096        0.020      346.108       24.117      858.718
09/16/2014  23:34:00      112.243       57.935       21.375       36.149       37.646       31.232     1306.755     1417.223      975.447        1.005        0.185      126.313       15.702        0.015      346.021       23.970      858.749
09/16/2014  23:35:00      120.691       64.124       17.719       44.243       30.511       30.162     1957.447      930.943      909.758        1.139        0.190      136.668       16.390        0.014      346.108       24.119      858.778
09/16/2014  23:36:00       76.125       59.660       11.223       41.290       31.701       24.041     1704.856     1004.958      577.957        0.638        0.164       96.718       16.310        0.028      346.046       24.011      858.800
09/16/2014  23:37:00       88.547       74.097       14.263       42.155       41.814       26.292     1777.021     1748.435      691.265        0.887        0.211      115.459       19.002        0.027      346.027       23.980      858.804
09/16/2014  23:38:00      100.397       69.469        5.531       46.638       33.720       30.412     2175.104     1137.052      924.864        0.959        0.212      122.088       14.373        0.014      346.258       24.377      858.791
09/16/2014  23:39:00       52.515      113.691       -3.789       41.704       57.002       36.127     1739.252     3249.184     1305.165        1.099        0.315      125.234       34.588        0.076      346.123       24.144      858.773
09/16/2014  23:40:00       34.096       87.481       -0.495       45.806       58.425       34.533     2098.226     3413.456     1192.526        0.776        0.335       93.891       36.393        0.150      346.148       24.187      858.743
09/16/2014  23:41:00       18.365      140.959       -9.723       46.685       49.194       34.213     2179.505     2420.075     1170.560        1.303        0.289      142.151       25.839        0.033      346.244       24.351      858.735
09/16/2014  23:42:00       -0.856      167.923      -18.998       44.388       34.578       21.482     1970.297     1195.659      461.469        1.609        0.181      167.925       14.893        0.008      346.295       24.439      858.754
09/16/2014  23:43:00      -30.352      103.439      -12.265       26.650       42.464       22.883      710.232     1803.217      523.610        0.740        0.152      107.800       22.717        0.044      346.197       24.270      858.774
09/16/2014  23:44:00      -18.245       90.228      -11.576       25.854       39.640       18.293      668.415     1571.326      334.640        0.559        0.129       92.054       13.943        0.023      346.212       24.297      858.787
09/16/2014  23:45:00        9.323       84.647       -5.717       32.427       45.298       26.388     1051.484     2051.893      696.337        0.554        0.190       85.159       28.087        0.109      346.273       24.403      858.787
09/16/2014  23:46:00       11.989      108.957       -1.542       32.777       36.614       26.168     1074.319     1340.558      684.768        0.756        0.155      109.615       19.688        0.032      346.263       24.385      858.767
09/16/2014  23:47:00       44.899       74.194       -1.655       32.690       38.849       32.313     1068.664     1509.244     1044.129        0.557        0.181       86.722       23.519        0.074      346.226       24.322      858.743
09/16/2014  23:48:00       45.540       78.670        3.619       46.618       49.035       37.008     2173.275     2404.410     1369.597        0.711        0.297       90.900       30.592        0.113      346.245       24.356      858.715
09/16/2014  23:49:00       43.121      117.001      -16.393       53.452       62.631       39.013     2857.086     3922.581     1521.975        1.206        0.415      124.694       37.410        0.090      346.254       24.368      858.677
09/16/2014  23:50:00       84.648       84.874       -2.750       50.186       51.811       42.313     2518.669     2684.366     1790.352        1.068        0.350      119.870       31.784        0.070      346.212       24.298      858.653
09/16/2014  23:51:00       75.466       82.073       -7.066       45.561       48.192       44.342     2075.798     2322.455     1966.247        0.942        0.318      111.495       33.362        0.090      346.214       24.302      858.631
09/16/2014  23:52:00      124.665       99.931       19.317       65.701       39.920       49.921     4316.664     1593.624     2492.124        1.715        0.420      159.774       41.256        0.067      346.158       24.202      858.613
09/16/2014  23:53:00      151.239      120.180        9.667       62.147       55.285       45.268     3862.279     3056.409     2049.204        2.319        0.448      193.174       32.290        0.028      346.126       24.147      858.623
09/16/2014  23:54:00      113.691       95.544        8.178       61.880       45.659       47.528     3829.097     2084.772     2258.891        1.515        0.409      148.507       30.592        0.042      346.091       24.087      858.633
09/16/2014  23:55:00      157.882      104.983       17.702       60.255       41.628       44.679     3630.698     1732.876     1996.221        2.181        0.368      189.600       31.572        0.028      346.117       24.131      858.641
09/16/2014  23:56:00      162.217      128.060       23.061       89.904       61.647       51.950     8082.777     3800.310     2698.793        2.891        0.729      206.673       36.486        0.031      346.164       24.210      858.671
09/16/2014  23:57:00      170.648      124.204       25.979       79.567       51.225       52.380     6330.943     2624.012     2743.634        2.846        0.585      211.063       36.437        0.030      346.136       24.163      858.684
09/16/2014  23:58:00      181.784      123.151       10.184       88.595       58.500       48.138     7849.104     3422.257     2317.294        3.095        0.679      219.571       29.225        0.018      346.027       23.975      858.678
09/16/2014  23:59:00       42.218      121.673       -1.952       56.248       74.135       40.497     3163.891     5496.023     1640.042        1.344        0.515      128.789       37.638        0.085      345.997       23.929      858.669
